GFSMW_700_temp_000.txt.gz
Temp
9 9 9 10 10 10 10 10 10 10 10 10 9 8 7 7 6 6 6 5 5 5 5 5 5 5 5 5 5 5 5 5 5 5 5 5 5 5 5 5 5 5 5
9 9 9 9 10 10 10 9 9 9 9 9 9 8 7 7 6 6 6 5 5 5 5 5 5 5 5 5 5 5 5 5 5 5 5 5 5 5 5 5 5 5 5
9 9 9 9 9 9 8 8 8 8 8 8 8 8 7 7 6 6 6 6 6 5 5 5 5 5 6 5 5 5 5 5 5 5 5 5 5 5 5 5 5 5 5
9 9 9 9 8 8 8 8 7 7 7 7 7 7 7 7 7 7 6 6 6 6 6 6 6 6 6 6 6 6 6 5 5 5 5 5 5 4 4 5 5 5 5
8 8 8 8 8 7 7 7 7 6 6 6 6 6 6 6 6 6 6 6 6 6 6 6 6 6 6 6 5 5 5 5 5 5 5 5 5 4 3 3 5 5 5
8 7 7 7 7 7 6 6 6 6 6 6 6 5 5 5 5 5 5 5 5 4 4 4 4 4 4 4 5 4 4 4 3 3 3 3 2 3 3 3 2 3 5
7 7 6 6 6 6 6 6 6 6 5 5 5 4 4 4 4 4 4 4 3 3 3 3 3 3 3 3 3 3 3 3 2 2 2 2 2 1 1 1 2 2 2
7 6 6 6 6 6 6 6 5 5 4 4 3 3 3 3 3 3 3 2 2 2 2 2 2 2 2 1 1 1 1 2 2 2 2 1 1 1 1 1 1 1 2
6 6 5 5 5 6 5 4 4 4 4 3 3 3 2 2 2 2 2 2 1 1 1 1 1 1 1 1 1 1 0 0 -0 0 1 1 1 1 1 1 1 1 1
6 5 5 5 5 5 4 4 4 3 3 3 2 2 2 1 1 1 0 0 0 0 0 0 0 1 1 1 1 0 0 -0 -0 -0 -1 -1 -0 -0 -0 0 0 -0 -0
5 4 4 4 4 4 3 3 3 2 2 2 1 1 1 0 -0 -0 -0 -0 -0 -0 -0 -0 -0 -0 -0 -0 -0 -1 -1 -1 -1 -1 -1 -1 -1 -0 -0 -1 -1 -1 -1
4 4 4 4 3 3 3 2 2 2 1 1 0 -0 -0 -1 -1 -1 -1 -1 -1 -1 -1 -1 -1 -1 -1 -1 -1 -1 -1 -2 -1 -1 -1 -1 -1 -1 -1 -2 -2 -2 -2
4 4 3 3 2 2 2 2 1 1 0 -0 -1 -1 -1 -1 -1 -1 -1 -1 -1 -1 -1 -2 -2 -2 -2 -2 -2 -2 -2 -2 -1 -1 -1 -1 -1 -1 -2 -2 -2 -2 -2
4 3 3 2 2 1 1 -0 -1 -1 -1 -1 -1 -2 -2 -2 -2 -2 -2 -2 -2 -2 -2 -2 -2 -2 -2 -2 -3 -3 -3 -2 -2 -2 -2 -2 -2 -3 -3 -3 -3 -3 -3
3 3 2 2 1 0 -0 -1 -1 -1 -2 -2 -2 -2 -3 -3 -3 -3 -3 -3 -3 -3 -3 -3 -3 -3 -3 -3 -3 -3 -3 -3 -2 -3 -3 -3 -4 -4 -5 -5 -4 -4 -4
2 2 1 1 -0 -1 -1 -2 -2 -2 -3 -3 -3 -3 -3 -4 -4 -4 -4 -5 -4 -4 -4 -4 -4 -4 -4 -4 -5 -5 -4 -4 -4 -4 -4 -5 -6 -6 -6 -6 -6 -5 -5
1 1 0 -0 -1 -2 -2 -2 -2 -3 -3 -4 -4 -5 -5 -5 -5 -5 -5 -5 -5 -5 -5 -5 -5 -5 -6 -6 -7 -7 -7 -8 -8 -8 -8 -8 -9 -8 -8 -7 -7 -6 -6
-0 -1 -1 -2 -2 -2 -2 -3 -3 -4 -5 -5 -5 -5 -6 -6 -6 -6 -6 -6 -6 -6 -7 -7 -7 -7 -8 -8 -9 -9 -10 -10 -11 -11 -11 -11 -11 -10 -10 -9 -8 -7 -6
-1 -2 -2 -2 -3 -3 -3 -4 -4 -5 -5 -6 -6 -6 -6 -7 -7 -7 -7 -7 -8 -8 -8 -9 -9 -9 -9 -10 -10 -11 -11 -11 -11 -12 -12 -12 -12 -11 -11 -10 -9 -8 -7
-3 -3 -3 -3 -3 -4 -4 -5 -5 -5 -6 -6 -7 -7 -7 -7 -8 -8 -8 -9 -9 -9 -10 -10 -10 -10 -10 -11 -11 -12 -12 -12 -12 -12 -12 -12 -12 -12 -11 -11 -11 -9 -8
-3 -3 -4 -4 -5 -5 -5 -5 -6 -6 -7 -7 -7 -8 -8 -8 -8 -9 -9 -10 -10 -10 -10 -10 -10 -10 -11 -12 -13 -13 -13 -13 -13 -13 -13 -13 -13 -12 -11 -11 -11 -11 -10
-4 -5 -5 -6 -6 -6 -6 -6 -7 -7 -7 -8 -8 -8 -8 -9 -9 -10 -10 -10 -11 -11 -11 -11 -11 -11 -12 -13 -13 -14 -14 -14 -14 -13 -13 -13 -13 -12 -12 -11 -11 -11 -10
-5 -6 -6 -6 -6 -6 -7 -7 -7 -8 -8 -9 -9 -9 -9 -10 -10 -11 -11 -12 -12 -12 -12 -12 -12 -12 -13 -14 -14 -14 -14 -14 -14 -14 -13 -13 -13 -13 -12 -11 -11 -11 -10
-7 -7 -7 -6 -7 -7 -8 -8 -9 -9 -9 -9 -9 -10 -10 -11 -11 -12 -12 -12 -13 -13 -13 -13 -14 -14 -15 -15 -15 -15 -14 -14 -14 -14 -13 -13 -13 -13 -12 -11 -11 -11 -10
-5 -6 -6 -8 -8 -8 -9 -9 -9 -9 -9 -10 -10 -11 -11 -12 -12 -13 -13 -13 -13 -14 -15 -15 -15 -16 -15 -15 -16 -15 -15 -15 -15 -14 -14 -14 -13 -12 -12 -11 -12 -10 -9
-6 -7 -8 -8 -8 -8 -9 -9 -10 -10 -11 -11 -11 -12 -12 -13 -13 -13 -13 -13 -14 -14 -15 -16 -16 -16 -16 -16 -16 -16 -16 -15 -15 -15 -14 -14 -13 -13 -12 -11 -10 -10 -9

GFSMW_700_temp_003.txt.gz
Temp
8 8 8 9 9 9 9 9 9 9 9 9 9 8 8 7 6 6 6 6 6 5 5 5 5 5 5 5 5 5 5 5 5 5 5 5 5 5 5 5 5 5 5
8 8 9 9 9 8 8 8 8 8 8 8 8 8 8 7 7 7 7 7 6 6 6 6 6 6 5 5 5 5 5 5 5 5 5 5 6 6 5 5 5 5 4
8 8 8 8 8 8 7 8 8 8 8 8 8 8 7 7 7 7 7 7 6 6 6 6 6 5 5 5 5 5 5 5 5 5 4 4 4 4 5 6 6 5 5
7 8 8 8 7 7 7 7 7 7 7 7 7 7 7 6 6 6 6 5 5 5 5 5 5 5 5 5 5 5 5 5 5 5 4 3 2 2 3 4 5 5 5
7 8 8 7 7 6 6 6 6 6 6 6 6 5 5 5 5 4 4 4 4 4 4 4 4 4 3 3 3 3 3 3 3 3 2 2 2 2 1 2 2 3 4
7 7 7 6 6 6 6 6 6 6 5 5 5 5 4 4 4 3 3 3 3 3 3 3 2 2 2 2 2 2 2 2 2 2 1 1 1 1 0 1 1 2 3
7 7 6 6 6 6 5 5 5 4 4 4 4 4 3 3 3 3 2 2 2 2 2 2 2 2 2 1 1 1 1 1 1 1 1 1 0 -0 -0 -0 0 0 1
6 6 6 5 5 5 5 4 4 4 4 3 3 3 2 2 2 2 1 1 1 1 1 1 1 1 1 1 1 1 0 0 -0 -1 -1 -1 -0 -0 -0 -0 -1 0 1
6 6 5 5 5 4 4 3 3 3 3 3 2 2 1 1 1 1 0 0 0 0 0 0 0 0 0 0 0 0 0 -0 -0 -0 -1 -1 -1 -1 -1 -1 -2 -2 -2
5 5 5 5 4 3 3 3 3 2 2 2 1 1 0 0 -0 -0 -1 -1 -1 -1 -0 -0 -0 -0 -0 -1 -1 -1 -1 -1 -1 -1 -1 -2 -2 -2 -2 -2 -2 -2 -3
5 5 4 4 4 3 2 2 2 1 1 0 -0 -0 -1 -1 -1 -1 -1 -1 -1 -1 -1 -1 -2 -2 -2 -2 -2 -2 -2 -2 -2 -2 -2 -2 -2 -2 -2 -2 -3 -3 -3
4 4 4 3 2 2 2 1 1 1 -0 -1 -1 -1 -1 -2 -2 -2 -2 -2 -2 -2 -2 -2 -3 -3 -3 -3 -3 -2 -2 -2 -2 -2 -2 -2 -2 -2 -2 -2 -2 -2 -3
4 4 3 2 2 1 1 0 -0 -1 -1 -1 -1 -2 -2 -2 -2 -2 -2 -3 -3 -3 -3 -3 -3 -3 -3 -3 -3 -3 -3 -3 -2 -2 -2 -2 -2 -2 -2 -2 -2 -2 -2
3 3 2 1 1 0 -0 -1 -1 -2 -2 -2 -2 -2 -2 -2 -3 -3 -4 -4 -4 -4 -4 -4 -4 -4 -4 -4 -4 -4 -4 -3 -3 -4 -4 -3 -3 -4 -3 -4 -3 -3 -3
3 2 1 1 0 -0 -0 -1 -2 -2 -2 -2 -2 -3 -3 -4 -4 -4 -5 -5 -5 -5 -5 -5 -5 -5 -5 -6 -6 -5 -5 -5 -5 -5 -5 -5 -5 -6 -7 -6 -6 -7 -7
2 1 0 0 -0 -1 -2 -2 -2 -2 -2 -3 -3 -4 -4 -5 -5 -6 -6 -6 -6 -6 -6 -6 -6 -6 -7 -8 -8 -8 -8 -7 -7 -7 -7 -7 -7 -8 -9 -9 -10 -11 -12
1 0 -0 -1 -1 -1 -2 -2 -3 -3 -3 -4 -4 -5 -5 -6 -6 -6 -7 -7 -7 -7 -7 -7 -8 -8 -9 -9 -9 -10 -10 -10 -10 -10 -10 -10 -10 -11 -11 -11 -11 -11 -12
0 0 -0 -1 -1 -2 -3 -3 -3 -4 -4 -4 -5 -6 -6 -7 -7 -7 -7 -8 -8 -8 -8 -8 -9 -9 -10 -10 -11 -11 -11 -11 -11 -12 -12 -12 -12 -12 -12 -12 -12 -12 -12
0 -1 -1 -2 -3 -3 -3 -3 -4 -4 -5 -6 -6 -7 -7 -7 -8 -8 -8 -8 -8 -8 -9 -10 -10 -11 -11 -11 -11 -12 -12 -12 -13 -13 -13 -13 -13 -13 -13 -13 -13 -13 -12
-2 -3 -3 -3 -3 -3 -4 -4 -5 -5 -6 -6 -7 -7 -8 -8 -8 -8 -9 -9 -9 -10 -10 -11 -11 -12 -12 -12 -12 -12 -13 -14 -14 -14 -14 -13 -13 -13 -13 -13 -14 -14 -13
-2 -3 -4 -5 -5 -6 -6 -7 -6 -6 -7 -7 -7 -8 -8 -9 -9 -9 -9 -10 -10 -11 -12 -12 -12 -13 -13 -12 -13 -14 -15 -15 -16 -15 -15 -14 -14 -13 -14 -14 -14 -14 -13
-3 -4 -5 -5 -6 -7 -7 -7 -6 -7 -7 -7 -8 -8 -9 -9 -9 -10 -10 -11 -12 -12 -13 -13 -13 -13 -13 -13 -14 -15 -16 -16 -17 -16 -15 -14 -14 -14 -14 -14 -14 -14 -13
-4 -5 -5 -5 -6 -6 -6 -6 -7 -7 -7 -8 -9 -9 -9 -10 -10 -11 -12 -12 -13 -13 -13 -13 -13 -13 -13 -14 -15 -16 -16 -16 -16 -16 -15 -14 -15 -14 -15 -14 -14 -13 -13
-4 -5 -5 -6 -6 -7 -7 -8 -8 -8 -8 -9 -9 -10 -10 -11 -11 -12 -12 -13 -14 -14 -14 -14 -14 -14 -15 -16 -16 -16 -16 -16 -16 -17 -15 -15 -15 -15 -15 -15 -14 -13 -13
-5 -6 -6 -7 -7 -8 -8 -8 -8 -9 -9 -9 -10 -11 -11 -11 -12 -12 -13 -14 -14 -15 -15 -15 -16 -16 -16 -16 -17 -17 -16 -17 -18 -17 -15 -15 -15 -15 -15 -14 -14 -13 -13
-5 -6 -7 -7 -8 -8 -8 -9 -9 -10 -10 -11 -11 -11 -11 -11 -12 -13 -13 -14 -15 -15 -15 -16 -16 -16 -17 -16 -17 -16 -17 -17 -18 -16 -16 -16 -16 -15 -15 -14 -13 -13 -12

GFSMW_700_temp_006.txt.gz
Temp
8 8 8 8 8 8 9 9 9 8 8 8 8 8 7 7 7 7 7 6 6 6 5 5 5 5 5 5 5 5 5 5 5 5 5 5 5 5 5 5 5 5 5
8 8 8 8 8 8 8 8 8 7 7 7 7 7 7 7 7 6 6 6 6 5 5 5 5 5 5 5 5 5 5 5 4 4 4 5 5 6 6 6 6 5 5
7 7 7 7 7 7 7 7 7 7 7 7 7 7 6 6 6 6 5 5 5 5 5 5 4 4 4 4 4 4 4 4 4 3 3 3 3 3 3 3 4 4 4
6 7 7 7 7 6 7 7 6 6 6 6 7 6 6 5 5 5 4 4 4 4 4 4 3 3 3 3 3 3 3 2 2 2 2 2 2 0 2 2 2 2 3
6 6 7 6 6 6 6 6 6 6 6 6 6 5 5 4 4 4 3 3 3 3 2 2 2 2 1 1 1 1 1 1 1 1 1 1 1 0 -0 1 1 1 1
6 6 6 6 6 5 5 5 5 5 5 5 4 4 4 3 3 2 2 2 2 2 1 1 1 1 1 1 1 1 0 0 0 -0 -0 -1 -1 -0 -1 -1 0 0 1
6 6 6 6 5 5 5 4 4 4 4 3 3 3 3 2 2 2 1 1 1 1 1 1 1 0 0 0 0 0 -0 -0 -0 -1 -1 -1 -1 -2 -2 -2 -2 -2 -1
6 6 6 5 5 5 4 4 3 3 3 3 2 2 2 1 1 1 0 0 -0 -0 -0 -0 -0 -1 -1 -1 -1 -1 -1 -1 -1 -1 -2 -2 -2 -3 -3 -4 -4 -3 -2
6 6 5 5 4 4 3 3 2 2 2 2 1 1 1 0 -0 -1 -1 -1 -1 -1 -1 -1 -1 -2 -2 -2 -2 -2 -2 -2 -2 -2 -2 -2 -2 -2 -3 -4 -4 -5 -4
6 5 5 5 4 3 2 2 2 2 2 1 1 0 -0 -1 -1 -2 -2 -2 -2 -2 -2 -2 -2 -2 -3 -3 -3 -3 -3 -3 -3 -3 -2 -3 -3 -3 -3 -4 -4 -5 -6
5 5 4 4 3 3 2 2 1 1 1 0 -0 -1 -1 -2 -2 -2 -2 -2 -2 -2 -2 -3 -3 -4 -4 -4 -4 -4 -4 -4 -4 -4 -4 -4 -4 -4 -4 -4 -4 -4 -6
4 4 4 3 3 2 1 1 1 1 0 -0 -1 -2 -2 -2 -2 -2 -2 -2 -3 -3 -3 -4 -4 -5 -5 -5 -5 -4 -4 -4 -4 -4 -4 -4 -5 -5 -5 -5 -5 -6 -6
4 4 4 3 2 1 1 1 0 -0 -1 -2 -2 -2 -2 -2 -3 -3 -3 -3 -4 -4 -5 -5 -5 -5 -5 -5 -5 -5 -5 -5 -5 -5 -6 -6 -6 -6 -6 -6 -6 -7 -6
4 4 2 2 1 1 0 -0 -1 -1 -2 -2 -2 -3 -2 -3 -3 -3 -4 -4 -5 -5 -5 -6 -6 -6 -6 -7 -7 -7 -7 -7 -8 -8 -8 -8 -8 -8 -8 -8 -8 -8 -8
4 3 2 1 1 0 -0 -1 -2 -2 -2 -2 -3 -3 -4 -3 -3 -4 -5 -5 -5 -6 -6 -7 -7 -7 -7 -8 -8 -8 -9 -9 -9 -10 -10 -10 -11 -10 -10 -11 -10 -11 -11
3 2 1 1 -0 -1 -1 -2 -2 -2 -3 -3 -4 -4 -4 -4 -5 -5 -5 -6 -6 -7 -7 -7 -7 -8 -8 -9 -10 -11 -11 -11 -11 -12 -12 -12 -12 -12 -12 -12 -13 -13 -13
2 1 1 0 -1 -1 -2 -2 -2 -3 -3 -4 -4 -4 -4 -5 -5 -6 -6 -7 -7 -7 -8 -8 -8 -9 -10 -10 -11 -12 -12 -13 -12 -12 -12 -13 -13 -13 -13 -14 -14 -14 -13
1 1 0 -0 -1 -2 -2 -3 -4 -4 -4 -4 -4 -4 -5 -6 -6 -7 -7 -8 -8 -8 -8 -8 -9 -10 -11 -12 -13 -13 -13 -13 -13 -13 -14 -14 -14 -14 -15 -15 -15 -14 -14
1 1 0 -1 -2 -3 -4 -4 -5 -5 -4 -4 -5 -5 -6 -6 -7 -7 -8 -8 -8 -8 -8 -9 -10 -11 -12 -13 -13 -13 -13 -13 -13 -14 -14 -15 -15 -15 -15 -16 -15 -15 -14
1 0 -1 -2 -2 -3 -4 -4 -5 -5 -5 -5 -6 -6 -7 -7 -8 -8 -8 -8 -9 -9 -10 -10 -12 -13 -13 -13 -13 -14 -14 -14 -14 -15 -15 -15 -16 -15 -16 -16 -16 -15 -15
0 -0 -1 -2 -3 -4 -4 -5 -5 -5 -5 -6 -7 -7 -8 -8 -9 -9 -9 -9 -9 -10 -11 -12 -12 -13 -13 -14 -14 -15 -15 -15 -16 -15 -15 -15 -16 -15 -16 -16 -16 -16 -15
-1 -1 -2 -3 -4 -5 -5 -5 -5 -6 -6 -7 -8 -8 -8 -9 -9 -9 -9 -10 -10 -11 -12 -12 -13 -13 -13 -14 -15 -15 -16 -16 -16 -16 -16 -16 -18 -16 -16 -16 -16 -15 -15
-2 -3 -3 -4 -5 -5 -5 -5 -6 -7 -7 -8 -8 -9 -9 -10 -10 -10 -10 -10 -11 -12 -13 -13 -13 -13 -14 -14 -15 -16 -15 -16 -16 -16 -17 -17 -16 -17 -16 -16 -16 -16 -15
-3 -4 -4 -4 -4 -5 -6 -6 -7 -7 -8 -8 -9 -9 -10 -9 -10 -10 -11 -12 -12 -12 -13 -14 -14 -14 -14 -15 -15 -16 -16 -16 -17 -17 -19 -16 -16 -16 -16 -16 -15 -15 -15
-4 -4 -4 -4 -5 -6 -7 -7 -8 -8 -9 -9 -10 -10 -10 -10 -10 -10 -11 -12 -12 -13 -14 -14 -15 -15 -15 -16 -17 -17 -17 -17 -18 -18 -17 -16 -16 -16 -15 -15 -15 -15 -15
-4 -4 -4 -5 -6 -7 -8 -8 -9 -10 -10 -10 -10 -10 -10 -10 -10 -11 -11 -12 -13 -13 -14 -15 -16 -16 -17 -17 -17 -17 -17 -17 -18 -18 -17 -16 -16 -16 -16 -15 -15 -15 -14

GFSMW_700_temp_009.txt.gz
Temp
8 8 8 8 8 8 8 8 8 8 8 8 7 7 7 7 6 6 6 5 5 5 4 4 4 4 4 4 4 4 4 4 4 4 4 5 5 5 4 5 5 5 5
7 7 8 7 7 7 7 7 7 7 7 7 7 7 7 6 6 6 5 5 5 4 4 4 4 4 4 4 4 4 4 4 3 3 3 4 5 4 4 4 4 4 4
7 7 7 7 6 6 7 7 7 7 7 7 7 7 7 6 6 5 5 5 4 4 4 3 3 3 3 3 3 3 2 2 2 2 1 2 2 2 2 2 2 2 2
7 6 6 6 6 6 6 6 6 6 6 6 6 6 5 5 5 4 4 4 3 3 2 2 2 2 1 1 1 1 1 0 0 0 -0 -0 -0 -0 1 1 1 1 1
6 6 6 6 5 6 5 5 5 6 6 6 5 5 4 4 4 3 3 2 2 1 1 1 1 1 1 1 1 0 0 0 0 -0 -0 -0 -0 -1 -1 0 -0 -1 -1
6 6 5 5 5 5 5 5 5 5 5 4 4 3 3 3 2 2 2 1 1 1 0 0 0 0 0 0 0 -0 -1 -1 -1 -1 -1 -2 -2 -2 -2 -2 -1 -1 -1
6 5 5 5 5 5 4 4 4 4 4 3 3 3 3 2 2 1 1 0 -0 -0 -0 -0 -0 -0 -1 -1 -2 -2 -2 -2 -2 -2 -2 -3 -3 -3 -3 -4 -3 -3 -2
6 5 5 5 5 4 4 4 3 3 3 3 2 2 2 1 1 1 -0 -0 -1 -1 -0 -0 -1 -2 -2 -2 -2 -2 -2 -3 -3 -3 -3 -3 -3 -4 -4 -4 -5 -5 -3
6 5 5 5 4 4 4 3 3 2 2 2 2 1 1 0 -0 -1 -1 -1 -1 -1 -1 -2 -2 -2 -2 -3 -3 -3 -4 -4 -4 -4 -4 -4 -4 -5 -5 -5 -6 -8 -8
6 5 5 4 4 4 3 3 2 2 1 1 1 1 -0 -1 -2 -2 -2 -2 -2 -2 -2 -3 -3 -3 -3 -4 -4 -4 -4 -4 -5 -5 -5 -5 -5 -6 -6 -7 -7 -8 -10
5 5 4 4 4 3 3 2 2 1 1 1 0 -0 -1 -2 -2 -2 -2 -2 -2 -3 -3 -3 -4 -4 -5 -5 -5 -5 -5 -5 -5 -6 -6 -6 -7 -7 -7 -8 -8 -9 -10
4 4 4 4 3 3 2 2 1 1 0 0 -0 -1 -2 -3 -3 -3 -3 -3 -3 -3 -4 -4 -5 -5 -5 -5 -6 -6 -6 -6 -7 -7 -8 -8 -9 -9 -9 -10 -10 -10 -10
4 4 4 3 3 2 2 1 1 0 -0 -1 -2 -3 -3 -3 -3 -3 -3 -3 -3 -4 -4 -5 -5 -5 -6 -6 -6 -6 -7 -8 -9 -9 -10 -10 -11 -11 -11 -12 -12 -12 -11
4 4 3 3 2 2 1 1 0 -0 -1 -2 -3 -3 -3 -3 -3 -3 -3 -4 -4 -4 -5 -5 -6 -6 -6 -7 -7 -7 -8 -9 -10 -10 -11 -12 -12 -12 -12 -12 -12 -13 -13
3 3 3 3 2 1 1 0 -0 -1 -2 -3 -3 -4 -4 -3 -4 -3 -4 -4 -5 -5 -5 -6 -6 -7 -7 -7 -7 -9 -9 -10 -10 -11 -12 -12 -13 -13 -13 -14 -14 -14 -15
3 3 2 2 1 1 0 -1 -2 -2 -3 -4 -4 -3 -3 -4 -3 -3 -4 -5 -5 -6 -6 -6 -6 -7 -7 -8 -9 -10 -10 -11 -12 -12 -12 -13 -13 -14 -14 -15 -15 -15 -17
3 2 2 1 1 -0 -1 -2 -3 -3 -4 -4 -3 -4 -3 -4 -4 -4 -5 -5 -6 -6 -6 -6 -7 -7 -8 -9 -10 -11 -11 -12 -13 -13 -13 -14 -14 -15 -15 -15 -16 -17 -16
2 2 2 2 0 -1 -2 -3 -3 -3 -4 -4 -3 -4 -4 -4 -5 -6 -6 -6 -6 -6 -6 -6 -7 -7 -8 -10 -11 -12 -12 -12 -13 -14 -14 -14 -15 -15 -16 -16 -17 -16 -16
2 2 2 1 -1 -2 -2 -3 -3 -3 -4 -4 -4 -5 -5 -6 -6 -6 -6 -7 -7 -6 -6 -7 -8 -9 -9 -11 -12 -13 -13 -13 -14 -14 -15 -15 -15 -16 -16 -17 -16 -16 -15
2 1 1 -0 -1 -2 -3 -3 -3 -4 -4 -5 -5 -6 -6 -7 -7 -7 -7 -7 -7 -7 -7 -8 -9 -10 -11 -11 -12 -13 -14 -14 -14 -14 -15 -15 -16 -16 -18 -18 -17 -16 -15
1 0 -0 -1 -2 -2 -3 -4 -4 -5 -5 -6 -6 -7 -7 -7 -8 -8 -8 -8 -8 -8 -8 -9 -9 -10 -11 -12 -13 -13 -15 -15 -15 -15 -15 -15 -16 -18 -17 -17 -17 -16 -16
-0 -1 -1 -2 -3 -3 -4 -4 -5 -5 -6 -7 -7 -7 -8 -8 -8 -8 -8 -9 -9 -9 -9 -9 -10 -11 -12 -13 -14 -14 -15 -16 -16 -16 -16 -16 -17 -16 -16 -16 -16 -16 -16
-2 -2 -2 -3 -3 -4 -4 -5 -5 -6 -7 -7 -8 -8 -9 -9 -9 -9 -9 -9 -10 -10 -10 -10 -10 -11 -12 -14 -15 -15 -15 -16 -16 -17 -16 -17 -17 -16 -16 -16 -16 -17 -16
-2 -2 -3 -3 -4 -5 -5 -5 -6 -7 -7 -8 -8 -9 -9 -9 -9 -10 -10 -10 -10 -10 -11 -12 -12 -13 -14 -15 -15 -15 -16 -16 -17 -17 -17 -17 -17 -16 -17 -16 -16 -16 -16
-2 -3 -4 -4 -5 -5 -6 -6 -7 -8 -8 -8 -9 -9 -9 -10 -10 -10 -11 -11 -11 -12 -12 -13 -14 -15 -15 -16 -16 -16 -17 -17 -18 -18 -17 -17 -17 -16 -16 -16 -16 -16 -15
-3 -4 -5 -5 -6 -6 -7 -7 -8 -8 -9 -9 -9 -10 -10 -10 -10 -11 -11 -11 -12 -13 -14 -15 -15 -16 -16 -16 -16 -17 -17 -18 -18 -17 -18 -18 -18 -17 -16 -16 -15 -15 -15

GFSMW_700_temp_012.txt.gz
Temp
8 8 8 8 8 8 8 8 8 8 8 8 7 7 7 7 7 6 6 5 5 5 4 4 4 4 4 4 3 3 3 3 3 3 3 4 4 4 3 4 4 4 4
8 8 8 8 7 7 7 7 7 7 7 7 7 6 7 6 6 6 5 5 4 4 4 4 3 3 3 3 3 3 2 2 2 2 2 3 4 3 2 2 3 2 2
7 7 7 7 7 6 6 6 7 6 6 6 6 6 6 6 5 5 5 4 4 4 3 3 3 3 2 2 2 2 1 1 1 1 0 0 1 1 1 2 1 1 1
7 7 6 6 6 6 6 6 6 6 6 6 7 6 6 5 5 4 4 4 3 3 2 2 2 1 1 1 1 1 1 1 0 0 -0 -0 -1 -1 0 -0 -0 -1 -1
6 6 6 6 6 6 6 6 6 6 6 6 5 5 4 4 4 4 3 3 2 1 1 1 1 1 1 1 1 0 0 -0 -1 -1 -1 -2 -2 -2 -2 -1 -2 -2 -2
6 6 6 5 5 5 5 5 5 6 6 5 4 4 3 3 3 2 2 1 1 1 1 0 0 1 1 0 -0 -0 -1 -1 -2 -2 -3 -3 -3 -3 -3 -3 -2 -2 -2
6 5 5 5 5 5 5 5 5 5 4 4 3 3 2 2 2 2 1 0 -0 -0 -0 -0 -0 0 -0 -0 -1 -2 -2 -2 -3 -3 -3 -3 -4 -4 -4 -4 -4 -4 -3
5 5 5 5 5 5 5 5 5 4 4 3 2 2 2 1 1 1 0 -0 -1 -1 -1 -0 -0 -1 -1 -1 -2 -2 -3 -3 -4 -4 -4 -4 -4 -5 -5 -5 -6 -5 -5
6 5 5 5 5 4 4 4 4 3 3 2 2 2 1 1 0 -0 -1 -1 -1 -1 -1 -1 -2 -2 -2 -2 -3 -3 -4 -4 -4 -4 -5 -5 -5 -6 -7 -7 -8 -10 -10
5 5 5 4 4 4 4 4 3 3 2 2 1 1 1 0 -1 -1 -2 -2 -2 -2 -2 -2 -2 -2 -3 -3 -3 -4 -4 -4 -4 -5 -5 -6 -7 -7 -8 -9 -10 -11 -12
5 5 4 4 4 4 3 3 3 2 1 1 1 0 -0 -1 -2 -3 -3 -3 -3 -2 -2 -3 -3 -3 -3 -4 -4 -4 -4 -4 -5 -6 -6 -7 -8 -9 -10 -11 -11 -12 -13
5 4 4 4 4 3 3 3 2 1 1 1 0 -0 -1 -2 -3 -3 -3 -3 -3 -3 -3 -3 -4 -4 -4 -4 -4 -4 -5 -5 -5 -6 -8 -9 -10 -10 -11 -12 -12 -12 -13
4 4 4 4 3 3 3 2 2 1 1 0 -0 -1 -2 -3 -3 -3 -3 -3 -3 -3 -4 -4 -4 -5 -4 -4 -5 -5 -5 -5 -6 -7 -8 -9 -11 -11 -12 -12 -13 -13 -15
4 4 4 3 3 3 3 2 1 1 0 -1 -1 -2 -3 -3 -3 -3 -3 -3 -4 -4 -4 -5 -5 -5 -5 -5 -5 -5 -5 -6 -7 -8 -9 -11 -12 -12 -12 -13 -14 -15 -16
5 4 3 3 3 3 2 2 1 0 -1 -1 -2 -3 -4 -3 -3 -3 -4 -4 -5 -5 -5 -5 -5 -5 -5 -5 -5 -6 -6 -7 -8 -9 -10 -11 -12 -13 -13 -14 -14 -16 -16
4 3 3 3 3 2 2 1 0 -1 -2 -2 -3 -4 -4 -4 -4 -4 -5 -5 -5 -5 -5 -6 -6 -5 -5 -6 -6 -6 -7 -8 -9 -10 -10 -11 -12 -13 -14 -14 -15 -15 -17
3 3 3 2 2 2 1 0 -1 -2 -2 -3 -4 -4 -4 -4 -4 -5 -5 -5 -5 -6 -6 -6 -6 -6 -6 -6 -7 -7 -8 -9 -10 -11 -12 -12 -13 -14 -14 -15 -15 -17 -17
3 2 2 2 2 1 0 -1 -2 -2 -3 -3 -4 -5 -4 -5 -5 -5 -5 -6 -6 -6 -6 -6 -6 -6 -7 -7 -8 -8 -9 -10 -11 -13 -14 -14 -14 -15 -15 -15 -16 -17 -16
2 2 2 2 2 1 -0 -1 -2 -3 -3 -4 -4 -4 -5 -5 -6 -6 -6 -7 -7 -7 -7 -7 -7 -7 -7 -8 -9 -9 -10 -11 -12 -13 -14 -15 -15 -15 -16 -17 -18 -18 -16
1 1 2 2 1 0 -1 -2 -3 -4 -4 -4 -5 -5 -6 -6 -6 -7 -7 -7 -8 -7 -8 -8 -8 -8 -8 -9 -10 -11 -12 -12 -13 -14 -14 -15 -15 -16 -17 -18 -19 -17 -16
1 2 1 1 -0 -1 -2 -3 -4 -4 -5 -6 -6 -6 -7 -7 -7 -8 -8 -8 -8 -8 -8 -8 -8 -9 -9 -10 -11 -12 -13 -14 -14 -14 -14 -15 -16 -17 -16 -17 -19 -18 -17
1 1 0 -0 -1 -2 -3 -4 -4 -5 -6 -6 -6 -7 -8 -8 -8 -9 -9 -9 -9 -9 -9 -9 -9 -9 -10 -11 -12 -13 -14 -15 -15 -15 -16 -16 -17 -17 -17 -17 -18 -17 -17
0 -0 -1 -2 -2 -3 -4 -5 -5 -6 -6 -7 -7 -8 -8 -9 -9 -9 -9 -9 -9 -9 -9 -9 -9 -10 -11 -12 -13 -14 -14 -15 -16 -17 -17 -17 -17 -18 -17 -17 -17 -17 -17
-1 -1 -2 -2 -3 -4 -5 -5 -6 -6 -7 -8 -8 -9 -9 -9 -10 -10 -10 -10 -10 -10 -10 -11 -11 -11 -12 -13 -14 -14 -15 -16 -17 -18 -17 -18 -18 -18 -18 -17 -17 -17 -17
-2 -2 -3 -3 -4 -5 -5 -6 -6 -7 -8 -8 -9 -9 -9 -9 -10 -10 -10 -10 -11 -11 -12 -12 -13 -13 -14 -14 -15 -16 -16 -16 -18 -18 -17 -17 -18 -18 -17 -17 -17 -17 -17
-2 -3 -4 -4 -4 -5 -6 -7 -8 -8 -9 -9 -9 -10 -10 -10 -10 -10 -10 -10 -11 -12 -13 -14 -14 -14 -15 -15 -15 -16 -16 -17 -18 -18 -18 -18 -18 -18 -17 -16 -16 -16 -16

GFSMW_700_temp_015.txt.gz
Temp
8 8 8 8 8 8 8 8 8 8 8 8 8 7 7 7 7 6 6 5 5 5 5 4 4 4 4 4 3 4 4 4 4 4 4 4 4 3 2 3 2 2 1
7 7 7 7 8 8 7 7 7 7 7 7 7 7 7 7 6 6 5 5 5 4 4 4 4 3 3 3 3 3 3 3 3 3 3 4 5 4 2 2 2 2 2
7 7 7 7 7 7 7 7 7 7 6 6 7 7 7 6 6 5 5 4 4 4 4 3 3 3 3 3 2 2 2 3 3 2 1 2 2 2 2 2 1 0 -0
7 7 7 7 7 6 6 6 6 6 6 6 6 6 6 5 5 4 4 4 4 4 3 3 3 2 2 2 2 2 2 2 1 1 0 -0 -1 -1 -0 -1 -1 -1 -1
7 7 6 6 6 6 6 6 6 6 6 6 6 6 6 5 4 4 4 3 3 3 2 2 2 2 1 1 1 1 1 0 -0 -1 -1 -2 -2 -2 -2 -1 -2 -2 -2
6 6 6 6 6 6 6 6 6 6 6 6 5 5 4 4 3 3 3 3 3 2 2 1 1 1 1 1 0 -0 -0 -1 -1 -2 -2 -2 -3 -3 -3 -3 -2 -2 -2
6 6 6 6 5 5 5 5 5 6 5 5 5 4 3 3 2 2 2 2 2 1 1 1 1 1 0 0 -0 -1 -1 -2 -2 -2 -2 -3 -3 -3 -3 -4 -2 -2 -2
6 5 5 5 5 5 5 5 5 5 5 4 4 3 2 2 2 1 1 1 1 0 0 -0 -0 -0 -1 -1 -2 -2 -2 -2 -2 -3 -3 -3 -3 -3 -4 -4 -5 -4 -3
6 5 5 5 5 5 5 5 5 4 4 3 3 2 2 2 1 1 1 0 0 -0 -0 -1 -1 -1 -2 -2 -2 -2 -2 -3 -3 -3 -3 -3 -3 -4 -4 -5 -7 -9 -8
6 6 5 5 5 5 4 4 4 4 3 3 2 2 1 1 1 0 -0 -0 -0 -1 -1 -1 -1 -2 -2 -3 -3 -3 -3 -3 -3 -4 -4 -4 -4 -4 -5 -7 -8 -10 -12
6 5 5 5 5 4 4 4 3 3 3 2 2 1 1 0 -0 -1 -1 -1 -1 -1 -1 -2 -2 -3 -3 -3 -3 -3 -4 -4 -4 -4 -4 -5 -5 -6 -7 -8 -9 -11 -13
6 5 5 5 4 4 4 3 3 3 3 2 1 1 0 -0 -1 -1 -1 -2 -2 -2 -2 -3 -3 -3 -3 -4 -4 -4 -4 -4 -4 -5 -5 -6 -7 -7 -8 -10 -10 -12 -13
6 5 5 4 4 4 3 3 3 3 2 2 1 0 -0 -1 -1 -2 -2 -2 -2 -3 -3 -4 -4 -4 -4 -4 -5 -5 -5 -5 -5 -6 -6 -7 -8 -8 -10 -11 -12 -13 -14
5 5 5 4 4 3 3 3 3 3 2 1 0 -0 -1 -2 -2 -2 -3 -3 -3 -4 -4 -4 -5 -5 -5 -5 -5 -5 -5 -6 -6 -7 -7 -8 -9 -10 -12 -12 -13 -14 -15
6 5 5 4 3 3 3 3 2 2 1 0 -0 -1 -2 -2 -3 -3 -3 -4 -4 -4 -5 -5 -5 -5 -6 -6 -6 -6 -6 -6 -7 -7 -8 -9 -10 -12 -13 -15 -15 -16 -16
5 5 4 3 3 3 3 2 2 1 1 -0 -1 -2 -2 -3 -3 -3 -4 -4 -5 -5 -5 -5 -5 -6 -6 -6 -7 -7 -7 -7 -8 -8 -9 -10 -12 -13 -13 -14 -15 -17 -18
4 4 3 3 3 3 2 2 1 1 -0 -1 -2 -3 -3 -3 -4 -4 -5 -5 -5 -5 -6 -6 -6 -6 -7 -7 -7 -8 -8 -8 -9 -10 -11 -12 -12 -14 -14 -14 -15 -17 -18
4 3 3 3 2 2 1 1 1 0 -1 -2 -2 -3 -4 -4 -4 -5 -5 -6 -6 -6 -6 -7 -7 -7 -7 -8 -8 -9 -9 -10 -11 -11 -12 -14 -14 -14 -15 -17 -17 -18 -17
3 3 2 2 2 1 1 1 0 -0 -1 -2 -3 -3 -4 -4 -5 -6 -6 -6 -6 -7 -7 -7 -7 -8 -8 -9 -9 -10 -10 -10 -11 -12 -14 -14 -15 -15 -17 -18 -18 -17 -16
2 2 1 1 1 1 1 1 -0 -1 -2 -3 -3 -4 -5 -5 -6 -6 -6 -7 -7 -7 -8 -8 -8 -8 -9 -9 -10 -11 -12 -12 -12 -12 -14 -15 -16 -17 -18 -19 -18 -17 -17
1 1 1 1 1 1 0 -0 -1 -2 -3 -4 -4 -5 -6 -6 -6 -7 -7 -7 -8 -8 -8 -9 -9 -9 -10 -10 -11 -12 -13 -13 -13 -14 -14 -15 -16 -18 -18 -19 -18 -18 -18
1 1 1 1 1 0 -1 -1 -2 -3 -4 -5 -6 -6 -6 -7 -7 -7 -8 -8 -9 -9 -9 -9 -10 -10 -11 -12 -12 -13 -14 -14 -15 -15 -16 -16 -17 -18 -17 -18 -18 -18 -17
1 1 1 0 -0 -1 -2 -3 -3 -4 -5 -6 -6 -7 -7 -7 -8 -8 -9 -9 -9 -9 -10 -11 -11 -11 -12 -13 -13 -14 -14 -15 -16 -16 -17 -17 -18 -18 -17 -18 -18 -18 -18
0 0 -0 -1 -1 -2 -3 -4 -4 -5 -6 -6 -7 -7 -8 -9 -9 -9 -9 -10 -10 -10 -11 -11 -11 -12 -12 -13 -14 -14 -15 -15 -16 -17 -17 -18 -18 -18 -18 -17 -17 -17 -17
-0 -1 -1 -2 -2 -3 -4 -5 -5 -6 -6 -7 -8 -8 -9 -9 -9 -9 -10 -10 -11 -11 -11 -12 -13 -13 -13 -14 -15 -16 -16 -17 -17 -18 -17 -17 -18 -17 -17 -17 -17 -17 -17
-1 -2 -2 -3 -3 -4 -5 -5 -6 -6 -7 -8 -9 -9 -9 -10 -10 -10 -10 -11 -11 -12 -12 -13 -14 -14 -15 -16 -16 -16 -16 -17 -18 -18 -18 -18 -18 -18 -17 -17 -16 -16 -16

GFSMW_700_temp_018.txt.gz
Temp
7 7 8 8 8 8 8 8 8 8 8 8 8 7 7 7 7 6 6 6 6 6 5 5 5 4 4 4 4 4 4 4 4 5 5 5 4 4 3 3 3 2 1
8 7 7 7 7 7 8 8 8 8 7 7 7 7 7 6 6 6 6 5 5 5 4 4 4 4 4 4 4 4 4 4 4 4 4 5 5 4 3 3 3 3 2
7 7 7 7 7 7 7 7 7 7 7 7 6 6 6 6 6 5 5 4 4 4 4 4 4 4 4 4 4 4 4 4 3 3 2 2 3 3 4 3 2 1 0
7 7 7 7 7 7 7 6 6 6 6 6 6 6 6 5 5 5 4 4 4 3 3 4 4 4 4 3 3 3 3 2 2 1 0 -0 -1 -1 1 1 0 -0 -1
7 7 7 7 6 6 6 6 6 6 6 6 6 6 5 5 4 4 4 4 4 4 3 3 3 3 3 3 3 2 2 1 1 0 -0 -1 -1 -1 -2 -0 -1 -2 -2
7 7 7 6 6 6 5 5 5 5 5 6 5 5 5 4 4 3 3 3 3 3 3 3 3 3 3 2 2 1 1 0 -0 -1 -1 -2 -2 -2 -2 -2 -2 -2 -2
7 7 6 6 6 5 5 5 5 5 5 5 5 5 4 4 3 3 3 2 2 2 2 2 2 2 2 2 1 0 -0 -1 -1 -2 -2 -2 -3 -3 -3 -3 -3 -3 -3
6 6 6 5 5 5 5 5 5 5 5 5 4 4 4 3 2 2 2 2 2 2 2 1 1 1 1 0 -0 -1 -1 -2 -2 -2 -3 -3 -3 -4 -4 -4 -5 -4 -4
6 6 5 5 5 5 5 5 4 4 4 4 4 4 3 2 2 2 1 1 1 1 1 1 1 0 -0 -1 -1 -1 -2 -2 -3 -3 -3 -4 -4 -4 -5 -5 -5 -6 -5
6 6 5 5 5 5 4 4 4 4 4 4 4 3 3 2 2 1 1 1 0 0 0 0 -0 -1 -1 -2 -2 -2 -3 -3 -4 -4 -4 -4 -5 -5 -5 -6 -6 -8 -10
6 6 5 5 5 5 4 4 4 4 3 3 3 3 2 1 1 1 0 0 -0 -0 -0 -0 -1 -2 -2 -3 -3 -3 -4 -4 -4 -4 -5 -5 -5 -6 -6 -7 -8 -9 -11
6 6 5 5 5 4 4 4 4 3 3 3 3 3 2 1 1 0 -0 -1 -1 -1 -1 -2 -2 -3 -3 -3 -4 -4 -4 -4 -5 -5 -5 -6 -6 -7 -7 -8 -9 -10 -12
6 5 5 5 5 4 4 4 3 3 3 3 3 2 1 1 0 -0 -1 -2 -1 -2 -2 -3 -3 -3 -4 -4 -4 -5 -5 -5 -6 -6 -7 -7 -8 -8 -9 -9 -10 -12 -12
6 5 5 5 5 4 4 3 3 3 3 3 2 1 1 0 -1 -1 -2 -2 -2 -2 -3 -3 -4 -4 -5 -5 -5 -5 -5 -6 -7 -7 -8 -8 -9 -9 -10 -11 -12 -14 -16
6 5 5 5 4 4 3 3 3 3 2 2 1 1 0 -1 -1 -2 -2 -2 -3 -3 -4 -4 -5 -5 -5 -6 -6 -6 -6 -7 -8 -8 -9 -9 -10 -11 -12 -15 -15 -16 -17
5 5 5 5 4 4 3 3 3 2 2 1 1 0 -0 -1 -2 -3 -3 -3 -3 -4 -5 -5 -5 -6 -6 -7 -7 -7 -8 -8 -9 -9 -10 -10 -11 -12 -13 -14 -15 -17 -18
5 5 4 4 3 3 3 2 2 2 1 1 0 -0 -1 -2 -3 -3 -3 -4 -5 -5 -6 -6 -6 -6 -7 -8 -8 -8 -9 -9 -10 -11 -11 -11 -12 -14 -14 -14 -15 -18 -18
4 4 4 3 3 3 2 2 2 1 1 0 -1 -2 -2 -2 -3 -3 -4 -5 -6 -6 -6 -6 -7 -7 -8 -8 -8 -9 -9 -10 -11 -12 -12 -13 -13 -15 -16 -17 -18 -18 -18
4 3 3 3 2 2 2 1 1 1 0 -1 -2 -2 -2 -3 -4 -4 -5 -6 -6 -6 -7 -7 -8 -8 -8 -9 -9 -10 -10 -10 -11 -12 -13 -14 -15 -16 -18 -19 -19 -18 -16
3 2 2 2 2 1 1 1 1 0 -1 -1 -2 -3 -4 -4 -5 -5 -6 -7 -7 -7 -8 -8 -9 -9 -9 -9 -10 -11 -12 -12 -13 -13 -14 -15 -16 -16 -18 -19 -19 -18 -18
2 2 1 1 1 1 1 1 0 -1 -2 -2 -3 -4 -4 -5 -6 -7 -7 -7 -7 -8 -8 -9 -9 -9 -9 -10 -11 -12 -14 -14 -15 -15 -15 -16 -16 -18 -19 -19 -18 -18 -18
1 1 1 1 1 1 0 -0 -1 -2 -2 -3 -4 -4 -5 -6 -7 -7 -7 -8 -8 -9 -9 -9 -9 -10 -10 -11 -12 -13 -14 -15 -16 -16 -16 -16 -17 -18 -17 -18 -18 -18 -18
0 0 0 0 0 -0 -1 -1 -2 -3 -3 -4 -5 -6 -7 -7 -7 -8 -8 -9 -9 -9 -9 -9 -10 -10 -11 -12 -13 -14 -15 -15 -16 -17 -17 -17 -18 -18 -18 -18 -18 -18 -18
0 0 0 -0 -1 -1 -1 -2 -3 -4 -4 -5 -6 -7 -7 -7 -8 -9 -9 -9 -9 -9 -10 -10 -10 -11 -12 -13 -14 -15 -15 -16 -16 -17 -17 -18 -18 -18 -18 -18 -17 -17 -17
-0 -0 -0 -1 -1 -2 -2 -3 -4 -5 -6 -7 -7 -7 -7 -8 -9 -9 -10 -10 -10 -11 -11 -12 -13 -13 -14 -14 -15 -16 -17 -17 -18 -18 -17 -18 -18 -17 -17 -17 -17 -17 -17
-1 -1 -1 -1 -2 -3 -3 -4 -5 -6 -7 -7 -7 -8 -9 -9 -9 -9 -9 -10 -10 -11 -12 -13 -14 -15 -16 -16 -16 -17 -17 -17 -18 -17 -18 -18 -17 -17 -17 -17 -17 -17 -17

GFSMW_700_temp_021.txt.gz
Temp
6 7 7 7 8 8 8 8 8 8 8 8 8 7 7 7 6 6 6 6 5 5 5 4 4 4 4 4 4 4 5 4 5 5 5 5 5 5 4 4 3 3 2
6 7 7 7 7 7 7 7 8 8 7 7 7 7 7 6 6 6 5 5 5 4 4 4 4 4 4 4 4 4 5 5 5 5 5 6 6 5 4 4 3 3 2
6 7 7 7 7 7 7 7 7 7 7 7 6 6 6 6 5 5 5 4 4 4 3 3 3 4 4 4 4 4 5 5 4 3 3 3 4 5 5 4 3 2 2
6 6 7 7 7 7 7 7 7 7 6 6 6 6 6 5 5 5 4 3 3 3 3 3 3 4 4 4 4 4 4 4 3 3 2 1 -0 0 2 3 2 1 0
6 7 7 7 7 6 6 6 6 6 6 6 6 5 5 5 5 4 3 3 3 3 3 3 3 3 3 3 3 3 3 2 2 1 1 1 0 -1 -1 0 -0 -1 -1
6 7 7 7 7 6 6 6 5 5 5 5 5 5 5 5 4 3 3 3 3 3 3 3 3 3 3 3 3 2 2 1 1 0 -0 -1 -1 -1 -1 -1 -1 -2 -2
6 7 7 6 6 6 6 5 5 5 5 5 5 4 4 4 3 3 3 2 2 2 2 2 2 2 2 2 2 1 1 0 -0 -1 -1 -2 -2 -3 -3 -3 -3 -3 -3
7 7 6 6 6 5 5 5 5 5 4 4 4 4 4 3 3 2 2 2 1 1 1 1 1 1 1 1 1 0 -0 -1 -1 -2 -2 -3 -3 -4 -4 -4 -5 -4 -4
7 7 6 5 5 5 5 5 4 4 4 4 4 4 3 3 3 2 2 1 1 1 0 1 1 1 1 0 -0 -1 -1 -1 -2 -2 -3 -3 -4 -4 -5 -5 -6 -6 -5
7 6 5 5 5 5 4 4 4 4 4 4 3 3 3 3 2 2 1 1 0 -0 -0 0 0 -0 -1 -1 -1 -2 -2 -2 -3 -3 -4 -4 -5 -5 -6 -6 -7 -8 -8
7 6 5 5 5 4 4 4 4 4 4 3 3 3 3 2 2 1 1 0 -0 -0 -0 -0 -1 -1 -1 -2 -2 -2 -3 -3 -4 -4 -5 -5 -6 -6 -7 -7 -8 -8 -10
6 6 5 5 5 4 4 4 4 4 3 3 3 3 2 2 1 1 0 -0 -1 -1 -1 -1 -1 -2 -2 -3 -3 -3 -4 -4 -5 -5 -6 -6 -7 -7 -8 -8 -9 -10 -10
6 6 5 5 5 4 4 4 4 3 3 3 3 2 2 1 1 0 0 -1 -1 -1 -1 -2 -2 -3 -3 -3 -4 -4 -5 -5 -6 -6 -7 -7 -8 -8 -9 -9 -10 -11 -11
6 6 5 5 4 4 4 4 3 3 3 2 2 2 2 1 0 -0 -1 -1 -2 -2 -2 -3 -3 -3 -4 -4 -5 -5 -5 -6 -7 -7 -8 -8 -9 -9 -10 -11 -12 -13 -13
6 6 5 5 4 4 4 4 3 3 2 2 2 1 1 0 -0 -1 -2 -2 -2 -3 -3 -3 -4 -4 -5 -5 -5 -6 -6 -7 -8 -8 -9 -9 -10 -11 -12 -13 -13 -14 -15
6 5 5 4 4 4 4 3 3 2 2 2 1 1 0 -0 -1 -2 -2 -2 -3 -3 -4 -4 -5 -5 -6 -6 -6 -7 -8 -8 -8 -9 -9 -10 -11 -12 -13 -14 -14 -16 -18
5 5 5 4 4 4 3 3 2 2 1 1 0 -0 -1 -1 -2 -2 -3 -3 -4 -4 -5 -5 -6 -6 -7 -7 -8 -8 -8 -8 -9 -9 -10 -10 -12 -13 -14 -14 -15 -16 -18
5 4 4 4 4 3 3 2 1 1 1 0 -0 -0 -1 -2 -3 -3 -4 -4 -4 -5 -5 -6 -7 -7 -8 -8 -8 -9 -9 -9 -9 -10 -11 -12 -13 -14 -15 -16 -17 -19 -19
4 4 4 3 3 2 1 1 1 1 0 0 -1 -1 -2 -3 -4 -4 -4 -5 -5 -6 -7 -7 -7 -8 -8 -9 -9 -9 -9 -10 -11 -12 -13 -14 -15 -16 -17 -18 -19 -18 -17
3 3 2 2 1 1 1 1 0 0 -0 -1 -2 -2 -3 -4 -4 -5 -5 -5 -6 -7 -7 -8 -8 -9 -9 -9 -10 -10 -12 -11 -12 -13 -14 -15 -16 -17 -18 -19 -18 -18 -18
2 1 1 1 1 0 0 -0 -0 -1 -1 -2 -3 -3 -4 -5 -5 -5 -6 -7 -7 -7 -8 -8 -9 -9 -9 -9 -10 -12 -12 -14 -14 -14 -15 -15 -16 -18 -18 -18 -18 -18 -18
1 1 0 0 0 -0 -0 -0 -1 -1 -2 -3 -3 -4 -5 -5 -6 -6 -7 -8 -8 -8 -9 -9 -9 -9 -9 -10 -11 -12 -14 -15 -16 -15 -16 -16 -17 -18 -17 -18 -18 -18 -18
0 -0 -0 -0 -0 -0 -1 -1 -2 -2 -3 -4 -4 -5 -6 -6 -7 -8 -8 -8 -9 -9 -9 -9 -9 -9 -10 -11 -12 -13 -14 -15 -16 -17 -16 -17 -17 -17 -17 -18 -18 -18 -18
-0 -0 -0 -0 -1 -1 -1 -2 -2 -3 -4 -5 -5 -6 -7 -7 -8 -8 -8 -9 -9 -10 -9 -10 -10 -10 -11 -12 -13 -14 -15 -15 -16 -16 -16 -17 -17 -18 -18 -18 -17 -17 -17
-0 -1 -1 -1 -1 -2 -2 -3 -3 -4 -5 -5 -6 -7 -8 -8 -8 -9 -9 -10 -10 -10 -10 -11 -11 -12 -12 -13 -15 -15 -16 -16 -17 -17 -17 -17 -17 -17 -17 -17 -17 -17 -17
-1 -1 -1 -1 -2 -2 -3 -3 -4 -5 -5 -6 -7 -8 -8 -8 -9 -9 -10 -10 -10 -11 -11 -12 -13 -13 -15 -15 -15 -16 -16 -17 -17 -17 -17 -17 -17 -17 -17 -17 -16 -17 -16

GFSMW_700_temp_024.txt.gz
Temp
6 6 6 7 7 7 8 8 7 8 8 7 7 7 7 6 6 6 6 5 5 5 4 4 3 4 4 4 4 4 4 5 5 5 5 4 4 4 4 4 3 3 2
6 6 6 7 7 7 7 7 7 7 7 7 7 7 6 6 6 6 5 5 5 4 4 3 3 3 3 4 4 4 4 4 5 5 6 6 5 5 4 4 3 3 3
6 6 6 7 7 7 7 7 7 7 7 7 7 6 6 6 6 5 5 4 4 3 3 3 3 3 3 3 4 4 4 4 4 4 4 4 5 5 5 4 4 3 3
5 6 6 6 6 7 7 7 7 7 7 6 6 6 5 5 5 5 4 4 3 3 3 2 2 3 3 3 3 4 4 4 4 3 2 2 2 2 4 4 4 3 3
6 6 6 6 6 6 6 6 6 6 6 6 5 5 5 5 4 4 4 3 3 2 2 2 2 2 3 3 3 3 3 3 2 2 2 2 1 1 1 3 3 2 2
5 6 6 6 6 6 6 6 6 6 5 5 5 5 5 4 4 4 3 3 2 2 2 2 2 2 2 3 3 2 2 2 1 1 1 0 0 1 0 1 1 0 -0
6 6 6 6 6 6 6 6 6 5 5 5 5 4 4 4 4 3 3 2 2 2 2 1 1 1 2 2 2 2 1 1 0 -0 -0 -1 -1 -2 -2 -2 -1 -1 -1
5 6 6 6 6 6 6 5 5 5 5 4 4 4 4 4 3 3 2 2 2 1 1 1 1 1 1 1 1 1 0 -0 -1 -1 -1 -1 -2 -2 -3 -4 -4 -3 -3
6 6 6 6 5 5 5 5 5 4 4 4 4 4 4 3 3 2 2 1 1 1 1 0 0 1 1 1 0 -0 -1 -1 -1 -1 -2 -2 -3 -4 -4 -5 -6 -6 -5
6 6 6 5 5 5 5 4 4 4 4 4 4 3 3 3 2 2 2 1 1 0 -0 -0 -0 0 0 -0 -1 -1 -1 -2 -2 -2 -3 -4 -4 -5 -6 -6 -6 -7 -7
6 6 5 4 4 4 4 4 4 4 3 3 3 3 3 2 2 2 1 1 0 -0 -0 -1 -0 -0 -1 -1 -1 -2 -2 -2 -3 -4 -4 -5 -5 -6 -6 -7 -7 -8 -9
6 5 4 4 4 4 4 4 3 3 3 3 3 3 2 2 2 1 1 0 -0 -1 -1 -1 -1 -1 -1 -2 -2 -2 -3 -3 -4 -5 -6 -6 -7 -7 -7 -8 -8 -9 -10
5 4 4 5 4 4 4 4 3 3 3 3 2 2 2 2 1 1 0 -0 -1 -1 -1 -1 -2 -2 -2 -3 -3 -3 -4 -5 -5 -6 -7 -7 -7 -8 -8 -9 -10 -11 -11
5 5 5 5 4 4 4 3 3 3 3 2 2 2 1 1 1 -0 -1 -1 -1 -2 -2 -2 -2 -3 -3 -3 -3 -4 -5 -6 -6 -7 -7 -8 -8 -9 -9 -11 -12 -13 -13
5 5 5 4 4 4 3 3 3 3 2 2 2 1 1 1 -0 -1 -1 -1 -2 -2 -2 -3 -3 -4 -4 -4 -4 -5 -6 -7 -7 -8 -8 -8 -9 -10 -12 -13 -14 -15 -15
5 5 4 4 4 3 3 3 3 2 2 1 1 1 0 -0 -0 -1 -2 -2 -2 -3 -3 -3 -4 -4 -5 -5 -6 -7 -7 -8 -8 -8 -8 -9 -10 -11 -12 -14 -15 -16 -19
5 5 5 4 4 3 3 3 2 1 1 1 1 0 -0 -0 -1 -2 -2 -3 -3 -3 -4 -4 -5 -5 -6 -7 -7 -8 -8 -8 -8 -9 -10 -10 -12 -13 -14 -14 -15 -16 -18
5 5 4 4 3 3 2 2 1 1 0 0 0 -0 -1 -1 -2 -3 -3 -3 -4 -4 -5 -5 -6 -6 -7 -7 -8 -8 -9 -9 -9 -10 -11 -12 -13 -14 -15 -16 -17 -18 -17
4 4 3 3 2 2 1 1 0 0 0 0 -0 -1 -2 -2 -3 -3 -3 -4 -5 -5 -5 -6 -7 -7 -8 -9 -9 -9 -9 -9 -10 -11 -12 -14 -15 -15 -16 -19 -17 -16 -16
3 3 2 2 1 1 1 0 0 -0 -0 -1 -1 -2 -2 -3 -3 -4 -4 -5 -5 -6 -6 -7 -8 -8 -9 -9 -9 -10 -10 -10 -11 -11 -13 -14 -16 -16 -17 -17 -17 -16 -17
2 2 1 1 0 0 0 -0 -0 -0 -1 -1 -2 -3 -3 -3 -4 -5 -5 -6 -6 -6 -7 -8 -9 -9 -10 -10 -10 -10 -11 -12 -12 -13 -14 -15 -16 -16 -17 -17 -17 -17 -17
1 1 1 0 -0 -0 -0 -1 -1 -1 -2 -2 -3 -3 -4 -4 -5 -6 -6 -6 -7 -8 -8 -8 -9 -10 -10 -10 -10 -11 -13 -14 -15 -15 -15 -16 -16 -17 -17 -17 -17 -17 -17
1 0 -0 -0 -1 -1 -1 -1 -1 -2 -2 -3 -3 -4 -5 -5 -6 -6 -6 -7 -8 -8 -9 -9 -9 -10 -10 -10 -11 -12 -13 -14 -15 -15 -15 -16 -16 -17 -17 -17 -17 -17 -17
0 -0 -1 -1 -1 -1 -1 -2 -2 -3 -3 -3 -4 -5 -6 -6 -6 -7 -8 -8 -9 -9 -9 -10 -10 -10 -10 -11 -12 -13 -14 -15 -15 -15 -16 -16 -17 -17 -17 -17 -17 -17 -16
-1 -1 -1 -1 -1 -2 -2 -2 -3 -3 -4 -4 -5 -6 -6 -7 -7 -8 -8 -9 -9 -10 -10 -10 -11 -11 -11 -12 -14 -14 -15 -15 -15 -16 -16 -16 -16 -16 -16 -16 -16 -16 -16
-1 -1 -2 -2 -2 -2 -2 -3 -3 -4 -5 -5 -6 -6 -7 -8 -8 -9 -9 -10 -10 -11 -11 -11 -11 -12 -13 -14 -14 -15 -15 -15 -16 -16 -16 -16 -16 -16 -16 -16 -15 -16 -15

GFSMW_700_temp_030.txt.gz
Temp
6 6 6 6 5 6 7 6 6 6 6 6 6 6 6 6 6 5 5 3 4 3 4 4 4 4 3 3 3 3 4 4 4 5 4 4 4 4 4 3 3 2 2
6 6 6 5 5 6 6 7 6 6 6 6 6 5 5 5 5 5 5 4 4 4 4 4 3 3 3 3 3 3 3 4 4 4 5 5 5 4 4 3 3 2 2
5 6 5 5 5 6 6 6 6 6 6 6 6 5 5 5 5 5 4 4 3 4 3 3 3 3 3 3 3 3 3 3 3 4 4 4 5 5 5 3 2 2 2
5 6 5 5 5 6 5 6 6 6 6 6 6 5 5 4 4 4 4 4 4 3 3 3 2 2 2 2 3 3 3 3 3 3 3 3 3 3 4 4 3 2 2
6 6 5 5 5 5 5 6 6 6 6 6 6 5 5 4 4 4 4 4 3 3 3 2 2 2 2 2 2 2 2 2 2 2 2 2 1 1 1 2 2 2 2
6 6 5 5 5 5 5 5 5 5 6 6 6 5 5 4 4 4 3 3 3 2 2 2 2 2 2 2 2 2 1 1 1 1 1 1 1 0 0 1 1 2 2
6 6 5 5 5 5 5 5 5 5 6 6 5 5 4 4 3 3 3 3 2 2 2 2 2 2 1 1 1 1 1 1 1 0 -0 -1 -1 -1 -1 -1 -0 1 2
6 6 6 5 5 5 5 5 5 5 5 5 5 4 4 4 3 3 3 2 2 2 1 1 1 1 1 1 1 0 0 -0 -0 -1 -1 -2 -2 -2 -3 -3 -2 -0 0
4 5 5 5 5 5 5 5 5 5 5 5 4 4 4 3 3 3 2 2 2 1 1 1 1 1 0 0 0 -0 -0 -1 -1 -2 -2 -2 -3 -3 -4 -5 -5 -5 -2
5 5 5 5 5 5 5 5 5 5 5 4 4 4 3 3 3 2 2 2 2 1 1 1 1 0 -0 -0 -0 -1 -1 -2 -2 -3 -3 -3 -4 -4 -5 -6 -6 -7 -7
5 5 5 5 5 5 5 5 5 4 4 4 3 3 3 3 2 2 2 2 1 1 1 0 0 -1 -1 -1 -1 -1 -2 -3 -3 -4 -4 -4 -5 -5 -6 -7 -7 -8 -8
6 6 6 6 5 5 5 5 4 4 4 3 3 3 2 2 2 2 2 1 1 0 0 -0 -1 -1 -1 -1 -2 -2 -3 -3 -4 -4 -5 -5 -5 -6 -7 -8 -8 -8 -9
6 6 6 6 5 5 4 4 4 4 3 3 2 2 2 2 2 1 1 1 0 -0 -0 -1 -1 -1 -1 -2 -3 -3 -4 -4 -5 -5 -5 -6 -7 -7 -8 -8 -9 -10 -10
5 6 6 5 4 4 4 3 3 3 3 2 2 2 1 1 1 1 0 0 -0 -0 -0 -1 -1 -2 -3 -3 -4 -4 -5 -5 -6 -6 -7 -7 -8 -8 -8 -9 -10 -11 -12
5 5 5 5 4 3 3 3 3 2 2 2 1 1 1 1 0 0 -0 -0 -0 -1 -1 -1 -2 -3 -3 -4 -4 -5 -5 -6 -6 -7 -8 -8 -8 -9 -10 -11 -12 -13 -13
5 5 4 3 3 2 2 2 2 1 1 1 1 1 0 0 -0 -0 -0 -1 -1 -1 -1 -2 -3 -4 -4 -5 -5 -6 -6 -7 -7 -8 -8 -8 -9 -10 -11 -12 -13 -14 -14
4 4 3 2 2 2 2 2 1 1 1 0 0 -0 -0 -0 -1 -1 -1 -1 -2 -2 -3 -3 -4 -4 -5 -6 -6 -6 -7 -7 -8 -8 -8 -9 -11 -11 -12 -12 -13 -13 -15
3 3 2 2 2 2 2 1 0 0 -0 -0 -0 -0 -1 -1 -1 -1 -1 -2 -2 -3 -4 -4 -5 -5 -6 -6 -7 -7 -7 -8 -9 -9 -10 -11 -11 -12 -13 -13 -13 -14 -15
2 1 1 1 1 1 1 0 -0 -0 -0 -0 -1 -1 -1 -1 -1 -2 -2 -2 -3 -4 -4 -5 -6 -6 -6 -7 -7 -8 -8 -9 -9 -10 -11 -11 -12 -13 -14 -14 -14 -14 -14
2 1 1 1 1 1 1 -0 -0 -1 -1 -1 -1 -1 -2 -1 -2 -2 -3 -4 -4 -5 -6 -6 -6 -7 -7 -8 -8 -9 -9 -9 -10 -10 -12 -13 -13 -14 -14 -15 -14 -14 -14
2 2 1 1 1 1 -0 -0 -1 -1 -1 -1 -2 -2 -2 -2 -2 -3 -4 -4 -5 -6 -6 -7 -7 -8 -8 -8 -9 -9 -10 -10 -10 -12 -12 -13 -14 -14 -14 -15 -15 -15 -14
3 2 2 1 1 -0 -1 -1 -1 -1 -1 -2 -2 -2 -2 -3 -4 -4 -5 -5 -6 -6 -7 -7 -8 -9 -9 -9 -9 -10 -11 -11 -12 -12 -13 -14 -14 -15 -15 -15 -15 -15 -15
2 1 1 0 -0 -1 -1 -1 -1 -1 -2 -2 -2 -3 -3 -4 -5 -5 -6 -6 -7 -7 -7 -8 -8 -9 -9 -10 -10 -11 -11 -12 -13 -13 -14 -14 -15 -15 -15 -15 -15 -15 -15
1 1 0 -0 -1 -1 -1 -1 -2 -2 -2 -3 -3 -4 -4 -5 -5 -6 -7 -7 -7 -8 -8 -8 -8 -9 -10 -10 -11 -11 -12 -13 -13 -13 -14 -15 -15 -15 -15 -16 -16 -15 -15
0 -0 -1 -1 -1 -1 -2 -2 -2 -2 -3 -3 -4 -4 -5 -6 -6 -7 -7 -8 -8 -8 -8 -9 -9 -10 -11 -11 -12 -13 -13 -14 -14 -14 -15 -15 -15 -15 -15 -15 -15 -15 -15
-1 -1 -1 -1 -1 -2 -2 -2 -3 -3 -4 -4 -5 -5 -6 -6 -7 -7 -8 -8 -9 -9 -10 -10 -11 -11 -12 -12 -13 -13 -14 -14 -15 -15 -15 -15 -15 -15 -15 -15 -15 -15 -15

GFSMW_700_temp_033.txt.gz
Temp
5 6 5 5 5 5 5 6 6 6 6 6 6 6 6 6 5 5 5 5 3 3 3 4 4 3 3 3 3 3 3 4 4 4 3 4 4 4 4 4 3 3 2
5 5 6 5 5 5 5 6 6 6 6 6 6 6 5 5 4 4 4 4 3 4 3 3 3 3 3 3 3 3 3 3 3 4 4 4 4 4 4 3 3 2 2
6 5 5 6 6 5 5 6 6 6 6 6 6 6 5 4 4 4 4 2 3 3 2 3 3 3 3 2 2 2 2 3 3 3 3 4 4 4 4 3 2 2 1
6 6 6 5 5 5 5 6 5 5 6 6 6 6 5 4 4 2 2 3 3 4 3 3 2 2 2 2 2 2 2 2 3 3 3 3 3 4 4 4 3 2 2
6 6 6 6 5 5 5 5 5 5 6 6 6 6 5 4 3 2 1 4 3 3 3 2 2 2 2 2 2 2 2 2 2 2 2 2 2 2 2 3 3 2 2
5 6 5 5 5 5 5 5 5 5 5 6 6 5 5 4 3 3 2 2 3 3 2 2 2 2 1 1 1 1 1 1 2 2 2 2 1 1 1 1 1 2 2
4 5 5 5 5 5 5 5 5 5 5 5 5 5 5 4 3 3 3 3 3 2 2 2 1 1 1 1 1 1 1 1 1 1 1 0 0 -0 -1 -0 -0 1 1
4 4 5 5 5 5 4 5 5 5 5 5 5 5 5 3 2 3 3 3 2 2 2 1 1 1 1 1 1 1 0 1 0 0 -0 -1 -1 -2 -2 -2 -1 0 0
4 4 4 4 5 4 4 5 5 5 5 5 5 5 4 2 2 3 3 2 2 2 1 1 1 1 1 1 0 0 0 -0 -0 -1 -1 -2 -3 -3 -3 -3 -3 -3 -1
4 4 4 4 4 5 5 5 5 5 5 5 4 4 3 2 3 2 2 2 2 1 1 1 1 0 0 0 -0 -0 -0 -1 -1 -2 -3 -3 -3 -4 -4 -4 -5 -5 -5
3 4 4 4 4 5 5 5 5 5 5 4 4 4 3 3 2 2 2 2 1 1 0 0 0 0 -0 -0 -1 -1 -1 -2 -3 -3 -3 -4 -4 -5 -5 -6 -6 -7 -7
4 5 5 4 4 5 5 4 4 4 4 4 3 3 3 2 2 2 1 1 1 1 0 0 -0 -0 -1 -1 -1 -1 -2 -3 -3 -4 -4 -5 -5 -5 -6 -7 -7 -8 -8
3 5 5 4 4 5 4 4 4 4 3 3 3 3 2 2 2 1 1 1 0 0 -0 -0 -1 -1 -1 -1 -2 -2 -3 -4 -4 -4 -5 -5 -6 -6 -7 -8 -8 -8 -9
3 5 6 5 4 4 4 4 4 3 3 2 2 2 2 1 1 1 1 0 0 -0 -1 -1 -1 -1 -2 -2 -3 -3 -4 -4 -5 -5 -6 -6 -7 -8 -8 -8 -8 -9 -10
3 5 5 5 4 4 4 3 3 3 2 2 1 1 1 1 1 0 -0 -0 -0 -1 -1 -1 -2 -2 -2 -3 -4 -4 -4 -5 -5 -6 -7 -7 -8 -8 -9 -9 -10 -11 -12
3 4 4 4 3 3 3 3 2 2 2 1 1 0 1 0 0 -0 -1 -1 -1 -1 -2 -2 -2 -3 -3 -4 -5 -5 -5 -5 -6 -7 -8 -8 -9 -9 -9 -10 -12 -13 -13
3 4 3 3 2 2 2 2 2 1 1 0 0 0 0 -0 -0 -1 -1 -1 -2 -2 -2 -3 -3 -4 -5 -5 -5 -5 -6 -6 -7 -8 -8 -9 -9 -10 -11 -12 -12 -12 -13
3 3 3 2 1 1 1 1 1 0 -0 -0 -0 -0 -0 -1 -1 -1 -2 -2 -2 -3 -3 -3 -4 -5 -5 -5 -5 -6 -7 -7 -8 -9 -9 -9 -10 -11 -11 -12 -12 -13 -14
2 2 1 1 0 0 0 0 -0 -0 -1 -1 -0 -0 -1 -1 -2 -2 -2 -3 -3 -3 -4 -4 -5 -5 -5 -6 -6 -7 -8 -8 -9 -9 -10 -10 -11 -12 -12 -13 -13 -13 -14
1 1 0 -0 -0 0 0 -0 -1 -1 -1 -1 -1 -1 -2 -2 -2 -3 -3 -3 -4 -4 -5 -5 -6 -5 -6 -6 -7 -8 -8 -8 -9 -10 -10 -12 -12 -13 -13 -14 -14 -13 -14
2 1 0 -0 -0 -0 -0 -1 -1 -1 -1 -1 -1 -2 -2 -2 -3 -3 -3 -4 -5 -5 -6 -6 -6 -6 -7 -7 -8 -9 -9 -9 -10 -11 -12 -12 -13 -13 -14 -14 -14 -14 -14
2 1 1 0 -0 -1 -1 -1 -1 -1 -1 -2 -2 -2 -2 -3 -3 -4 -4 -5 -5 -6 -6 -6 -7 -7 -8 -8 -9 -9 -10 -10 -11 -12 -12 -13 -13 -14 -14 -15 -15 -15 -14
2 1 0 0 -0 -1 -1 -2 -2 -2 -2 -2 -2 -3 -3 -4 -4 -5 -5 -6 -6 -6 -6 -6 -7 -8 -8 -9 -9 -9 -10 -11 -12 -13 -13 -14 -14 -14 -14 -15 -15 -15 -15
1 1 0 -0 -1 -1 -1 -2 -2 -2 -2 -3 -3 -3 -4 -4 -5 -6 -6 -6 -6 -6 -7 -7 -8 -8 -9 -9 -10 -10 -11 -12 -12 -13 -14 -14 -15 -15 -15 -15 -16 -15 -15
1 -0 -1 -1 -1 -2 -2 -2 -2 -3 -3 -3 -4 -4 -5 -5 -6 -6 -6 -6 -7 -7 -7 -8 -8 -8 -9 -10 -10 -11 -12 -13 -14 -14 -14 -15 -15 -15 -15 -15 -16 -15 -15
-0 -1 -1 -2 -2 -2 -2 -3 -3 -3 -4 -4 -5 -5 -5 -6 -6 -6 -7 -7 -8 -8 -9 -9 -9 -10 -10 -11 -12 -12 -13 -14 -14 -14 -15 -15 -15 -15 -15 -15 -15 -16 -16

GFSMW_700_temp_036.txt.gz
Temp
6 6 6 6 5 5 5 5 6 6 6 6 6 6 6 6 5 5 5 5 5 4 4 3 3 3 3 3 3 3 3 3 3 3 3 3 3 3 4 4 4 4 3
5 5 6 6 6 6 5 5 6 6 6 6 6 5 5 5 5 5 5 4 4 3 4 2 3 3 3 3 3 3 3 3 3 3 3 3 3 3 3 3 3 3 3
6 6 6 6 6 6 5 5 5 5 6 6 6 6 6 5 5 5 4 4 3 3 4 2 3 3 3 2 2 2 2 3 2 2 2 3 3 3 3 3 3 2 2
6 6 6 6 6 6 6 5 5 5 6 6 5 5 5 5 5 4 4 2 2 3 2 3 2 2 2 2 2 2 2 2 2 2 2 2 2 2 3 4 3 3 2
5 5 6 6 6 5 5 5 5 5 6 5 5 5 5 6 5 4 3 3 3 2 2 2 2 2 2 2 2 2 2 2 2 2 2 2 2 2 2 3 2 2 2
3 4 5 6 6 5 5 5 5 5 5 5 5 6 6 5 5 3 2 2 3 1 2 2 2 2 2 1 1 1 1 1 1 1 1 1 1 1 1 1 1 1 1
3 3 4 5 5 5 5 4 4 5 5 5 5 5 5 5 4 3 2 3 1 2 2 2 2 2 1 1 1 1 1 1 1 1 1 1 1 0 -0 -0 0 0 0
3 3 3 4 5 5 5 4 4 5 5 5 5 5 5 5 4 2 1 2 2 2 2 2 1 1 1 1 1 1 1 1 0 0 0 -0 -0 -1 -1 -1 -1 -0 -0
2 3 3 4 4 5 4 4 4 5 5 5 5 5 5 5 2 2 2 1 2 2 2 1 1 1 0 0 0 0 0 0 -0 -0 -1 -1 -1 -2 -2 -2 -2 -2 -1
1 2 4 4 4 4 4 4 4 4 5 5 5 5 5 4 2 3 1 1 2 1 1 1 0 0 -0 0 0 -0 -0 -0 -1 -1 -1 -2 -2 -2 -3 -3 -3 -3 -4
1 2 3 4 4 4 4 4 4 4 4 5 5 5 4 4 2 1 2 2 1 1 1 0 -0 -0 -0 -0 -0 -0 -1 -1 -1 -2 -2 -3 -3 -3 -3 -4 -4 -5 -5
1 1 3 3 4 4 4 4 4 4 4 4 4 4 4 3 1 2 2 1 1 1 0 -0 -1 -0 -1 -1 -1 -1 -1 -2 -2 -2 -3 -3 -3 -4 -5 -5 -5 -6 -6
1 1 3 3 3 4 4 4 4 4 4 4 4 4 3 1 1 1 1 1 0 0 -0 -1 -1 -1 -1 -1 -1 -2 -2 -2 -3 -3 -4 -4 -5 -5 -6 -6 -6 -7 -8
1 1 3 4 4 4 3 4 4 4 4 4 4 3 2 2 1 1 0 0 -0 -0 -1 -1 -1 -1 -1 -2 -2 -2 -3 -3 -4 -4 -5 -5 -6 -6 -7 -7 -8 -8 -9
1 1 3 4 4 4 4 3 3 3 3 3 3 1 2 1 1 -0 -0 -0 -1 -1 -1 -1 -1 -2 -2 -3 -3 -3 -3 -4 -4 -5 -5 -6 -6 -7 -8 -8 -9 -10 -10
1 1 3 4 4 4 3 3 3 2 2 1 1 1 0 -0 -0 -1 -1 -1 -1 -1 -1 -2 -2 -3 -3 -3 -3 -4 -4 -5 -5 -5 -6 -7 -7 -8 -9 -9 -10 -11 -12
1 2 3 4 4 3 2 2 2 1 1 2 1 0 -1 -1 -1 -1 -1 -1 -1 -2 -2 -2 -3 -3 -3 -4 -4 -5 -5 -5 -6 -6 -7 -8 -9 -9 -9 -10 -11 -12 -12
2 2 2 2 2 1 1 0 0 1 1 0 -1 -1 -1 -1 -1 -2 -2 -2 -2 -2 -3 -3 -3 -4 -4 -5 -5 -5 -5 -6 -7 -8 -8 -9 -9 -10 -11 -11 -11 -12 -13
1 1 1 0 1 0 0 0 -0 -0 -0 -1 -1 -1 -1 -2 -2 -2 -2 -3 -3 -3 -3 -3 -4 -4 -5 -5 -5 -5 -6 -7 -8 -8 -9 -9 -10 -11 -12 -12 -12 -13 -14
1 1 0 0 0 0 -0 -0 -1 -1 -1 -1 -1 -1 -2 -2 -3 -3 -3 -3 -4 -3 -4 -4 -5 -5 -5 -5 -6 -7 -7 -8 -8 -9 -10 -10 -11 -12 -13 -14 -14 -13 -14
0 0 0 -0 -0 -0 -1 -1 -1 -1 -1 -2 -2 -2 -3 -3 -3 -3 -4 -3 -4 -4 -4 -5 -5 -5 -5 -6 -7 -7 -8 -8 -9 -10 -10 -11 -12 -13 -14 -14 -14 -14 -14
0 -0 -0 -0 -0 -1 -1 -1 -1 -2 -2 -2 -3 -3 -3 -3 -4 -4 -4 -4 -4 -4 -5 -5 -6 -6 -7 -7 -7 -8 -9 -9 -10 -11 -11 -12 -13 -14 -14 -14 -14 -14 -14
-0 -0 -1 -0 -1 -1 -2 -2 -2 -3 -3 -3 -3 -4 -4 -4 -4 -4 -4 -4 -5 -5 -5 -6 -6 -7 -7 -8 -8 -9 -9 -10 -11 -11 -12 -13 -13 -14 -14 -14 -15 -15 -15
0 -0 -1 -1 -1 -1 -2 -3 -3 -4 -4 -4 -4 -4 -4 -4 -4 -4 -5 -5 -5 -6 -6 -7 -7 -7 -8 -8 -9 -9 -10 -11 -12 -12 -13 -13 -14 -14 -15 -15 -15 -15 -15
-0 -1 -1 -2 -2 -2 -2 -3 -3 -4 -4 -4 -4 -4 -4 -4 -5 -5 -5 -6 -6 -6 -7 -7 -7 -8 -8 -9 -9 -10 -11 -12 -13 -13 -14 -14 -14 -14 -14 -15 -16 -16 -15
-1 -1 -2 -2 -3 -3 -3 -3 -3 -3 -3 -3 -4 -4 -5 -5 -5 -6 -6 -6 -7 -7 -7 -8 -8 -9 -9 -10 -11 -11 -12 -13 -13 -14 -14 -14 -14 -15 -15 -15 -15 -16 -16

GFSMW_700_temp_039.txt.gz
Temp
6 6 6 6 6 6 6 6 6 6 6 6 6 6 6 6 6 6 5 5 5 5 5 4 3 4 4 4 4 4 3 3 3 3 3 3 3 4 4 4 3 4 4
6 6 6 6 7 6 6 6 6 6 6 6 6 6 6 6 6 6 5 5 4 4 4 3 2 3 3 3 3 3 3 3 3 3 3 3 3 4 3 3 3 3 3
7 6 6 6 6 6 6 6 5 5 5 6 6 5 6 6 6 5 5 5 4 4 4 3 2 3 2 3 3 3 3 3 3 3 2 2 3 3 3 3 2 2 2
5 6 6 6 6 6 6 6 5 5 5 5 5 6 6 6 6 5 5 4 4 3 3 2 1 3 2 3 2 2 2 2 2 2 2 2 2 2 2 2 2 3 2
3 4 5 5 6 5 5 5 5 5 5 5 5 5 5 5 5 5 5 4 3 3 3 2 2 2 2 2 2 2 2 2 2 2 2 2 2 2 2 2 2 2 1
1 2 4 4 5 5 5 5 5 5 5 5 5 5 5 6 5 5 5 4 3 3 2 2 2 2 2 2 2 2 2 1 1 1 1 1 1 1 1 1 1 1 1
2 1 2 3 4 5 5 5 5 4 5 5 5 5 5 5 5 5 5 4 3 2 2 1 1 2 2 1 1 1 1 1 1 1 1 1 1 1 0 0 0 0 0
2 5 2 3 3 4 4 5 5 4 4 4 4 5 5 5 5 5 4 3 2 2 2 1 1 2 1 1 1 1 1 1 1 1 0 0 0 0 -0 -1 -1 -0 -0
-0 1 2 3 2 3 4 5 4 4 4 4 4 5 5 5 5 4 4 3 2 2 1 2 2 1 1 1 1 0 0 0 0 0 -0 -0 -0 -1 -1 -2 -2 -2 -1
-1 0 1 2 2 2 3 4 4 3 4 4 4 5 5 5 4 5 3 3 2 1 1 1 1 1 1 0 0 0 0 0 -0 -0 -1 -1 -1 -2 -2 -2 -2 -3 -3
-1 0 1 1 2 2 3 3 3 3 3 4 4 4 5 5 5 4 2 2 2 1 1 1 1 0 0 -0 -0 -0 -0 -0 -1 -1 -1 -2 -2 -2 -3 -3 -3 -4 -4
-2 0 1 1 1 2 2 3 3 3 3 4 4 4 4 4 4 3 2 2 2 1 1 0 -0 -0 -0 -0 -0 -0 -1 -1 -1 -2 -2 -2 -3 -3 -3 -4 -4 -5 -5
-2 -0 1 1 1 2 2 3 3 3 3 4 4 4 4 4 3 2 2 2 1 1 0 -0 -0 -1 -1 -1 -1 -1 -1 -2 -2 -2 -3 -3 -3 -4 -4 -5 -5 -6 -6
-2 -0 0 1 1 2 2 3 3 3 3 4 4 4 3 3 2 1 1 0 0 0 -0 -1 -1 -1 -1 -1 -2 -2 -2 -2 -2 -3 -3 -3 -4 -5 -5 -6 -6 -7 -7
-3 -0 0 1 1 2 2 2 3 3 3 3 3 3 3 2 1 2 1 0 0 -0 -1 -1 -1 -1 -2 -2 -2 -2 -2 -3 -3 -3 -4 -5 -5 -6 -6 -7 -7 -8 -9
-1 -1 0 1 2 3 3 3 2 2 3 3 2 3 1 0 2 0 -1 -1 -1 -2 -2 -2 -2 -2 -2 -3 -3 -3 -3 -3 -4 -4 -5 -6 -6 -6 -7 -8 -9 -10 -10
-2 -1 -0 2 3 3 3 2 2 2 2 2 2 1 1 1 -0 -1 -2 -2 -2 -2 -2 -2 -3 -3 -3 -4 -3 -3 -4 -4 -5 -5 -6 -6 -7 -8 -8 -9 -10 -11 -12
-1 -1 1 2 3 2 2 1 1 2 1 1 1 1 0 -1 -1 -2 -2 -2 -2 -3 -3 -3 -3 -4 -3 -4 -4 -4 -4 -5 -6 -6 -7 -7 -8 -9 -10 -10 -11 -11 -12
-1 -0 1 1 2 1 1 1 1 1 1 1 1 0 -1 -1 -2 -2 -2 -3 -3 -3 -3 -3 -3 -4 -4 -4 -4 -5 -5 -6 -6 -7 -7 -8 -9 -10 -10 -11 -12 -12 -13
-0 0 1 0 1 1 0 1 1 1 0 -0 -1 -1 -1 -2 -2 -3 -3 -3 -3 -3 -4 -4 -4 -4 -5 -5 -5 -5 -6 -6 -7 -8 -9 -10 -10 -11 -12 -13 -13 -13 -13
-0 -0 0 1 1 0 -1 -1 -1 -1 -1 -2 -2 -2 -2 -3 -3 -3 -3 -3 -3 -3 -4 -4 -5 -5 -5 -5 -6 -6 -7 -7 -8 -8 -9 -10 -11 -12 -13 -13 -14 -14 -14
-0 -1 -0 -0 -1 -1 -1 -1 -2 -2 -2 -2 -3 -3 -2 -3 -3 -3 -3 -3 -3 -4 -5 -5 -5 -5 -5 -6 -6 -7 -8 -8 -9 -9 -10 -11 -12 -13 -13 -14 -14 -14 -14
-1 -0 -1 -1 -1 -1 -1 -2 -2 -2 -2 -2 -2 -3 -3 -3 -3 -3 -3 -4 -5 -5 -5 -5 -5 -6 -6 -7 -7 -8 -9 -9 -10 -10 -11 -12 -13 -13 -14 -14 -14 -14 -15
-1 -1 -1 -1 -1 -2 -2 -2 -2 -2 -3 -3 -3 -3 -3 -3 -3 -4 -4 -5 -5 -5 -5 -5 -6 -6 -7 -7 -8 -9 -9 -10 -10 -11 -12 -13 -13 -13 -14 -14 -15 -15 -15
-1 -1 -1 -2 -2 -2 -2 -3 -3 -3 -3 -3 -3 -3 -3 -4 -4 -5 -5 -5 -5 -6 -6 -6 -7 -7 -7 -8 -9 -9 -10 -11 -11 -12 -12 -13 -13 -13 -14 -14 -15 -15 -15
-1 -1 -1 -2 -2 -3 -3 -3 -3 -3 -3 -3 -4 -4 -4 -5 -5 -5 -5 -6 -6 -6 -6 -7 -7 -8 -8 -9 -10 -10 -11 -12 -12 -12 -13 -13 -13 -14 -14 -14 -15 -15 -15

GFSMW_700_temp_042.txt.gz
Temp
7 7 7 7 7 6 5 5 5 6 6 6 6 6 6 6 6 6 6 6 6 5 5 5 5 5 5 4 4 4 4 4 3 3 4 4 3 3 3 3 3 3 3
7 7 7 7 7 7 6 5 4 4 6 6 6 6 6 6 6 6 6 6 5 5 4 4 4 4 4 4 3 3 3 3 3 3 3 3 4 3 3 3 3 3 3
7 7 7 6 6 7 6 5 5 4 4 5 6 6 5 5 6 6 6 6 5 4 4 4 3 3 3 2 2 2 3 3 3 3 3 3 3 3 3 3 3 2 2
6 6 6 6 5 5 6 6 5 5 4 4 5 5 5 6 6 5 5 5 5 4 4 3 3 3 2 2 2 2 3 2 2 2 2 2 2 2 2 2 2 2 2
4 5 4 4 4 4 2 4 5 3 4 3 4 5 5 5 5 5 5 5 4 4 4 3 3 3 2 2 2 2 2 2 2 2 2 2 2 2 2 2 2 1 1
3 3 3 3 3 4 3 4 3 3 2 2 3 4 5 5 5 5 5 5 4 4 4 3 2 2 2 2 2 2 2 2 2 2 1 1 1 1 1 1 1 1 1
2 2 2 2 3 4 4 4 3 2 2 2 3 4 4 4 4 5 5 5 5 4 4 3 2 2 2 1 1 2 1 1 1 1 1 1 1 1 1 1 0 1 1
2 2 1 1 2 3 3 4 2 2 2 2 3 3 4 4 4 4 5 5 5 4 3 2 2 1 1 2 1 1 1 1 1 1 1 1 1 0 0 -0 -0 0 0
2 1 0 0 1 2 2 3 3 2 2 3 3 3 3 4 4 4 4 5 4 3 2 2 2 2 1 1 1 1 1 1 1 0 0 0 0 -0 -0 -1 -1 -1 -1
1 0 0 0 0 1 1 2 2 3 2 2 2 3 3 4 4 4 4 4 4 3 2 2 1 1 1 1 1 0 0 0 0 0 -0 -0 -1 -1 -1 -1 -2 -2 -3
-0 -0 -1 0 0 1 1 1 2 2 1 2 2 2 3 3 4 4 4 4 3 2 1 1 0 -0 -0 0 0 0 -0 -0 -0 -0 -1 -1 -1 -1 -2 -2 -3 -3 -4
-1 -2 -2 -1 -0 0 0 1 2 1 1 2 2 2 3 3 3 4 3 3 2 2 1 1 0 -0 -1 -1 -0 -0 -1 -1 -1 -1 -1 -2 -1 -2 -3 -3 -4 -4 -4
-2 -2 -3 -1 -0 0 0 0 -0 0 2 2 2 2 3 3 3 3 2 2 1 1 1 -0 0 -1 -1 -1 -1 -1 -1 -1 -1 -2 -2 -2 -2 -3 -4 -4 -4 -5 -5
-3 -3 -3 -1 -0 -0 -1 -1 -0 0 2 2 2 2 3 3 3 3 2 1 1 1 1 0 -1 -1 -1 -2 -2 -1 -2 -2 -2 -2 -2 -3 -3 -4 -4 -4 -5 -5 -6
-3 -3 -2 -1 -1 -0 -1 -1 1 1 1 2 2 2 2 1 2 2 2 1 1 1 -0 -1 -2 -2 -2 -2 -2 -2 -2 -2 -2 -3 -4 -4 -4 -5 -5 -5 -6 -6 -7
-3 -3 -3 -2 -1 -1 -1 2 1 1 1 2 2 2 2 2 1 1 0 -0 0 -1 -2 -2 -2 -2 -3 -3 -2 -3 -3 -3 -3 -4 -4 -5 -5 -6 -6 -6 -7 -8 -9
-3 -3 -3 -1 -1 -0 1 1 1 1 1 1 1 1 1 0 -0 0 0 -0 -2 -2 -2 -2 -2 -3 -3 -3 -3 -3 -3 -4 -4 -4 -5 -5 -6 -6 -7 -8 -8 -9 -11
-3 -3 -2 -1 -1 -0 1 1 1 0 1 1 1 1 0 0 1 0 -1 -2 -2 -2 -2 -3 -3 -3 -3 -3 -3 -4 -4 -4 -4 -5 -6 -6 -6 -7 -8 -8 -9 -10 -11
-2 -2 -2 -1 -0 1 1 1 -1 1 1 1 0 1 1 1 -0 -1 -2 -2 -3 -3 -3 -3 -3 -3 -3 -3 -4 -4 -4 -5 -5 -6 -6 -7 -7 -8 -9 -10 -11 -11 -12
-1 -1 -1 -0 0 -0 -1 0 1 -1 1 -0 0 1 -0 -2 -2 -2 -3 -3 -3 -3 -3 -3 -3 -3 -4 -4 -4 -4 -5 -5 -6 -7 -7 -8 -9 -10 -11 -11 -12 -12 -13
-2 -3 -2 -1 -1 -1 -1 0 0 -1 -1 -2 -2 -2 -2 -3 -3 -3 -3 -3 -3 -3 -3 -3 -4 -4 -4 -4 -5 -5 -6 -6 -6 -7 -8 -9 -10 -11 -11 -12 -13 -13 -13
-1 -1 -0 -1 -1 -1 -2 -2 -2 -2 -1 -2 -2 -3 -3 -3 -3 -3 -3 -3 -3 -3 -4 -4 -4 -4 -5 -5 -5 -5 -6 -7 -7 -8 -9 -10 -11 -11 -12 -13 -13 -14 -14
-2 -2 -2 -2 -2 -2 -2 -2 -2 -2 -3 -3 -3 -3 -3 -3 -3 -3 -3 -3 -4 -4 -4 -4 -5 -5 -5 -5 -6 -7 -8 -8 -9 -9 -10 -11 -12 -12 -13 -13 -13 -14 -14
-1 -1 -1 -1 -2 -2 -2 -3 -3 -3 -3 -3 -3 -3 -3 -3 -3 -3 -3 -4 -4 -4 -5 -5 -5 -5 -6 -6 -7 -8 -9 -9 -10 -10 -11 -12 -12 -12 -13 -13 -14 -14 -14
-1 -2 -2 -2 -2 -3 -3 -3 -4 -4 -3 -3 -3 -2 -3 -3 -3 -4 -4 -4 -5 -5 -5 -5 -6 -6 -6 -7 -8 -9 -9 -10 -10 -11 -12 -12 -12 -13 -13 -13 -14 -14 -15
-2 -2 -2 -2 -3 -3 -3 -3 -3 -3 -2 -2 -3 -3 -3 -4 -4 -5 -5 -5 -5 -5 -6 -6 -6 -7 -7 -8 -9 -9 -10 -11 -11 -12 -12 -12 -12 -13 -13 -13 -14 -14 -15

GFSMW_700_temp_045.txt.gz
Temp
8 8 7 7 7 7 6 5 5 4 5 5 6 6 6 6 6 6 6 6 6 6 6 5 5 5 5 4 4 4 4 4 3 3 3 3 4 3 3 3 3 3 3
7 7 6 6 6 6 6 5 4 4 4 4 5 5 5 5 5 5 5 6 6 5 5 5 5 4 4 4 4 4 3 3 3 3 3 3 3 3 3 3 3 3 3
8 7 7 7 6 6 5 4 4 4 4 4 4 4 4 5 5 5 5 6 6 5 4 4 4 4 4 3 3 2 2 2 2 3 3 3 3 3 3 3 3 3 2
7 7 7 7 6 6 5 5 4 4 4 3 3 3 4 4 5 5 5 5 5 4 4 4 4 3 3 3 2 2 2 2 2 2 2 2 2 2 2 2 2 2 2
6 6 5 5 5 6 5 5 5 4 4 3 3 3 3 4 4 4 4 4 4 4 4 4 4 3 3 2 2 2 2 2 2 2 2 2 2 2 2 2 1 1 1
4 4 5 5 4 4 4 4 3 4 3 3 3 3 3 3 4 4 4 4 4 4 4 4 4 3 3 2 2 2 1 2 1 1 1 1 1 1 1 1 1 2 1
3 3 2 3 2 2 2 3 2 2 3 3 3 3 3 3 3 3 3 3 3 4 4 4 4 3 2 2 1 1 1 1 1 1 1 1 1 1 1 1 1 1 1
2 2 2 2 3 2 2 3 3 3 2 2 3 2 2 2 2 3 3 3 3 3 3 4 4 3 2 2 2 1 1 0 1 1 1 1 0 0 0 0 0 0 0
2 2 2 2 2 2 2 2 2 3 3 2 2 2 1 2 2 2 2 3 3 3 4 4 3 2 2 2 1 1 0 0 0 0 0 0 0 -0 -0 -0 -1 -1 -0
1 1 1 2 1 1 1 1 1 2 2 2 2 2 1 1 2 2 2 3 3 3 4 4 3 2 1 1 1 0 -0 0 -0 -0 -0 -0 -0 -1 -1 -1 -1 -2 -2
-1 -1 -0 -0 0 0 0 1 1 1 1 2 1 1 1 1 2 2 2 3 3 3 4 3 1 1 2 1 0 -0 -1 -1 -1 -1 -1 -1 -1 -1 -1 -2 -2 -2 -3
-2 -1 -1 -1 -1 -0 -0 0 1 1 1 1 2 1 1 1 2 2 2 3 3 3 4 1 2 1 1 0 -1 -1 -1 -1 -1 -1 -1 -2 -2 -2 -2 -2 -2 -3 -3
-3 -2 -2 -2 -2 -1 -1 0 1 1 0 1 1 1 2 2 1 2 2 2 3 3 1 2 1 0 -0 -1 -1 -2 -2 -2 -2 -2 -2 -2 -2 -3 -3 -3 -3 -4 -4
-2 -3 -2 -2 -2 -2 -1 0 -0 0 0 -1 -1 1 1 1 1 2 2 2 2 1 2 1 1 -1 -1 -2 -3 -3 -3 -2 -2 -2 -2 -3 -3 -3 -3 -3 -4 -4 -4
-3 -3 -3 -3 -2 -2 -1 -0 -2 -2 -1 -1 -1 0 1 1 1 1 1 1 0 1 0 1 0 -1 -3 -3 -3 -3 -2 -2 -3 -3 -3 -3 -3 -4 -4 -4 -4 -5 -5
-4 -3 -3 -4 -3 -3 -2 -2 -2 -1 -1 -0 -1 -0 -0 0 0 0 0 1 0 -0 -0 -0 -1 -1 -2 -3 -3 -3 -3 -3 -3 -3 -4 -4 -4 -5 -5 -5 -6 -6 -7
-3 -3 -3 -4 -4 -3 -2 -1 -1 -1 -1 -1 -0 -0 0 0 0 -0 -0 0 -0 -0 -1 -1 -2 -2 -2 -3 -3 -3 -3 -3 -4 -4 -4 -4 -5 -5 -5 -6 -6 -7 -8
-3 -4 -4 -3 -4 -2 -2 -2 -2 -1 -1 -1 -0 0 0 0 0 0 -0 -0 -1 -1 -2 -2 -3 -3 -3 -3 -4 -3 -3 -4 -4 -4 -5 -5 -5 -5 -6 -7 -7 -8 -9
-2 -2 -2 -3 -3 -3 -3 -3 -2 -1 -1 -0 0 0 1 0 0 -0 -1 -2 -2 -2 -3 -3 -3 -4 -4 -4 -4 -4 -4 -4 -5 -5 -5 -5 -6 -7 -7 -8 -9 -9 -11
-2 -2 -2 -2 -2 -2 -1 -1 -1 -1 -1 -1 -1 -1 -1 -1 -2 -2 -2 -2 -3 -3 -4 -4 -4 -4 -4 -4 -4 -4 -5 -5 -5 -6 -6 -7 -7 -8 -8 -9 -10 -10 -11
-2 -1 -1 -1 -2 -2 -1 -2 -1 -1 -2 -3 -2 -2 -2 -2 -2 -2 -2 -2 -4 -4 -4 -4 -4 -4 -5 -5 -5 -5 -4 -5 -5 -6 -6 -7 -8 -9 -9 -10 -11 -11 -11
-1 -1 -1 -1 -1 -2 -2 -2 -2 -2 -2 -2 -2 -3 -3 -2 -3 -3 -4 -4 -4 -4 -4 -5 -5 -5 -4 -4 -5 -5 -5 -6 -6 -7 -7 -8 -9 -10 -11 -11 -12 -12 -12
-1 -1 -1 -1 -1 -2 -2 -2 -3 -2 -3 -3 -3 -3 -3 -4 -4 -4 -4 -4 -5 -5 -5 -5 -5 -5 -5 -5 -5 -6 -6 -7 -7 -8 -9 -10 -10 -11 -11 -12 -12 -12 -12
-2 -2 -2 -2 -2 -3 -3 -3 -3 -3 -3 -3 -4 -4 -4 -4 -5 -5 -5 -5 -5 -5 -5 -5 -5 -5 -5 -5 -6 -6 -7 -8 -9 -9 -10 -10 -11 -11 -12 -12 -12 -12 -12
-3 -3 -2 -3 -3 -4 -4 -4 -4 -4 -5 -5 -5 -5 -5 -5 -5 -5 -5 -5 -5 -5 -5 -5 -5 -5 -5 -6 -7 -7 -8 -8 -9 -10 -11 -11 -12 -12 -12 -12 -12 -13 -13
-2 -2 -2 -3 -3 -3 -4 -5 -5 -5 -5 -5 -5 -5 -5 -5 -5 -5 -5 -5 -5 -5 -5 -5 -5 -6 -6 -7 -8 -9 -9 -10 -11 -11 -11 -12 -12 -12 -12 -12 -12 -13 -13

GFSMW_700_temp_048.txt.gz
Temp
8 7 7 6 6 6 5 5 5 5 5 5 5 5 5 5 5 6 6 6 6 6 5 5 5 5 4 4 4 4 4 4 3 3 3 3 3 3 3 3 3 3 3
7 7 7 6 6 6 6 6 6 4 4 4 5 4 4 5 5 5 5 5 6 5 5 5 5 5 4 4 3 3 3 3 2 2 2 2 2 2 3 3 2 2 2
7 7 7 6 6 6 6 6 6 5 4 4 4 4 4 4 4 5 5 5 6 5 4 4 4 4 4 3 3 3 3 2 2 2 2 2 2 2 2 2 2 2 2
7 7 7 7 7 6 6 6 6 5 4 4 4 4 4 4 4 4 4 4 5 5 4 3 4 4 4 3 3 3 2 2 2 1 1 1 1 2 2 2 2 2 2
6 6 6 6 6 6 5 5 4 4 4 4 4 3 3 3 3 3 3 4 4 4 4 3 4 3 4 3 3 3 2 2 1 1 1 1 1 1 1 2 1 1 1
4 4 4 5 4 4 4 4 4 4 3 3 3 3 3 3 3 3 3 3 4 4 3 3 3 3 3 3 3 2 2 1 1 1 1 1 1 1 1 1 1 1 1
3 3 3 3 3 3 3 3 3 3 3 3 3 3 3 2 2 2 2 2 3 3 3 3 3 3 3 3 3 2 2 1 1 1 1 0 1 1 1 1 1 1 1
3 2 2 2 2 2 2 2 3 3 2 2 3 3 3 3 2 2 2 2 2 3 3 2 2 2 3 3 3 2 2 1 1 -0 0 -1 0 0 0 0 0 0 0
2 2 2 1 1 1 1 1 2 2 3 3 3 3 3 2 2 2 2 2 2 2 2 2 2 2 3 3 2 1 2 0 1 -0 -0 -1 -0 -0 -0 -0 -0 -0 0
1 1 1 0 -0 1 1 1 1 2 1 2 3 3 3 2 2 2 1 2 2 2 2 2 2 2 2 2 1 2 -0 -0 0 0 -1 -1 -1 -1 -1 -1 -1 -1 -1
0 1 0 -0 -1 -1 -1 -0 0 0 1 1 2 2 3 2 1 1 2 2 1 1 2 2 2 2 2 2 1 0 1 0 -0 -1 -1 -2 -2 -1 -1 -1 -1 -1 -2
-1 -1 -1 -3 -2 -2 -1 -1 -1 -1 0 1 1 2 2 2 1 1 1 1 1 1 1 2 2 1 1 1 1 1 -0 -1 -1 -1 -2 -3 -2 -2 -2 -2 -2 -2 -2
-2 -3 -3 -3 -3 -3 -2 -1 -1 -1 0 1 1 1 1 1 0 0 0 1 1 1 1 2 2 1 0 1 0 -0 -0 -2 -1 -2 -3 -3 -2 -3 -3 -3 -2 -3 -3
-2 -2 -3 -3 -3 -3 -3 -2 -2 -1 -0 -0 -0 -0 -1 0 0 0 0 1 1 1 1 1 1 0 0 0 -0 -1 -1 -1 -2 -3 -3 -3 -3 -3 -3 -3 -3 -3 -3
-2 -3 -3 -3 -3 -3 -3 -3 -2 -2 -2 -1 -1 -0 -2 -1 0 0 1 1 1 1 -0 1 1 0 0 -1 -1 -1 -2 -2 -3 -3 -3 -3 -3 -3 -4 -4 -4 -4 -4
-3 -2 -3 -3 -4 -4 -3 -3 -2 -1 -2 -2 -1 -1 -0 -1 -1 0 0 0 0 1 0 -0 -0 -1 -1 -1 -2 -2 -3 -3 -4 -3 -3 -4 -4 -4 -4 -4 -5 -5 -5
-3 -3 -4 -3 -3 -4 -3 -2 -2 -2 -2 -2 -1 -1 -1 -1 0 0 0 0 0 0 -0 -1 -1 -1 -2 -2 -2 -3 -3 -3 -3 -4 -4 -4 -4 -4 -5 -5 -5 -6 -7
-4 -4 -4 -3 -4 -3 -3 -2 -2 -2 -2 -1 -1 -1 -1 -1 -1 0 0 0 -0 -0 -1 -2 -2 -3 -3 -2 -2 -4 -4 -3 -4 -4 -4 -4 -4 -5 -5 -5 -6 -7 -8
-2 -2 -3 -3 -3 -2 -3 -3 -3 -2 -2 -2 -2 -1 -1 -1 -1 -0 -1 -1 -2 -2 -2 -3 -3 -3 -3 -3 -3 -4 -4 -4 -4 -4 -5 -5 -5 -5 -6 -6 -7 -8 -9
-3 -3 -2 -2 -2 -2 -3 -3 -3 -3 -2 -1 -1 -1 -2 -2 -2 -2 -3 -2 -2 -3 -3 -3 -3 -3 -3 -4 -4 -4 -4 -4 -5 -6 -6 -6 -6 -6 -7 -8 -8 -9 -10
-2 -2 -1 -1 -1 -1 -1 -1 -2 -2 -1 -1 -1 -1 -2 -2 -3 -3 -3 -3 -3 -3 -3 -3 -3 -4 -4 -4 -5 -5 -5 -5 -5 -5 -5 -6 -7 -8 -8 -9 -9 -10 -10
-2 -2 -2 -1 -1 -1 -1 -2 -2 -2 -2 -2 -3 -3 -3 -3 -3 -4 -4 -3 -3 -3 -3 -3 -4 -4 -5 -5 -5 -5 -5 -5 -5 -6 -6 -7 -8 -9 -9 -10 -11 -11 -11
-2 -2 -2 -2 -2 -2 -3 -3 -3 -3 -3 -3 -3 -3 -3 -4 -3 -3 -3 -3 -3 -3 -4 -4 -4 -4 -5 -5 -5 -5 -6 -6 -7 -7 -8 -9 -9 -10 -11 -11 -11 -11 -11
-2 -2 -2 -2 -3 -3 -3 -3 -3 -3 -4 -4 -4 -4 -3 -3 -3 -3 -4 -4 -4 -4 -5 -5 -5 -5 -5 -5 -6 -6 -7 -8 -9 -9 -10 -10 -10 -11 -11 -11 -11 -11 -11
-3 -3 -3 -3 -3 -3 -3 -4 -4 -3 -3 -3 -3 -3 -4 -4 -4 -5 -5 -5 -5 -5 -5 -5 -5 -5 -5 -6 -7 -8 -9 -9 -10 -10 -11 -11 -11 -12 -12 -12 -12 -12 -11
-3 -3 -3 -3 -4 -5 -4 -3 -3 -3 -4 -4 -4 -4 -5 -5 -5 -5 -5 -5 -5 -5 -5 -5 -5 -5 -6 -7 -9 -10 -11 -11 -11 -11 -12 -12 -12 -12 -12 -12 -12 -11 -12

GFSMW_700_temp_051.txt.gz
Temp
7 7 6 6 5 5 5 5 4 4 5 5 5 5 6 6 6 6 6 5 5 5 5 5 5 5 5 4 4 4 4 4 3 3 3 2 2 2 2 2 2 2 3
7 7 6 5 6 6 6 5 5 4 4 4 4 4 5 5 5 5 5 5 5 5 5 4 5 5 4 4 4 4 3 3 3 3 2 2 2 2 2 2 2 2 2
7 7 7 6 5 5 5 6 6 5 4 4 4 4 4 4 4 5 5 5 5 5 4 4 4 4 4 4 4 3 3 3 3 2 2 1 1 1 1 1 1 1 2
6 6 7 7 7 6 6 5 5 5 4 4 4 4 4 3 4 4 4 4 4 4 4 4 3 4 4 3 3 3 3 3 2 2 2 1 1 1 1 1 1 1 1
6 6 5 6 6 6 6 6 5 5 4 4 4 3 4 3 3 3 3 3 3 3 4 4 3 3 3 2 2 2 3 2 2 2 1 1 1 1 1 0 1 1 1
4 4 4 4 4 4 4 4 4 4 4 4 3 3 3 3 3 3 3 3 3 3 3 3 3 3 2 2 2 2 2 2 2 1 1 1 1 0 0 0 0 0 0
3 4 4 4 4 4 3 3 3 3 3 3 3 3 3 2 2 3 3 3 3 3 2 3 3 3 3 2 2 2 2 2 1 1 1 1 1 0 -0 -0 -0 -0 -0
3 3 3 3 3 3 2 2 2 2 2 2 2 2 2 2 2 2 2 3 3 3 2 2 2 3 2 2 2 2 2 2 1 1 1 1 0 -0 -1 -1 -1 -1 -1
2 2 2 2 1 2 1 1 1 1 1 1 2 2 2 2 2 2 2 2 2 2 2 2 2 2 2 1 1 2 2 1 1 1 0 0 -0 -0 -1 -1 -1 -1 -1
1 1 1 1 1 1 1 0 0 1 1 1 1 2 2 2 2 3 2 2 2 2 2 2 2 2 1 1 1 1 1 0 0 1 1 -0 -0 -1 -2 -3 -2 -2 -1
0 1 1 1 1 1 1 -1 -1 -1 -0 0 -0 0 1 2 2 2 2 2 1 1 1 1 1 1 1 1 1 1 1 0 1 0 -1 -0 -0 -1 -2 -2 -3 -3 -2
-2 -1 -0 1 -0 -2 -2 -3 -3 -2 -2 -1 -1 -0 0 1 2 1 2 1 1 1 1 1 1 1 1 1 1 1 1 0 0 -1 -0 -1 -1 -2 -2 -3 -3 -3 -3
-2 -2 -1 -2 -1 -2 -3 -3 -3 -3 -2 -1 -1 -0 -0 -0 1 1 1 1 1 1 0 0 0 1 1 1 1 1 0 0 -0 -1 -1 -1 -2 -3 -3 -3 -3 -3 -3
-2 -2 -0 -2 -2 -2 -3 -3 -3 -3 -3 -2 -1 -1 -1 -1 -0 0 -0 -0 -0 -0 0 0 -0 0 1 0 0 0 -0 -0 -1 -1 -3 -3 -2 -3 -3 -3 -3 -3 -3
-2 -2 -2 -3 -3 -4 -4 -4 -3 -3 -2 -2 -2 -1 -1 -1 -1 -0 0 -1 -0 0 0 -0 -0 0 -0 -0 0 -1 -0 -2 -2 -3 -3 -3 -3 -3 -3 -3 -3 -4 -4
-3 -3 -3 -3 -4 -4 -3 -3 -3 -2 -2 -1 -2 -1 -1 -2 -1 -2 -1 -1 -1 0 -0 1 -0 1 0 -0 -1 -2 -2 -3 -3 -3 -3 -3 -4 -3 -4 -4 -4 -4 -4
-4 -3 -4 -4 -4 -4 -4 -4 -3 -3 -2 -2 -2 -1 -2 -2 -1 -1 -1 -1 -1 -0 -1 -0 -0 -0 -1 -3 -2 -2 -3 -3 -4 -4 -4 -4 -4 -4 -4 -4 -5 -5 -6
-3 -3 -4 -4 -4 -3 -3 -3 -3 -3 -2 -2 -2 -2 -2 -2 -2 -2 -1 -2 -0 -1 -1 -1 -2 -2 -3 -3 -3 -3 -3 -3 -4 -3 -4 -4 -4 -4 -5 -5 -5 -6 -8
-3 -3 -3 -3 -3 -3 -3 -4 -4 -3 -3 -3 -2 -2 -2 -2 -2 -2 -1 -2 -2 -2 -3 -2 -3 -3 -4 -3 -3 -3 -3 -3 -3 -4 -4 -5 -5 -5 -5 -6 -7 -8 -8
-3 -3 -3 -4 -3 -3 -3 -2 -2 -2 -2 -2 -2 -2 -2 -2 -1 -1 -2 -3 -3 -3 -3 -3 -3 -3 -3 -3 -3 -3 -3 -4 -4 -5 -5 -5 -6 -6 -7 -8 -8 -8 -9
-3 -2 -2 -3 -3 -3 -2 -2 -2 -2 -2 -1 -2 -2 -2 -2 -3 -3 -3 -3 -3 -4 -4 -4 -3 -3 -3 -3 -3 -3 -4 -4 -5 -5 -6 -6 -7 -8 -8 -9 -9 -9 -10
-1 -2 -2 -2 -3 -3 -2 -2 -2 -2 -3 -3 -4 -4 -3 -3 -3 -4 -4 -4 -3 -3 -4 -4 -3 -3 -4 -4 -4 -4 -4 -4 -4 -6 -7 -8 -8 -9 -9 -9 -10 -10 -10
-2 -2 -1 -2 -3 -3 -2 -3 -3 -3 -3 -3 -3 -3 -3 -4 -3 -3 -3 -3 -3 -4 -3 -3 -3 -3 -3 -3 -3 -4 -5 -6 -7 -8 -9 -9 -10 -10 -10 -11 -11 -11 -11
-2 -2 -2 -2 -2 -2 -2 -3 -3 -3 -4 -4 -3 -3 -4 -4 -4 -4 -4 -3 -3 -3 -3 -3 -3 -4 -4 -4 -4 -5 -6 -8 -9 -10 -11 -11 -11 -12 -12 -12 -12 -11 -11
-3 -3 -3 -3 -3 -3 -3 -3 -3 -3 -3 -3 -4 -4 -4 -3 -3 -4 -4 -3 -3 -4 -4 -4 -4 -4 -4 -5 -6 -7 -8 -10 -11 -12 -12 -12 -12 -12 -13 -12 -12 -11 -11
-4 -4 -4 -4 -3 -3 -3 -3 -3 -3 -3 -3 -4 -4 -4 -4 -4 -4 -4 -4 -4 -4 -4 -4 -4 -4 -5 -6 -8 -9 -10 -11 -12 -12 -13 -13 -13 -13 -13 -12 -12 -12 -12

GFSMW_700_temp_054.txt.gz
Temp
7 6 6 6 6 5 5 4 4 4 4 4 5 5 5 6 5 5 5 5 5 5 5 5 5 5 5 5 4 4 4 4 4 4 3 3 3 2 2 2 2 2 2
6 6 6 6 6 5 5 5 5 4 4 4 4 4 4 5 5 5 4 4 5 5 4 4 4 4 4 4 4 4 4 3 3 3 3 3 2 2 2 1 1 2 2
7 7 6 6 6 6 5 5 5 5 5 5 4 4 4 4 4 4 4 4 4 4 4 4 4 4 4 4 4 3 3 3 2 2 2 2 2 2 1 1 1 1 1
5 6 6 6 6 6 6 6 5 5 5 5 4 4 4 4 4 4 3 4 4 4 4 4 4 3 3 3 3 3 3 2 1 1 1 2 2 1 1 1 1 1 1
5 5 5 5 5 5 5 6 5 4 4 4 4 4 4 4 4 4 4 3 3 4 4 3 3 3 3 3 3 3 2 2 2 1 1 1 1 1 1 1 0 0 -0
4 4 4 4 4 4 4 5 4 4 3 3 3 3 3 3 3 4 3 3 3 3 3 3 3 3 3 3 3 2 2 2 1 1 2 1 1 1 1 0 0 0 -0
4 4 4 4 4 4 4 4 4 3 2 2 2 2 2 3 2 2 2 3 3 3 3 3 3 2 2 2 2 2 2 2 1 2 1 0 1 1 1 0 -0 0 -0
3 3 3 3 3 3 3 3 3 3 2 2 2 2 2 2 1 1 2 2 2 2 3 3 3 2 2 2 2 2 2 1 1 2 1 1 0 1 0 0 -0 -1 -1
3 2 2 2 3 3 3 3 2 2 2 2 2 1 1 1 1 1 1 1 1 2 2 2 2 3 2 1 2 2 2 1 1 1 1 -0 0 0 0 -0 -1 -1 -1
1 2 2 2 2 2 2 2 1 1 1 1 1 1 1 1 1 1 1 2 2 1 1 2 2 2 2 2 2 1 1 1 1 1 1 1 1 0 0 -0 -0 -1 -1
0 1 1 1 1 1 1 1 1 1 0 0 0 0 -0 0 0 1 1 2 2 2 1 1 1 1 1 1 1 1 1 1 1 0 -0 -0 0 -0 -0 -1 -1 -2 -2
-1 -1 -1 1 1 1 0 0 0 -1 -2 -3 -2 -2 -1 -1 -0 -0 0 1 2 2 1 1 1 1 1 1 0 0 0 -0 0 -0 -0 1 -0 -0 -1 -1 -3 -3 -3
-1 -1 -2 -0 -0 0 -0 -0 -1 -2 -3 -3 -3 -3 -2 -1 -1 -0 -0 0 1 1 1 1 1 0 0 0 0 -0 -0 -0 0 -0 0 -1 -1 -1 -3 -3 -3 -3 -3
-1 -1 -1 0 -1 -1 -1 -2 -2 -3 -3 -3 -3 -3 -3 -2 -1 -1 -0 -0 0 0 0 0 0 -0 -0 0 -0 -0 -1 0 -0 -1 -1 -1 -2 -3 -3 -3 -3 -3 -4
-1 -2 -1 -1 -2 -2 -3 -3 -3 -3 -3 -3 -3 -3 -2 -2 -1 -1 -1 -1 -1 -0 -0 -0 -1 -0 -0 -1 -1 -0 -0 -0 -1 -1 -3 -3 -3 -3 -4 -4 -3 -3 -4
-2 -2 -1 -2 -2 -2 -3 -4 -4 -3 -3 -2 -2 -2 -2 -2 -2 -2 -2 -2 -2 -1 -1 -1 -0 -0 -1 -1 -1 -1 -1 -1 -2 -3 -4 -4 -4 -4 -5 -3 -4 -4 -5
-3 -3 -2 -2 -4 -4 -4 -3 -4 -3 -3 -2 -2 -2 -2 -2 -2 -2 -2 -2 -2 -2 -2 -2 -2 -1 -1 -2 -2 -2 -2 -3 -3 -3 -4 -4 -4 -4 -4 -4 -5 -5 -6
-3 -3 -3 -4 -3 -3 -4 -4 -4 -3 -3 -3 -3 -2 -2 -2 -2 -2 -2 -2 -2 -2 -2 -2 -2 -2 -2 -3 -3 -3 -3 -3 -4 -3 -4 -4 -4 -4 -4 -5 -5 -6 -7
-3 -4 -4 -4 -4 -4 -4 -4 -4 -2 -2 -2 -3 -3 -2 -2 -3 -2 -2 -2 -2 -2 -2 -2 -3 -3 -3 -4 -4 -4 -3 -3 -3 -4 -4 -4 -4 -5 -5 -5 -6 -7 -8
-3 -4 -2 -4 -4 -4 -4 -4 -4 -2 -2 -2 -2 -2 -3 -2 -3 -3 -3 -3 -3 -3 -4 -4 -4 -4 -4 -4 -3 -3 -3 -3 -3 -4 -4 -4 -5 -6 -7 -7 -8 -9 -9
-1 -3 -3 -3 -3 -2 -2 -3 -3 -3 -2 -2 -3 -3 -3 -4 -4 -4 -4 -4 -4 -4 -4 -4 -4 -4 -3 -3 -3 -3 -3 -4 -4 -4 -5 -6 -7 -8 -9 -10 -10 -10 -10
-1 0 -2 -3 -2 -2 -3 -4 -3 -2 -3 -3 -3 -4 -4 -4 -4 -5 -5 -4 -4 -4 -4 -3 -3 -3 -3 -3 -3 -3 -3 -3 -5 -6 -7 -8 -9 -10 -11 -11 -11 -11 -11
-1 -1 -1 -2 -3 -3 -3 -3 -3 -3 -4 -4 -4 -4 -4 -4 -4 -4 -4 -4 -4 -4 -3 -3 -3 -3 -3 -3 -3 -4 -5 -6 -6 -7 -8 -9 -11 -11 -11 -11 -11 -11 -11
-2 -2 -2 -2 -2 -2 -3 -3 -3 -3 -4 -4 -4 -4 -4 -4 -4 -4 -4 -3 -3 -3 -3 -3 -3 -3 -3 -3 -4 -4 -5 -6 -7 -8 -9 -10 -10 -11 -11 -12 -11 -11 -11
-3 -3 -3 -3 -3 -2 -3 -3 -3 -3 -3 -4 -4 -4 -4 -4 -4 -4 -4 -3 -3 -3 -3 -3 -3 -3 -3 -4 -5 -5 -6 -7 -7 -8 -9 -9 -10 -11 -11 -11 -11 -11 -11
-4 -4 -3 -3 -3 -3 -3 -3 -3 -3 -4 -4 -4 -4 -4 -4 -4 -4 -4 -4 -4 -4 -3 -3 -3 -3 -3 -4 -5 -6 -7 -8 -8 -9 -9 -10 -10 -10 -10 -10 -11 -11 -11

GFSMW_700_temp_057.txt.gz
Temp
6 6 6 6 6 5 5 5 4 4 4 5 5 5 5 5 5 5 5 5 5 5 5 5 5 5 5 5 5 4 4 4 4 4 4 3 3 3 3 2 2 2 2
6 6 6 6 6 6 6 6 5 5 4 4 4 4 4 4 4 4 5 4 5 4 4 5 5 4 4 4 4 4 4 4 3 3 3 3 3 3 2 2 2 2 2
6 6 6 6 6 6 6 6 6 6 5 5 4 4 4 4 3 4 5 5 5 5 4 4 4 4 4 4 4 4 4 3 3 3 2 2 3 2 2 2 2 1 1
5 5 5 5 6 6 6 5 5 5 5 5 5 5 5 4 4 4 3 3 3 3 4 4 4 4 4 4 4 3 3 3 3 2 2 2 2 2 2 1 1 1 1
4 4 4 4 4 5 5 5 5 5 5 4 4 4 4 4 4 4 3 3 3 3 3 3 3 4 3 3 3 3 3 3 2 2 2 1 1 1 1 1 1 1 1
3 3 3 3 3 4 4 4 4 4 5 4 3 3 3 3 3 3 3 3 3 3 3 3 3 3 3 3 3 3 3 2 2 2 2 1 1 1 1 1 1 0 1
3 3 3 3 3 3 3 3 3 3 4 4 3 3 2 2 2 2 2 2 2 2 2 2 2 3 3 3 3 2 2 2 2 2 1 1 1 1 0 1 1 0 1
2 3 3 3 3 3 3 3 3 3 3 3 3 2 2 2 2 1 2 2 2 2 2 2 2 2 2 3 2 2 1 1 1 1 1 1 1 1 1 1 1 0 0
2 2 3 3 3 3 3 3 3 2 2 2 2 2 2 2 1 1 1 1 1 1 1 1 2 2 2 2 2 2 1 1 1 1 1 1 0 1 1 1 -0 0 0
2 2 2 2 3 3 3 3 3 2 2 1 1 1 1 1 1 1 0 1 1 1 1 1 1 2 2 2 2 2 1 2 1 1 1 1 0 0 1 0 0 -0 -1
1 1 2 2 2 2 2 2 2 2 1 1 1 0 -0 -0 -0 0 0 0 1 1 1 1 1 1 1 1 1 1 1 1 1 1 1 0 0 0 -0 -1 -0 -1 -0
0 1 1 2 1 1 1 1 1 0 0 0 0 -0 -1 -2 -2 -2 -1 -1 -0 0 1 1 1 1 1 1 1 1 1 0 0 -0 -0 0 0 -1 -1 -1 -1 -1 -1
0 0 1 1 1 1 0 0 1 1 2 1 -0 -1 -2 -3 -3 -2 -2 -1 -1 -0 0 1 1 1 1 1 1 1 0 0 -0 -0 -0 -0 -1 -1 -1 -2 -3 -3 -3
-1 -0 1 1 1 1 1 1 1 1 1 0 -1 -2 -2 -3 -3 -3 -2 -2 -2 -1 -0 0 0 0 0 0 0 -0 -0 -0 -1 -1 -2 -1 -2 -2 -2 -3 -4 -4 -4
-2 -1 1 0 1 0 0 0 0 -0 0 -1 -1 -2 -2 -2 -3 -3 -3 -3 -2 -2 -1 -0 -1 -1 -0 -0 -1 -1 -1 -1 -1 -1 -2 -2 -3 -3 -4 -4 -4 -3 -4
-1 -0 1 0 -0 0 0 -0 0 -1 -1 -1 -1 -1 -2 -2 -3 -3 -4 -3 -3 -2 -2 -1 -1 -1 -1 -1 -1 -1 -2 -2 -2 -2 -2 -3 -4 -4 -4 -3 -3 -3 -4
-2 -0 0 -1 -2 -1 -2 -2 -3 -2 -2 -2 -2 -2 -3 -3 -3 -3 -3 -2 -3 -2 -2 -2 -2 -1 -2 -2 -2 -2 -2 -2 -2 -3 -4 -3 -3 -3 -3 -3 -4 -4 -6
-2 0 -1 -2 -3 -4 -3 -3 -2 -2 -1 -1 -2 -3 -2 -3 -3 -3 -3 -3 -3 -3 -3 -2 -2 -2 -2 -3 -2 -3 -3 -3 -3 -3 -3 -3 -3 -4 -4 -4 -5 -7 -8
-2 -1 -3 -3 -4 -3 -3 -3 -3 -2 -2 -2 -3 -4 -3 -3 -3 -3 -3 -3 -3 -3 -3 -3 -3 -3 -4 -4 -4 -4 -4 -2 -3 -3 -3 -4 -4 -4 -5 -5 -6 -8 -9
-1 -3 -3 -3 -2 -3 -2 -2 -2 -2 -2 -3 -3 -2 -3 -3 -4 -3 -4 -4 -4 -4 -4 -4 -4 -4 -4 -4 -3 -3 -3 -3 -3 -3 -3 -4 -5 -5 -6 -7 -8 -9 -10
-0 -0 -3 -3 -4 -2 -2 -2 -3 -3 -2 -3 -3 -3 -3 -4 -4 -4 -4 -5 -5 -5 -4 -4 -4 -4 -3 -3 -3 -3 -3 -3 -4 -4 -4 -5 -5 -6 -7 -9 -10 -10 -10
-0 0 -2 -3 -4 -3 -4 -3 -3 -3 -3 -3 -3 -4 -4 -4 -4 -4 -4 -4 -4 -4 -4 -4 -4 -3 -3 -3 -3 -3 -3 -3 -3 -4 -4 -5 -6 -7 -8 -9 -9 -10 -10
-1 -1 -1 -2 -3 -3 -3 -3 -3 -3 -3 -3 -4 -3 -3 -4 -4 -4 -4 -5 -5 -5 -4 -4 -4 -3 -3 -3 -2 -2 -2 -2 -3 -4 -5 -6 -7 -8 -8 -8 -9 -9 -10
-2 -2 -2 -2 -2 -2 -3 -3 -3 -3 -3 -3 -3 -3 -3 -4 -4 -4 -4 -4 -4 -4 -4 -3 -3 -3 -2 -2 -2 -2 -3 -4 -5 -6 -6 -7 -8 -8 -8 -8 -9 -9 -9
-2 -2 -3 -3 -3 -3 -3 -3 -3 -3 -3 -3 -3 -4 -4 -4 -4 -4 -4 -4 -4 -4 -3 -3 -3 -3 -3 -2 -2 -3 -3 -5 -6 -7 -7 -8 -8 -8 -9 -9 -9 -9 -9
-3 -3 -3 -3 -3 -3 -3 -3 -3 -3 -3 -3 -4 -4 -4 -4 -4 -4 -4 -4 -4 -4 -4 -3 -3 -3 -2 -2 -2 -3 -4 -5 -6 -7 -8 -8 -9 -9 -9 -9 -9 -9 -10

GFSMW_700_temp_060.txt.gz
Temp
7 7 7 7 7 7 6 6 6 5 5 5 5 5 5 5 5 5 5 5 5 5 5 5 5 5 5 5 5 5 5 5 4 4 4 4 4 4 4 3 3 3 3
6 6 7 7 7 6 6 6 6 5 5 5 5 5 5 5 5 5 4 4 4 4 4 4 5 4 5 5 5 5 5 4 4 4 4 4 4 4 3 3 3 3 3
6 6 6 6 6 6 6 6 6 6 6 5 5 5 5 5 5 5 5 5 4 4 4 4 4 4 4 4 4 4 4 4 4 3 3 3 4 4 3 3 2 2 2
5 6 5 5 5 6 6 6 6 6 6 5 5 5 5 5 4 4 4 3 4 4 4 4 3 4 4 4 4 4 4 3 4 3 3 3 3 3 3 2 2 2 2
4 4 4 4 5 5 5 5 5 5 5 6 5 5 5 5 4 4 4 4 4 3 3 3 3 4 4 4 3 3 3 3 3 3 3 2 2 2 2 2 2 1 1
3 3 3 4 4 4 4 4 4 4 5 5 5 5 4 4 4 3 3 3 3 3 3 3 3 3 3 3 3 3 3 3 2 3 2 2 2 2 1 1 1 1 1
2 3 3 3 3 4 4 4 4 4 4 4 4 4 4 4 3 3 3 3 3 2 2 2 2 2 2 2 2 3 3 3 2 1 2 2 1 1 1 1 1 1 1
3 3 3 3 3 3 3 3 3 3 3 3 3 3 3 3 3 2 2 2 2 2 2 2 2 2 2 2 2 2 2 2 2 2 1 1 1 1 1 1 1 1 1
2 3 3 3 4 4 4 4 3 3 3 3 2 2 2 2 2 1 1 1 1 1 2 2 2 1 2 2 2 2 2 2 2 2 1 0 0 0 1 1 1 0 0
2 2 3 3 3 4 4 4 4 3 3 3 2 2 1 1 1 1 1 1 1 1 1 1 1 1 1 1 1 2 2 2 2 1 1 -0 1 -0 0 0 0 1 1
2 2 2 3 3 3 3 3 3 3 3 3 2 2 2 1 1 0 0 0 -0 -0 -0 0 1 1 1 1 1 1 1 1 1 1 1 1 1 0 -0 -0 0 0 0
1 1 2 2 2 2 3 2 2 2 2 2 2 2 1 1 0 0 -1 -1 -1 -1 -1 -0 0 1 1 1 1 1 1 1 1 1 1 1 -0 0 1 0 -0 -0 -1
0 1 1 2 2 2 1 1 1 1 1 1 1 2 2 1 1 -0 -2 -2 -2 -2 -2 -1 -1 -0 0 1 1 1 1 1 1 1 0 -0 -0 0 -1 -1 -1 -1 -2
-0 -0 1 1 1 1 0 1 1 1 1 2 1 1 1 1 -0 -1 -2 -2 -2 -3 -2 -2 -2 -1 -1 -0 0 1 0 0 0 -0 -0 -1 -1 -1 -1 -2 -2 -2 -2
-1 -0 -0 1 2 1 1 1 1 1 1 1 1 1 0 -0 -1 -1 -2 -2 -3 -3 -3 -2 -2 -1 -1 -1 -1 -0 -1 -0 -1 -1 -1 -1 -1 -2 -2 -2 -2 -3 -3
-1 -0 -0 1 1 2 1 1 1 1 1 0 0 -0 -0 -1 -1 -2 -2 -3 -2 -3 -3 -4 -2 -2 -2 -2 -2 -2 -1 -1 -2 -2 -2 -2 -2 -2 -2 -2 -3 -4 -4
-3 -1 -1 0 1 2 1 1 1 1 1 0 -0 -1 -2 -2 -4 -3 -3 -3 -3 -3 -3 -3 -2 -2 -2 -2 -1 -2 -2 -2 -2 -2 -2 -3 -2 -3 -3 -4 -4 -4 -4
-2 -1 -1 -0 1 2 1 1 0 1 -0 -1 -1 -1 -2 -2 -2 -2 -3 -3 -2 -3 -3 -3 -2 -2 -3 -3 -3 -3 -3 -3 -3 -3 -2 -2 -3 -2 -3 -3 -4 -5 -5
-1 -0 -1 -0 0 1 1 1 0 0 -0 -1 -3 -2 -2 -2 -3 -3 -2 -3 -3 -4 -4 -4 -4 -3 -4 -4 -4 -4 -3 -3 -2 -2 -2 -2 -3 -3 -3 -3 -4 -5 -6
-0 -0 -0 -3 -0 0 1 1 -0 -0 -1 -2 -2 -3 -3 -3 -3 -4 -4 -3 -3 -4 -4 -4 -4 -4 -4 -4 -4 -3 -3 -3 -3 -3 -3 -3 -3 -3 -4 -4 -5 -6 -7
-0 1 0 -3 -2 -0 -0 -1 -1 -1 -2 -2 -2 -2 -3 -3 -3 -3 -4 -4 -4 -4 -4 -4 -4 -4 -4 -3 -3 -3 -3 -3 -2 -2 -3 -3 -3 -4 -5 -5 -6 -7 -7
-1 0 0 -1 -0 -1 -1 -2 -2 -2 -2 -2 -2 -3 -3 -3 -3 -3 -3 -3 -4 -4 -4 -4 -4 -3 -3 -3 -2 -3 -2 -2 -3 -3 -3 -4 -4 -5 -6 -6 -7 -7 -7
-1 -1 -0 -0 -0 -1 -2 -2 -2 -2 -2 -3 -3 -3 -3 -3 -3 -3 -4 -4 -4 -4 -3 -3 -3 -3 -3 -2 -2 -2 -1 -1 -2 -2 -3 -4 -5 -6 -6 -7 -8 -8 -8
-2 -2 -1 -1 -1 -2 -2 -2 -3 -3 -3 -3 -3 -3 -3 -3 -4 -4 -4 -4 -4 -4 -4 -3 -3 -3 -2 -2 -2 -2 -2 -2 -2 -2 -3 -4 -6 -6 -7 -8 -8 -8 -9
-3 -2 -2 -2 -2 -2 -2 -2 -3 -3 -3 -3 -3 -3 -4 -4 -4 -4 -4 -4 -4 -4 -3 -3 -3 -3 -2 -2 -2 -2 -2 -2 -3 -4 -5 -6 -7 -8 -8 -9 -9 -9 -9
-2 -3 -3 -2 -3 -3 -3 -2 -3 -3 -3 -3 -3 -3 -4 -4 -4 -4 -4 -4 -4 -4 -4 -4 -3 -3 -3 -2 -2 -2 -3 -3 -4 -5 -6 -7 -8 -9 -9 -9 -9 -9 -10

GFSMW_700_temp_063.txt.gz
Temp
6 7 7 7 7 7 7 7 6 6 6 6 5 6 6 5 5 5 5 5 5 5 5 5 5 5 5 5 5 5 5 5 5 5 5 5 5 4 4 4 4 4 3
7 7 7 7 7 7 7 7 7 6 6 5 5 5 6 5 5 5 5 5 5 4 4 5 4 4 4 4 4 4 5 5 5 5 4 4 4 4 4 4 4 4 3
6 6 7 7 7 7 7 6 6 6 6 6 5 5 5 5 5 5 5 5 5 4 4 4 4 4 4 4 4 4 4 4 4 4 4 4 4 4 4 4 3 3 3
5 6 6 6 6 6 6 6 6 6 6 6 6 6 5 5 5 5 5 4 4 4 4 4 4 4 3 3 3 3 3 3 4 4 3 3 4 4 3 3 3 3 3
4 4 4 5 5 5 5 5 6 6 6 6 6 5 5 5 5 5 4 4 4 4 4 3 3 3 3 3 3 3 3 3 3 3 3 3 3 3 3 3 3 3 2
3 3 3 3 4 4 4 4 5 5 5 5 5 5 5 5 5 4 4 4 3 3 3 4 3 3 3 3 3 3 3 3 3 3 3 3 3 3 2 2 2 2 1
2 2 3 3 3 3 4 4 4 4 4 4 5 5 4 4 4 4 3 3 2 2 2 2 2 3 3 2 2 2 2 2 2 2 2 2 2 2 2 2 2 1 1
2 2 3 3 3 3 4 4 4 3 3 3 3 3 3 3 3 3 3 3 2 2 2 2 2 2 2 2 2 2 2 2 2 2 2 2 2 2 2 1 1 2 1
2 2 3 3 3 3 3 3 3 3 3 3 3 3 3 3 2 2 2 2 2 2 1 1 2 2 2 2 1 1 1 1 1 1 1 2 2 1 2 2 1 0 0
2 2 3 3 3 4 4 4 4 4 4 4 3 3 3 2 2 2 1 1 1 1 1 1 1 0 1 1 1 1 1 1 1 1 1 1 1 1 1 1 0 -0 0
2 2 3 3 3 3 3 4 4 4 4 3 3 3 3 2 2 2 1 1 0 0 0 -0 -0 -0 0 0 0 0 0 0 0 0 1 1 1 1 0 0 0 -1 -1
1 2 2 2 2 3 3 3 3 3 3 3 3 3 2 2 2 2 1 1 1 0 -0 -1 -1 -1 -1 -1 -0 -0 -0 0 0 0 0 0 0 0 1 0 0 -0 -0
1 1 1 2 2 2 2 2 2 2 2 2 2 2 2 2 2 2 1 1 1 0 -1 -2 -2 -2 -2 -2 -1 -1 -0 -0 -0 0 0 0 0 0 -0 -0 -0 -1 -1
-1 -0 0 1 1 2 1 1 2 1 2 2 2 2 2 2 2 1 1 1 0 -0 -2 -2 -3 -2 -2 -2 -2 -2 -1 -0 -1 -1 -0 -1 -0 -0 -0 -1 -1 -1 -1
-2 -1 0 1 1 1 1 2 1 1 1 2 2 2 2 2 1 1 1 -0 -1 -2 -2 -3 -3 -3 -2 -2 -2 -2 -2 -2 -2 -2 -2 -1 -1 -1 -2 -2 -1 -1 -2
-2 -1 -0 0 0 1 1 2 2 1 1 1 2 2 2 1 0 0 -0 -0 -1 -1 -1 -3 -2 -3 -3 -3 -3 -3 -3 -2 -3 -2 -2 -1 -2 -2 -2 -2 -2 -3 -3
-1 -0 -0 0 1 1 2 1 2 1 1 1 1 1 2 1 1 -0 -0 -1 -1 -1 -2 -2 -3 -3 -3 -3 -3 -3 -3 -2 -3 -2 -2 -2 -2 -2 -2 -2 -3 -3 -3
0 -0 0 0 1 1 1 1 1 1 1 1 1 1 1 -0 -1 -1 -1 -0 -1 -2 -3 -3 -4 -3 -3 -3 -3 -3 -3 -3 -3 -3 -3 -2 -2 -3 -3 -2 -3 -3 -3
-0 -0 -0 -0 0 0 0 1 1 1 1 1 1 1 0 -0 -1 -1 -1 -1 -2 -3 -3 -3 -3 -4 -4 -4 -4 -4 -3 -3 -3 -3 -3 -2 -2 -2 -2 -3 -3 -3 -4
0 0 1 -1 -1 0 1 1 1 0 1 0 -0 -0 -1 -1 -1 -2 -2 -2 -2 -3 -3 -3 -3 -3 -3 -3 -3 -3 -3 -3 -3 -2 -2 -2 -2 -2 -2 -3 -3 -4 -4
0 1 1 -0 -1 -0 0 1 0 0 -0 -0 -1 -1 -1 -2 -2 -2 -2 -2 -2 -3 -3 -3 -3 -3 -3 -3 -2 -2 -2 -2 -2 -1 -1 -2 -2 -2 -2 -3 -4 -5 -5
-0 -0 0 -0 -0 -0 -0 -1 -1 -0 -1 -1 -1 -2 -2 -2 -2 -2 -2 -2 -2 -2 -3 -3 -2 -2 -2 -2 -2 -2 -2 -1 -1 -1 -2 -2 -2 -3 -3 -5 -6 -6 -7
-1 -1 -1 -0 -0 -1 -1 -1 -1 -1 -1 -2 -2 -1 -2 -2 -2 -2 -2 -2 -3 -3 -3 -3 -2 -2 -2 -2 -2 -2 -1 -1 -1 -1 -1 -2 -2 -3 -5 -6 -7 -7 -8
-2 -1 -1 -1 -1 -1 -1 -1 -2 -2 -2 -2 -2 -2 -2 -3 -3 -3 -3 -3 -3 -3 -3 -3 -3 -2 -2 -2 -2 -2 -2 -2 -2 -2 -2 -2 -4 -5 -6 -7 -8 -8 -8
-3 -2 -2 -2 -1 -2 -2 -2 -2 -2 -2 -2 -2 -2 -3 -3 -3 -3 -3 -3 -3 -3 -3 -3 -3 -3 -3 -3 -2 -2 -2 -2 -2 -2 -3 -4 -5 -6 -7 -8 -9 -9 -9
-2 -3 -3 -2 -2 -2 -2 -3 -2 -3 -3 -3 -3 -3 -3 -3 -3 -3 -3 -4 -4 -3 -3 -3 -3 -3 -3 -3 -3 -3 -3 -3 -3 -4 -5 -6 -7 -8 -9 -9 -9 -10 -10

GFSMW_700_temp_066.txt.gz
Temp
6 6 7 7 7 7 7 7 7 7 6 6 5 6 6 6 5 5 5 5 5 5 5 5 5 4 5 4 4 4 4 5 5 5 4 5 5 4 5 4 4 4 4
4 5 7 8 7 7 7 7 7 7 6 6 6 5 6 6 6 5 5 5 5 5 4 5 5 4 4 4 4 4 4 4 4 4 4 4 4 4 4 4 4 4 4
6 6 7 7 7 7 7 7 7 7 6 6 6 6 5 6 6 6 6 5 4 4 4 4 4 4 4 4 4 3 3 3 3 3 3 3 4 4 4 4 4 4 4
5 6 6 7 7 7 7 6 6 6 6 6 6 6 6 5 6 6 6 6 5 5 4 3 3 3 3 3 3 3 3 3 3 3 3 3 3 3 3 3 3 3 3
5 5 5 6 5 6 6 6 6 6 6 6 6 6 6 5 4 4 5 5 5 5 5 4 3 3 3 3 3 3 3 3 3 3 3 3 2 2 2 2 3 2 2
4 4 4 4 4 4 4 5 5 5 5 5 5 5 5 5 5 4 4 5 4 4 3 3 3 3 3 2 2 2 2 2 2 2 2 2 2 2 1 1 1 1 1
2 3 3 3 3 4 4 4 4 5 5 5 5 5 5 5 4 4 4 4 4 4 3 3 3 2 2 2 2 2 2 2 1 2 2 2 2 2 1 1 0 0 0
2 2 2 3 3 3 4 4 4 4 5 4 4 4 4 4 4 4 4 3 3 3 3 3 3 3 2 2 2 1 1 1 1 1 1 1 1 2 2 1 1 1 1
1 2 2 2 3 3 3 4 4 4 4 4 4 4 4 3 3 3 3 3 2 2 2 2 2 1 1 1 1 1 1 1 1 1 0 0 0 1 1 1 1 0 1
2 2 2 3 3 3 4 4 4 4 4 4 4 4 3 3 3 3 2 2 2 1 1 1 1 1 0 0 0 0 0 0 0 -0 -0 -0 -0 -0 -0 0 0 0 0
1 2 2 2 3 3 4 4 4 4 4 4 4 3 3 3 3 2 2 2 2 1 1 1 0 0 -0 -0 -1 -1 -1 -0 -1 -1 -1 -1 -1 -1 -1 -0 -0 1 -0
1 2 2 2 3 3 3 3 3 3 3 3 3 3 3 3 3 2 2 2 2 2 2 1 1 0 -0 -1 -2 -2 -2 -1 -1 -1 -1 -1 -1 -1 -1 -1 -1 -0 -0
1 2 2 2 2 2 2 2 3 2 2 2 2 2 2 2 2 2 2 2 2 1 1 2 1 -0 -1 -1 -2 -2 -2 -2 -2 -2 -2 -3 -1 -1 -2 -1 -1 -1 -2
0 0 1 1 1 1 2 2 2 1 2 2 2 2 2 2 2 2 2 2 2 2 1 1 0 -0 -1 -1 -2 -2 -2 -3 -3 -2 -3 -3 -1 -2 -1 -1 -2 -1 -2
-1 -1 -0 1 0 1 1 2 1 1 2 2 2 2 2 2 2 2 2 2 2 1 1 1 0 -0 -1 -2 -2 -3 -2 -2 -3 -3 -3 -3 -2 -3 -2 -2 -2 -2 -2
-1 -0 -1 -1 0 0 1 1 1 2 2 2 2 2 2 2 2 2 2 1 1 1 0 -0 0 -1 -1 -1 -3 -3 -3 -3 -3 -3 -3 -3 -3 -3 -3 -3 -3 -3 -3
-0 -0 -0 -0 0 0 1 1 1 1 2 2 2 1 2 2 2 1 1 1 1 1 0 0 0 -0 -1 -1 -2 -3 -3 -3 -3 -4 -4 -3 -3 -3 -3 -3 -3 -3 -3
-0 0 0 0 1 1 1 0 1 1 1 1 1 1 2 1 1 1 1 0 1 0 -0 -1 -2 -2 -2 -3 -3 -3 -3 -3 -3 -3 -3 -3 -3 -3 -3 -2 -2 -2 -2
0 0 1 1 1 0 0 0 0 1 1 1 1 1 1 0 1 0 -0 -0 -0 -1 -2 -2 -3 -3 -2 -2 -3 -3 -2 -2 -2 -2 -2 -2 -2 -2 -2 -2 -2 -2 -3
0 0 1 1 -1 -0 -0 -0 0 0 0 0 -0 0 0 -0 -0 -0 -1 -1 -1 -1 -2 -2 -2 -2 -2 -2 -2 -2 -2 -1 -1 -1 -1 -1 -1 -2 -2 -2 -2 -2 -3
-1 -0 1 0 -0 -0 -0 -0 0 0 0 -0 -0 -0 -1 -1 -1 -1 -1 -1 -1 -1 -2 -2 -2 -2 -2 -2 -1 -1 -1 -1 -1 -1 -1 -1 -1 -1 -1 -1 -2 -2 -4
-1 -0 0 0 -0 -1 -1 -1 -1 -0 -1 -1 -1 -1 -1 -1 -1 -1 -1 -1 -2 -2 -2 -2 -2 -2 -2 -2 -2 -2 -2 -1 -1 -1 -1 -1 -1 -1 -1 -2 -3 -4 -5
-2 -1 -1 -1 -0 -1 -1 -1 -1 -1 -1 -1 -2 -1 -2 -1 -1 -1 -2 -2 -2 -2 -2 -2 -2 -2 -2 -2 -2 -2 -2 -2 -2 -2 -2 -2 -2 -2 -3 -4 -5 -6 -7
-3 -2 -1 -1 -1 -1 -1 -1 -1 -1 -2 -2 -2 -2 -2 -2 -2 -2 -2 -2 -2 -2 -3 -3 -3 -3 -3 -2 -2 -2 -2 -2 -2 -2 -2 -2 -2 -3 -4 -5 -6 -7 -8
-3 -2 -2 -2 -1 -1 -2 -2 -2 -2 -2 -2 -2 -2 -2 -2 -2 -3 -3 -3 -3 -3 -3 -3 -3 -3 -3 -3 -3 -3 -3 -3 -3 -3 -3 -3 -4 -5 -6 -7 -8 -9 -9
-2 -2 -2 -2 -2 -2 -2 -2 -2 -2 -2 -2 -3 -3 -3 -3 -3 -3 -3 -3 -4 -4 -3 -4 -3 -4 -4 -4 -4 -4 -4 -4 -3 -3 -4 -4 -6 -7 -8 -9 -9 -10 -10

GFSMW_700_temp_069.txt.gz
Temp
5 5 6 6 6 6 7 6 6 6 6 7 7 7 6 6 5 5 5 5 5 5 5 5 5 5 5 4 4 4 4 4 4 3 4 4 4 4 4 4 4 4 4
6 6 7 7 7 6 7 7 6 6 6 6 6 7 7 7 6 6 5 5 5 5 4 4 5 4 4 4 4 4 4 3 3 3 3 3 3 4 4 3 3 3 3
5 6 6 7 7 6 6 6 6 6 6 6 6 6 6 6 6 6 6 5 5 4 3 4 4 4 4 4 3 3 3 3 3 3 2 3 3 3 3 3 3 3 3
5 5 6 6 6 6 6 6 6 6 6 6 6 6 6 6 6 6 6 6 5 5 4 4 4 4 4 4 4 3 3 3 3 3 2 2 2 2 2 3 3 3 3
5 5 5 5 6 6 6 6 6 6 6 6 6 6 6 6 6 5 6 6 5 5 5 4 4 3 3 3 3 3 2 3 2 2 2 2 2 2 2 2 2 2 1
5 5 4 5 5 5 5 5 5 5 5 5 5 5 5 5 5 5 5 5 5 5 5 5 5 4 4 3 3 2 2 2 2 2 1 1 1 1 1 1 1 1 0
4 3 4 4 4 4 4 4 4 5 5 5 5 5 5 5 5 5 4 4 4 4 4 4 4 4 4 3 3 2 2 1 1 1 1 1 1 1 0 0 0 0 0
3 3 3 3 3 3 3 3 4 4 5 5 5 5 5 5 5 5 4 4 4 4 3 3 3 3 3 2 2 2 2 2 1 1 1 0 -0 -0 -0 -0 0 0 0
2 2 2 2 2 3 3 3 4 4 4 5 5 5 5 5 5 4 4 4 3 3 2 2 2 2 2 2 1 1 1 1 1 1 0 0 0 -0 -1 -1 -0 -1 -1
2 2 2 2 2 2 3 3 4 4 4 4 4 4 4 4 4 4 4 3 3 3 2 2 2 1 1 1 0 0 0 -0 -0 -1 -1 -0 -1 -1 -1 -1 -1 -1 -1
1 1 1 1 2 2 3 3 4 4 4 4 4 4 4 4 4 4 3 3 3 3 3 3 2 2 2 2 1 1 -0 -1 -1 -1 -2 -2 -1 -2 -1 -1 -1 -1 -2
0 1 1 1 2 2 3 3 3 4 4 4 4 4 3 3 3 3 3 3 3 3 3 3 3 2 2 1 1 1 -0 -1 -1 -2 -2 -2 -2 -2 -2 -2 -2 -2 -2
0 1 1 1 2 2 3 2 3 3 3 3 3 3 3 3 3 3 3 3 2 2 2 2 2 2 2 1 1 0 -1 -1 -1 -2 -2 -2 -2 -3 -3 -3 -3 -2 -2
0 0 0 1 1 1 1 1 2 2 2 2 2 2 2 2 2 2 2 2 2 2 2 2 2 2 1 1 1 1 -0 -2 -2 -2 -2 -2 -3 -2 -2 -3 -3 -2 -3
0 -0 0 0 0 1 1 1 2 2 2 2 2 2 2 2 2 2 2 1 1 2 2 2 2 1 1 1 0 0 -0 -2 -2 -2 -4 -3 -4 -3 -3 -3 -3 -3 -3
-0 -0 -0 0 -0 -0 0 1 1 1 2 1 2 2 2 2 2 2 1 1 2 1 2 1 1 0 1 0 -0 -1 -1 -2 -4 -4 -4 -3 -4 -3 -3 -3 -3 -3 -3
-1 -0 -0 0 -0 0 0 0 0 1 1 1 1 2 1 2 1 1 1 1 1 1 1 0 -0 0 0 -0 -1 -1 -2 -3 -3 -3 -3 -3 -3 -3 -3 -3 -3 -3 -2
-0 -0 -0 -0 -0 -0 -0 0 0 1 0 1 1 1 1 1 1 1 1 1 1 1 0 -0 -0 -0 -0 -1 -1 -1 -2 -2 -2 -2 -2 -2 -2 -2 -2 -2 -2 -2 -2
-1 -0 0 0 0 0 -0 -0 -1 -0 -0 0 0 1 1 1 0 0 -0 -0 -0 -1 -1 -1 -1 -1 -1 -1 -1 -1 -1 -1 -1 -1 -1 -1 -1 -1 -1 -1 -1 -2 -2
-1 -0 0 1 1 0 -1 -1 -1 -1 0 0 0 -0 0 -0 -0 -1 -1 -1 -1 -1 -1 -1 -1 -1 -1 -1 -1 -1 -1 -1 -1 -1 -1 -1 -1 -1 -1 -1 -1 -2 -2
-2 -1 -0 0 0 -0 -0 -0 -0 -0 -0 -0 -0 -1 -1 -1 -1 -1 -1 -2 -1 -1 -1 -1 -1 -1 -1 -1 -1 -1 -1 -1 -1 -1 -1 -1 -1 -1 -1 -1 -1 -2 -2
-2 -2 -1 -1 -0 -0 -0 -0 -0 -0 -1 -1 -1 -1 -1 -1 -1 -2 -2 -2 -2 -2 -2 -2 -2 -2 -2 -2 -2 -2 -2 -2 -2 -2 -2 -2 -2 -2 -2 -2 -2 -3 -4
-3 -2 -1 -1 -0 -0 -0 -0 -1 -1 -1 -1 -1 -1 -2 -2 -2 -2 -2 -2 -2 -2 -2 -2 -2 -2 -2 -2 -2 -3 -3 -3 -3 -3 -3 -3 -2 -2 -3 -3 -4 -5 -6
-3 -3 -2 -1 -1 -1 -1 -1 -1 -2 -2 -2 -2 -2 -2 -2 -2 -2 -2 -2 -2 -3 -2 -3 -3 -3 -3 -3 -3 -3 -3 -3 -3 -3 -3 -3 -3 -3 -4 -4 -6 -7 -8
-2 -3 -2 -2 -1 -2 -2 -2 -2 -2 -2 -2 -2 -2 -2 -2 -2 -2 -3 -3 -3 -3 -3 -3 -4 -4 -3 -3 -3 -4 -4 -4 -4 -4 -4 -4 -4 -4 -5 -6 -7 -8 -9
-2 -2 -2 -2 -2 -2 -2 -2 -2 -2 -2 -2 -2 -3 -3 -3 -3 -3 -3 -3 -3 -4 -4 -4 -4 -4 -4 -4 -4 -4 -4 -5 -5 -4 -4 -4 -4 -5 -6 -7 -8 -9 -10

GFSMW_700_temp_072.txt.gz
Temp
5 6 6 6 6 6 6 7 7 7 6 6 6 6 6 6 6 6 6 6 5 5 5 5 5 4 4 4 4 4 4 4 4 3 4 3 3 3 3 3 3 3 3
5 6 6 6 6 6 6 6 6 6 6 6 6 6 6 6 5 5 5 5 5 5 5 5 5 5 4 4 4 4 4 3 3 3 3 3 3 3 3 3 3 3 2
5 5 6 6 6 6 6 6 6 6 6 6 6 6 7 7 7 6 6 5 5 5 5 4 4 4 4 4 4 4 3 3 3 3 3 2 3 2 3 3 2 2 2
5 5 5 5 5 5 6 6 6 6 6 6 6 6 6 7 7 7 6 6 6 5 5 4 4 4 4 4 4 4 3 3 3 3 2 2 2 2 2 2 2 2 2
4 4 5 5 5 5 5 5 6 6 6 6 6 6 6 6 6 6 6 6 6 5 5 5 4 4 3 4 4 4 3 3 3 3 2 2 2 2 1 2 1 1 1
4 5 5 5 5 5 5 5 5 5 5 5 5 5 5 5 5 5 5 5 5 5 5 5 4 4 4 4 3 3 3 3 2 2 2 2 1 1 1 1 1 0 -0
3 3 3 4 4 4 4 4 5 4 4 4 4 5 5 5 5 4 4 5 5 5 5 5 4 4 4 4 3 3 3 2 2 2 2 1 1 1 0 -0 0 -0 -1
3 3 3 4 4 4 4 4 4 4 4 4 4 4 4 4 4 4 4 4 4 4 4 4 4 4 3 3 3 3 3 2 2 1 1 1 0 -0 -0 -0 -1 -1 -1
3 3 2 3 3 3 3 3 3 3 4 4 4 4 4 4 4 4 4 4 4 4 3 3 3 3 3 3 2 2 2 2 1 1 0 0 0 -0 -0 -1 -1 -2 -1
2 2 2 1 2 2 2 2 3 3 3 4 4 4 4 4 5 5 5 4 4 4 3 3 3 3 3 2 2 2 2 2 1 1 0 0 -0 -1 -1 -1 -2 -2 -2
1 1 1 1 1 2 2 2 2 3 3 4 4 4 4 4 4 4 4 4 4 3 3 3 3 3 3 3 3 2 2 2 1 1 0 -0 -1 -1 -2 -2 -2 -2 -2
0 0 0 1 1 1 2 2 3 3 3 3 4 4 4 4 3 3 3 4 3 3 3 3 3 3 3 3 2 2 2 2 1 1 -0 -0 -1 -2 -2 -3 -2 -3 -3
-0 0 0 1 1 1 2 2 3 3 3 3 3 3 3 3 3 3 3 3 3 3 3 3 3 3 3 2 2 2 2 1 2 1 0 -0 -1 -2 -2 -3 -3 -3 -3
-0 0 0 0 0 1 1 2 2 2 2 2 2 2 2 2 2 2 2 2 3 2 2 2 2 2 2 2 2 2 1 2 1 1 0 -0 -1 -2 -2 -3 -3 -4 -4
-0 -0 -0 -0 -0 -0 1 1 1 1 1 2 2 2 2 2 2 2 2 2 2 2 2 2 2 2 1 1 1 1 1 1 0 0 -1 -1 -1 -2 -4 -4 -4 -3 -3
-0 -0 -0 -0 -0 0 0 0 0 1 1 1 2 2 2 2 2 2 2 2 2 2 1 1 1 1 1 1 0 0 0 -0 -0 -0 -0 -1 -2 -2 -2 -3 -3 -3 -3
-1 -1 -1 -0 -0 0 -0 -0 0 0 0 1 1 1 1 1 2 2 1 1 1 1 1 1 0 -0 -0 -0 0 0 0 0 -0 -0 -1 -1 -1 -1 -2 -2 -2 -2 -2
-1 -1 -1 -0 -0 0 -0 0 0 0 0 0 0 1 1 1 1 1 1 1 0 0 1 0 -0 -1 -0 0 0 -0 -0 -0 -0 -0 -0 -0 -1 -1 -1 -1 -1 -1 -1
-1 -1 -1 -0 -0 -0 -0 -0 -0 -0 -0 -0 -0 0 0 0 0 0 0 -0 -0 0 -0 -1 -1 -1 -0 -0 -0 -0 -0 -0 -0 -1 -1 -1 -1 -1 -1 -1 -1 -1 -1
-2 -1 -1 -0 0 0 0 -0 -0 -0 -1 -1 -0 -0 -1 -1 -1 -1 -1 -1 -1 -1 -1 -1 -1 -1 -1 -1 -1 -1 -1 -1 -1 -1 -1 -1 -1 -2 -2 -1 -1 -1 -1
-2 -2 -1 -1 -0 0 0 -0 -0 -1 -0 -0 -1 -1 -1 -1 -1 -1 -1 -1 -1 -1 -1 -1 -1 -1 -1 -1 -1 -1 -1 -1 -1 -2 -2 -2 -2 -2 -2 -2 -2 -2 -2
-3 -3 -2 -1 -0 -0 -0 -0 -0 -0 -1 -1 -1 -2 -2 -2 -1 -1 -2 -2 -2 -2 -2 -2 -2 -2 -2 -2 -2 -2 -2 -2 -2 -2 -2 -3 -3 -3 -2 -2 -2 -2 -3
-3 -3 -3 -2 -1 -0 -0 -0 -1 -1 -1 -1 -1 -2 -2 -2 -2 -2 -2 -2 -2 -2 -2 -2 -2 -2 -2 -2 -2 -3 -3 -3 -3 -3 -3 -3 -3 -3 -3 -3 -3 -3 -4
-3 -3 -3 -2 -1 -1 -1 -1 -1 -1 -1 -2 -2 -2 -2 -2 -2 -2 -2 -3 -3 -3 -3 -3 -3 -3 -3 -3 -3 -3 -3 -3 -3 -4 -4 -4 -4 -3 -3 -3 -4 -4 -5
-3 -3 -3 -3 -2 -2 -2 -2 -2 -2 -2 -2 -2 -2 -2 -2 -2 -3 -3 -3 -3 -3 -3 -3 -3 -3 -3 -4 -4 -4 -4 -4 -4 -4 -4 -4 -4 -4 -4 -4 -5 -5 -6
-2 -2 -2 -2 -2 -2 -2 -2 -2 -2 -2 -2 -2 -2 -3 -3 -3 -3 -3 -3 -3 -3 -3 -4 -4 -4 -4 -4 -4 -4 -4 -5 -5 -5 -5 -5 -5 -4 -5 -5 -5 -6 -7

GFSMW_700_temp_075.txt.gz
Temp
5 5 5 5 6 6 6 7 6 6 6 6 6 6 6 6 6 6 6 6 6 5 5 5 5 5 5 4 4 4 4 4 4 3 4 3 3 3 3 3 3 3 3
5 5 5 5 5 6 6 6 6 6 6 6 6 6 6 6 6 6 5 5 5 5 5 5 5 5 5 4 4 4 4 4 4 3 3 3 3 3 2 3 3 3 2
5 5 5 5 5 5 5 5 5 6 6 6 6 6 6 6 6 6 6 5 6 5 5 5 5 4 4 4 4 4 4 4 4 3 3 3 3 2 3 2 2 2 2
5 5 5 5 5 5 5 5 5 6 5 6 6 6 6 6 6 6 6 5 5 5 5 5 4 4 4 4 4 4 4 4 4 3 3 3 2 2 2 2 2 2 1
5 5 5 5 5 4 4 5 5 5 6 6 6 6 6 6 6 6 6 6 5 5 4 4 4 4 4 4 3 3 3 3 3 3 3 2 2 2 2 2 2 2 1
4 5 4 4 4 4 4 4 5 5 5 6 6 6 5 5 5 5 5 5 5 5 5 5 5 4 4 4 3 3 3 3 3 2 2 2 2 2 1 1 1 1 1
4 4 4 4 4 4 4 4 5 5 5 5 5 5 5 5 4 4 4 4 4 5 5 5 4 4 4 4 3 3 3 2 2 2 2 2 1 1 1 1 1 0 0
4 4 3 3 3 3 4 4 4 4 4 4 4 4 4 4 4 4 4 4 4 4 4 4 4 4 4 3 3 3 2 2 2 2 1 1 1 1 0 -0 -0 -0 -1
3 3 3 2 2 3 3 3 3 3 3 3 3 3 3 3 4 4 4 4 4 4 3 3 3 3 3 3 3 2 2 2 2 2 2 2 2 1 1 0 -1 -1 -1
3 3 2 2 2 2 2 2 2 2 3 3 3 3 3 3 4 4 4 4 4 4 3 3 3 3 3 3 2 2 2 3 2 2 2 2 1 1 0 -1 -1 -1 -1
2 2 2 2 2 1 1 2 2 2 2 3 3 3 3 4 4 4 4 4 4 4 4 4 3 3 3 3 3 3 3 3 2 2 2 2 1 1 -0 -0 -0 -1 -1
1 1 1 1 1 1 1 1 1 2 2 2 3 3 3 3 3 3 3 3 3 3 4 3 3 3 3 3 3 3 3 2 2 2 2 2 1 1 0 0 -0 -1 -1
0 0 0 0 0 0 1 1 1 1 2 2 2 3 3 3 3 3 3 3 3 3 3 3 3 2 2 2 2 2 2 2 2 2 2 2 1 1 0 -0 -1 -1 -2
-0 -0 -0 0 0 0 0 0 1 1 2 2 2 2 2 2 2 2 2 2 2 2 2 2 2 2 2 2 2 2 2 2 2 2 2 1 1 0 -0 -0 -1 -1 -2
-0 -0 -0 -0 -0 -0 -0 0 0 1 1 1 1 1 2 2 2 2 2 2 2 2 2 2 2 2 2 1 1 1 1 1 1 1 1 0 -0 -0 -0 -1 -1 -1 -1
-1 -1 -0 -0 -1 -0 -0 -0 -0 0 0 0 0 1 1 1 2 2 2 2 2 1 2 1 1 1 1 1 1 1 0 1 1 1 1 1 0 0 0 0 -0 -0 -1
-1 -1 -1 -1 -1 -0 -0 -0 -0 -0 -0 -0 0 1 1 1 2 2 2 1 1 1 1 1 1 0 -0 0 0 0 0 1 1 1 0 0 -0 -0 -0 -1 -1 -0 -1
-1 -1 -1 -1 -1 -0 -0 -0 -0 -0 -0 -0 -0 0 1 1 1 1 1 1 1 1 1 0 -0 -1 -0 0 0 0 0 0 0 -0 -0 -0 -1 -1 -1 -1 -1 -1 -1
-1 -1 -1 -1 -1 -0 -0 0 -0 -1 -1 -1 -0 -0 0 1 1 1 1 1 0 0 0 -1 -1 -0 -0 -0 -0 -0 -0 -0 -0 -1 -1 -1 -1 -1 -1 -1 -1 -1 -1
-1 -2 -2 -1 -1 -1 -0 0 0 -0 -1 -1 -1 -0 0 0 0 0 -0 -1 -0 -1 -1 -1 -1 -1 -1 -1 -1 -1 -1 -1 -1 -1 -1 -1 -1 -2 -2 -2 -2 -2 -2
-2 -2 -2 -2 -1 -1 -0 -0 -0 -1 -1 -1 -1 -1 -1 -1 -1 -1 -1 -1 -1 -1 -1 -1 -1 -1 -1 -1 -1 -1 -1 -1 -1 -2 -2 -2 -2 -2 -2 -2 -2 -2 -2
-2 -3 -3 -2 -2 -1 -1 -0 -1 -0 -0 -1 -1 -1 -1 -1 -2 -2 -2 -1 -1 -1 -2 -2 -2 -2 -2 -2 -2 -2 -2 -2 -2 -2 -2 -3 -3 -3 -3 -3 -3 -3 -2
-2 -2 -3 -3 -2 -1 -1 -1 -1 -1 -1 -1 -1 -1 -2 -2 -2 -2 -2 -2 -2 -2 -2 -2 -2 -2 -2 -2 -2 -2 -2 -2 -3 -3 -3 -3 -3 -3 -3 -3 -3 -3 -3
-2 -3 -2 -3 -3 -2 -2 -1 -1 -1 -1 -1 -1 -1 -2 -2 -2 -2 -2 -2 -2 -2 -2 -2 -2 -2 -2 -3 -3 -3 -3 -3 -4 -4 -4 -4 -4 -4 -4 -4 -4 -4 -4
-2 -3 -3 -3 -3 -3 -2 -2 -2 -2 -2 -2 -2 -2 -2 -2 -2 -2 -2 -3 -3 -3 -3 -3 -3 -3 -3 -3 -3 -3 -4 -4 -4 -4 -4 -4 -4 -4 -4 -4 -4 -4 -4
-2 -3 -3 -3 -3 -3 -3 -2 -2 -2 -2 -2 -2 -2 -2 -2 -3 -3 -3 -3 -3 -3 -3 -3 -3 -3 -3 -4 -4 -4 -4 -4 -5 -5 -5 -5 -5 -5 -5 -5 -5 -5 -5

GFSMW_700_temp_081.txt.gz
Temp
4 4 5 5 6 5 6 6 7 6 7 7 6 6 6 6 6 6 6 6 6 5 5 5 5 5 5 5 5 5 4 4 4 4 4 4 4 4 3 3 3 3 3
3 3 4 5 5 5 5 6 6 6 6 6 6 6 6 6 6 6 6 6 6 5 5 5 5 5 5 5 5 5 5 5 4 4 4 4 5 4 4 4 3 3 2
3 3 3 4 4 5 5 5 5 5 6 6 6 6 6 6 6 6 6 6 6 6 6 6 5 5 5 5 5 5 5 5 5 4 4 4 4 4 4 4 4 3 3
3 3 3 3 4 4 4 4 5 5 5 5 5 6 6 6 6 6 6 6 6 6 6 6 6 6 5 5 5 5 5 5 5 4 4 3 3 3 3 4 4 3 3
3 3 3 3 4 4 4 4 4 5 5 5 5 5 5 5 6 6 6 6 6 6 6 5 5 5 5 5 5 4 4 4 4 4 4 3 3 3 3 3 2 2 2
3 4 4 4 4 4 4 4 4 4 4 4 4 5 5 5 5 6 6 6 6 6 6 5 5 5 5 5 4 4 4 4 4 4 3 3 3 3 2 2 2 2 2
4 3 3 3 4 4 4 4 4 4 4 4 4 4 5 5 5 5 5 5 5 5 5 5 5 4 4 4 4 4 3 3 3 3 2 2 2 2 2 2 2 2 2
3 4 4 3 3 3 3 3 3 3 4 4 4 4 5 5 5 5 5 5 5 4 4 4 4 4 4 4 4 3 3 3 3 3 2 2 2 2 2 2 2 2 2
3 3 3 3 3 3 3 3 3 3 3 4 4 4 5 5 5 4 4 4 4 4 4 4 4 4 4 4 4 3 3 3 3 2 2 2 2 2 2 2 1 1 1
3 3 3 3 3 3 2 2 2 2 3 3 3 3 3 4 4 3 3 3 4 4 4 4 4 4 4 4 4 3 3 3 2 2 2 3 2 2 2 2 2 1 1
3 2 3 3 3 1 1 1 1 2 2 2 2 2 3 2 3 3 3 3 3 3 4 4 4 4 4 4 4 3 3 2 2 2 2 2 2 2 2 2 2 1 1
2 2 2 1 0 0 0 1 1 1 2 1 1 2 2 2 2 2 3 3 3 3 3 4 4 3 3 3 3 3 3 2 2 2 2 2 2 2 2 2 2 1 1
2 2 1 0 -0 -0 0 0 0 0 0 1 1 1 2 2 2 2 3 3 3 3 3 3 3 3 3 2 2 2 2 2 2 2 2 2 2 2 2 1 1 1 0
2 1 1 0 0 -0 -0 -0 -0 0 0 0 1 1 1 2 2 2 2 2 2 3 2 3 2 2 2 2 2 2 2 2 2 2 2 2 2 1 1 1 1 1 1
1 1 0 -0 -0 -1 -1 -1 -1 -1 -0 0 1 0 1 1 1 2 2 2 2 2 2 2 2 1 1 2 1 1 1 1 1 1 1 1 1 1 1 1 0 0 0
-0 0 -0 -1 -1 -1 -1 -1 -1 -1 -1 -0 0 0 0 0 0 1 1 1 2 2 1 1 1 1 1 1 1 1 0 0 0 1 1 1 1 1 0 0 -0 -0 -0
-0 -0 -1 -1 -1 -1 -1 -1 -1 -1 -1 -0 -0 0 0 -0 -0 -0 0 1 1 1 1 1 1 0 0 0 -0 -0 -0 0 0 0 0 0 0 -0 -0 -0 -0 -0 -1
-0 -1 -1 -1 -1 -1 -1 -1 -1 -1 -1 -1 -1 -1 -1 -1 -1 -1 -0 0 1 1 1 0 0 -0 -0 -1 -1 -1 -0 -0 -0 -0 -0 -0 -1 -1 -1 -1 -1 -1 -1
-1 -1 -2 -2 -2 -1 -1 -1 -1 -1 -1 -1 -1 -1 -1 -1 -1 -1 -1 -0 0 0 -0 -0 -1 -1 -1 -2 -1 -1 -1 -1 -0 -0 -1 -1 -1 -1 -1 -1 -1 -2 -2
-1 -1 -2 -2 -2 -2 -2 -2 -2 -1 -1 -1 -1 -1 -1 -2 -2 -1 -1 -1 -1 -1 -1 -1 -1 -2 -2 -1 -1 -1 -1 -1 -1 -1 -1 -1 -1 -2 -2 -2 -2 -2 -2
-1 -1 -2 -2 -2 -2 -2 -2 -2 -1 -1 -1 -1 -1 -1 -2 -2 -2 -2 -1 -1 -1 -2 -2 -2 -2 -2 -2 -1 -1 -1 -1 -1 -1 -2 -2 -2 -2 -2 -2 -3 -3 -3
-1 -2 -2 -2 -3 -3 -3 -2 -2 -1 -1 -1 -1 -1 -2 -2 -3 -3 -2 -2 -2 -2 -2 -2 -2 -2 -2 -2 -2 -2 -2 -2 -2 -2 -2 -2 -3 -3 -3 -3 -3 -3 -4
-2 -2 -2 -3 -3 -3 -3 -3 -2 -2 -1 -1 -2 -2 -2 -2 -2 -2 -2 -3 -3 -3 -3 -3 -3 -3 -2 -2 -2 -2 -2 -2 -3 -3 -3 -3 -3 -3 -3 -4 -4 -4 -4
-3 -2 -3 -3 -3 -3 -3 -3 -3 -2 -2 -2 -1 -1 -2 -2 -2 -3 -3 -3 -3 -3 -3 -3 -3 -3 -3 -3 -3 -3 -3 -3 -3 -3 -3 -4 -4 -4 -4 -4 -4 -5 -5
-3 -3 -3 -3 -3 -3 -4 -4 -3 -3 -2 -2 -2 -1 -2 -2 -2 -3 -3 -3 -3 -3 -3 -3 -3 -3 -3 -3 -3 -3 -3 -4 -4 -4 -4 -4 -4 -4 -4 -5 -5 -5 -5
-3 -3 -3 -3 -3 -3 -3 -3 -3 -3 -3 -2 -2 -2 -2 -2 -2 -3 -3 -3 -3 -3 -3 -3 -3 -3 -3 -3 -4 -4 -4 -4 -4 -4 -4 -4 -5 -5 -5 -5 -5 -5 -6

GFSMW_700_temp_084.txt.gz
Temp
4 5 5 5 5 5 5 6 6 6 6 6 7 7 7 6 6 6 6 6 6 6 6 6 5 5 5 5 5 5 5 5 4 4 5 4 4 4 4 4 4 3 3
4 4 5 5 5 5 5 5 5 5 5 6 6 6 6 6 6 6 6 6 6 6 6 6 5 5 5 5 5 4 4 5 5 4 4 5 5 4 4 4 4 3 3
3 4 4 5 5 5 4 5 5 4 5 5 5 6 6 6 6 6 6 6 6 6 6 6 6 5 5 5 5 5 5 5 4 4 4 4 4 4 4 4 4 4 3
3 3 4 4 4 4 4 4 4 4 5 5 5 5 6 6 6 6 6 6 6 6 6 6 6 6 6 5 5 5 5 5 4 5 4 4 4 3 4 4 3 3 3
3 3 3 3 4 4 4 4 4 4 4 5 5 5 5 5 6 6 6 6 6 6 6 6 6 6 6 5 5 5 5 4 4 4 4 4 4 3 3 3 3 2 2
2 3 3 3 3 3 4 4 4 4 4 4 5 5 5 5 5 5 5 6 6 6 6 6 6 6 5 5 5 4 4 4 4 4 3 3 3 3 3 2 2 2 2
1 1 2 3 3 4 4 4 4 4 5 4 4 4 4 4 5 5 5 5 6 6 6 6 6 5 5 5 4 4 4 4 4 4 3 3 3 2 2 2 2 2 2
2 3 2 2 2 3 3 3 3 3 3 4 4 4 4 4 4 5 5 5 5 5 5 5 5 5 4 4 4 4 4 4 4 3 3 2 2 2 2 1 1 1 2
3 3 2 2 4 4 3 3 3 3 3 3 3 3 4 4 4 5 5 5 5 5 4 4 4 4 4 4 4 4 4 4 3 3 2 2 2 2 1 1 2 2 2
3 3 3 3 4 4 3 2 3 3 3 3 3 3 3 4 4 4 4 4 4 4 4 4 4 4 4 4 4 4 4 4 3 3 3 2 2 2 2 2 2 2 2
3 3 3 3 3 3 3 2 2 2 2 2 2 3 3 3 3 3 3 3 3 3 3 4 4 4 4 4 4 4 3 3 3 3 2 2 2 2 2 2 2 2 2
3 3 3 2 2 2 2 2 1 1 1 1 2 2 2 2 2 2 2 3 3 3 3 3 3 4 4 3 3 3 3 3 3 2 2 2 2 2 2 2 1 1 1
2 2 2 3 2 2 1 0 0 0 1 1 1 1 1 1 1 2 2 2 2 3 3 3 3 3 3 3 3 3 2 2 2 2 2 1 1 1 1 1 1 1 1
1 2 2 1 1 1 0 -0 0 0 0 0 0 0 1 1 1 1 1 2 2 2 2 2 2 2 3 3 2 2 2 2 1 1 1 1 1 1 1 1 1 1 1
0 1 1 1 1 0 0 0 -0 -0 -0 -0 0 0 1 0 1 1 1 1 1 1 2 2 2 2 2 2 1 1 1 1 1 1 1 1 1 1 1 1 1 0 0
-0 0 0 0 0 -0 -1 -1 -1 -1 -1 -0 -0 0 0 0 0 1 1 1 1 1 1 1 1 1 1 1 1 0 0 0 0 0 0 1 1 1 0 0 0 -0 -0
-0 -0 -0 -0 -0 -1 -1 -1 -1 -1 -0 -1 -0 -0 0 0 0 -0 -0 0 -0 -0 0 1 1 1 1 0 -0 -0 -0 -0 -0 0 0 0 -0 -0 -0 -0 -0 -1 -1
0 0 0 -1 -1 -1 -1 -1 -1 -1 -1 -1 -1 -1 -0 0 -0 -1 -1 -1 -1 -1 -0 0 0 0 -0 -0 -0 -1 -1 -1 -0 -0 -0 -0 -0 -0 -1 -1 -1 -1 -1
-0 0 -0 -1 -2 -2 -2 -1 -1 -1 -1 -1 -1 -1 -0 -0 -1 -1 -1 -1 -1 -1 -1 -0 -0 -1 -1 -1 -1 -1 -1 -1 -1 -1 -1 -1 -1 -1 -1 -1 -1 -1 -1
-0 -0 -1 -1 -2 -2 -2 -2 -2 -2 -2 -1 -1 -1 -0 -1 -1 -1 -2 -2 -2 -1 -1 -1 -1 -1 -2 -2 -2 -1 -1 -1 -1 -1 -1 -1 -1 -1 -2 -2 -2 -2 -2
0 -0 -1 -1 -2 -2 -2 -2 -2 -2 -2 -1 -1 -1 -1 -1 -2 -2 -2 -3 -2 -2 -2 -2 -2 -2 -3 -2 -2 -2 -2 -2 -2 -2 -2 -2 -2 -2 -2 -2 -2 -2 -3
-1 -1 -1 -2 -2 -2 -2 -2 -2 -2 -2 -1 -1 -1 -2 -2 -2 -2 -3 -3 -3 -2 -2 -3 -3 -3 -3 -2 -2 -2 -2 -2 -2 -2 -2 -2 -2 -3 -3 -3 -3 -3 -3
-1 -2 -2 -2 -2 -2 -2 -3 -3 -3 -2 -2 -2 -1 -2 -2 -2 -2 -3 -3 -3 -3 -3 -3 -3 -3 -3 -3 -2 -2 -2 -2 -2 -3 -3 -3 -3 -3 -3 -3 -4 -4 -4
-2 -2 -2 -2 -2 -3 -3 -3 -3 -3 -3 -2 -2 -2 -2 -2 -2 -2 -3 -3 -3 -3 -4 -3 -3 -3 -3 -3 -3 -3 -3 -3 -3 -3 -3 -3 -4 -4 -4 -4 -4 -4 -4
-3 -2 -3 -3 -3 -3 -3 -3 -4 -4 -3 -3 -2 -2 -2 -2 -2 -3 -3 -3 -3 -3 -3 -3 -3 -3 -3 -3 -3 -3 -3 -3 -3 -3 -4 -4 -4 -4 -4 -4 -5 -5 -5
-3 -3 -3 -3 -3 -3 -3 -3 -3 -3 -3 -3 -3 -3 -2 -2 -2 -2 -3 -3 -3 -3 -3 -3 -4 -4 -4 -4 -4 -4 -4 -4 -4 -4 -4 -4 -4 -5 -5 -5 -5 -5 -5

GFSMW_700_temp_087.txt.gz
Temp
4 5 6 6 6 6 6 6 6 6 6 6 6 6 6 6 6 6 6 6 6 6 6 6 6 6 6 5 5 5 5 5 4 5 4 4 5 5 4 5 4 4 3
4 5 5 6 6 5 5 5 5 5 5 6 6 6 6 6 6 6 6 6 6 6 6 6 6 6 6 5 5 5 5 5 4 4 4 4 5 4 4 5 4 3 3
4 4 5 5 5 5 5 5 5 5 5 5 5 5 5 5 5 5 6 6 6 6 6 6 6 6 6 6 5 5 5 5 4 4 4 4 4 4 4 4 4 3 3
4 3 5 6 5 5 5 5 5 5 5 5 5 5 4 4 4 5 5 5 6 6 6 6 6 6 6 6 5 5 5 4 5 4 4 4 3 3 4 3 4 3 3
5 3 3 5 5 5 4 5 4 4 4 4 4 4 3 4 4 4 5 5 5 5 5 6 6 6 6 6 5 5 5 4 4 4 4 3 3 4 3 3 3 3 3
3 1 2 3 4 4 4 4 4 4 4 4 4 4 4 4 4 4 4 5 5 5 5 6 6 6 6 6 6 5 5 5 4 4 4 3 3 3 3 3 3 2 2
2 2 2 3 3 4 3 4 3 3 3 4 4 4 4 4 4 4 4 5 5 5 5 6 6 6 6 6 5 5 4 4 4 4 3 3 3 3 2 2 2 2 1
3 3 2 2 2 3 3 3 2 2 3 3 3 3 3 4 4 4 4 4 5 5 5 5 5 5 5 5 4 4 4 4 4 4 3 3 3 2 2 1 1 1 1
3 3 3 1 2 3 3 2 2 2 3 2 2 3 3 4 3 3 4 4 5 5 5 5 5 5 5 4 4 4 4 4 3 3 3 3 2 2 2 1 1 1 2
3 3 3 2 1 1 1 2 2 2 2 3 3 3 3 3 3 3 3 4 4 5 5 5 4 4 4 4 4 4 4 4 3 3 3 3 2 2 2 1 2 1 1
3 3 2 2 1 1 1 1 0 1 2 2 3 2 2 3 3 3 3 4 4 4 4 4 3 3 3 3 3 3 3 3 3 3 3 2 2 2 2 1 2 1 2
3 3 3 3 2 2 2 2 3 2 2 2 2 2 2 2 2 2 2 3 3 3 3 3 3 3 3 3 3 3 3 3 3 3 2 2 2 2 2 1 1 1 1
2 2 2 2 2 2 2 2 2 2 1 1 1 1 1 1 2 2 2 2 2 2 2 2 2 3 3 3 3 3 2 2 2 2 2 2 1 1 1 1 1 1 1
2 2 2 2 2 2 2 2 1 1 1 0 1 1 1 1 1 1 1 1 1 2 2 2 2 2 2 2 2 2 2 2 1 1 1 1 1 1 1 1 1 1 1
2 2 1 2 1 1 1 1 1 1 0 0 1 1 1 1 1 1 1 1 1 1 2 2 2 2 2 2 2 2 1 1 1 1 1 0 0 0 0 1 1 1 1
0 1 1 1 1 1 1 0 -0 0 0 -0 -0 -0 -0 0 0 1 1 1 1 1 1 1 1 1 1 1 1 1 0 0 0 0 0 -0 0 0 0 0 0 0 0
0 0 0 0 0 0 -0 -0 -0 -0 -0 -1 -1 -1 -0 -0 -0 0 -0 0 1 0 0 0 0 1 1 1 0 0 -0 -0 -0 -0 -0 -0 -0 -0 -0 -0 0 -0 -0
-0 -0 -0 -0 -0 -0 -1 -1 -1 -1 -1 -1 -1 -1 -1 -0 -0 -0 0 -0 -0 -0 -1 -1 -1 -0 0 0 0 -1 -1 -1 -1 -1 -0 -0 -0 -1 -0 -0 -0 -1 -1
-0 -1 -0 0 0 -0 -1 -1 -1 -1 -1 -1 -1 -1 -1 -1 -1 -0 -0 -0 -1 -1 -1 -1 -1 -1 -1 -1 -1 -1 -2 -2 -1 -1 -1 -1 -1 -1 -1 -1 -1 -1 -1
-0 -0 -0 0 0 -0 -1 -1 -1 -1 -1 -1 -1 -1 -1 -1 -1 -0 -1 -1 -1 -1 -2 -2 -1 -1 -1 -1 -2 -2 -2 -2 -1 -1 -1 -1 -1 -1 -1 -1 -2 -2 -2
0 0 -0 0 -1 -1 -1 -1 -1 -2 -2 -1 -1 -1 -1 -1 -1 -1 -1 -1 -2 -2 -2 -2 -2 -2 -2 -2 -3 -3 -2 -2 -2 -2 -2 -2 -2 -2 -2 -2 -2 -2 -2
0 -1 -1 -1 -1 -1 -2 -2 -2 -2 -2 -2 -2 -2 -1 -1 -1 -1 -1 -2 -2 -2 -3 -3 -2 -2 -3 -3 -3 -3 -2 -2 -2 -2 -2 -2 -2 -2 -2 -3 -3 -3 -3
-1 -1 -1 -1 -2 -2 -2 -2 -2 -2 -3 -3 -2 -2 -2 -2 -1 -1 -2 -2 -2 -3 -3 -3 -3 -3 -4 -3 -3 -3 -2 -2 -2 -2 -2 -2 -3 -3 -3 -3 -3 -3 -4
-2 -2 -2 -2 -2 -2 -2 -2 -3 -3 -3 -3 -3 -2 -2 -2 -2 -2 -2 -2 -3 -3 -3 -3 -4 -4 -4 -3 -3 -3 -3 -3 -3 -3 -3 -3 -3 -3 -3 -4 -4 -4 -4
-3 -3 -3 -3 -3 -3 -3 -3 -3 -3 -3 -4 -3 -3 -2 -2 -2 -2 -2 -3 -3 -3 -3 -3 -4 -4 -3 -3 -3 -3 -3 -3 -3 -3 -3 -3 -3 -4 -4 -4 -4 -4 -4
-3 -3 -3 -3 -3 -3 -3 -3 -3 -3 -4 -4 -3 -3 -3 -3 -2 -2 -2 -3 -3 -3 -3 -4 -4 -4 -4 -4 -4 -4 -4 -4 -4 -4 -4 -4 -4 -4 -4 -5 -5 -5 -5

GFSMW_700_temp_090.txt.gz
Temp
4 6 6 6 6 6 7 7 7 7 7 7 7 7 7 7 7 7 7 6 6 6 6 6 6 6 6 6 6 6 6 5 5 5 5 5 5 5 5 5 4 4 3
4 4 6 6 6 6 6 6 6 6 7 7 7 6 6 5 5 5 6 6 5 6 5 6 6 6 6 6 5 5 5 5 5 5 5 5 5 4 4 4 4 3 3
4 4 4 5 6 6 6 6 6 6 6 6 6 6 5 4 4 4 5 5 5 5 5 5 5 5 5 5 5 5 5 5 5 5 4 4 4 4 4 3 3 3 3
5 4 4 4 6 6 6 6 6 6 6 6 6 5 5 4 3 4 4 3 3 5 5 5 5 5 5 5 5 5 5 5 5 5 5 4 3 3 3 3 3 3 3
5 5 4 4 4 6 6 5 6 5 5 5 5 5 5 4 4 4 4 2 3 4 5 5 5 5 5 5 5 5 5 5 5 5 5 4 4 4 3 3 3 2 3
5 5 4 4 3 5 6 6 6 5 5 4 5 5 4 4 4 4 3 3 4 4 4 5 5 5 5 6 6 6 6 5 5 5 4 4 4 3 3 3 2 2 2
3 4 3 4 4 4 4 3 4 4 4 4 4 5 4 4 4 4 4 4 4 4 4 4 5 5 5 6 6 6 5 5 5 4 4 3 3 3 2 2 2 1 1
2 2 3 3 4 3 2 2 3 3 3 3 3 3 4 3 3 3 4 4 4 4 4 4 5 5 5 5 5 5 5 5 4 4 4 3 3 3 3 2 1 1 1
2 2 1 2 2 2 2 2 2 2 3 3 3 3 3 3 3 3 3 3 3 4 4 4 4 5 5 5 5 4 5 4 4 4 3 3 3 3 3 2 2 2 1
2 2 3 2 2 2 2 1 0 1 1 2 1 2 2 2 1 2 3 3 3 3 4 4 4 4 4 4 4 4 4 4 3 3 3 3 3 3 3 2 2 1 1
3 2 3 3 2 2 3 2 0 0 0 1 0 -0 0 1 2 3 3 3 3 3 3 3 3 3 3 3 3 3 3 3 3 3 3 3 3 3 2 2 2 1 1
2 2 2 2 2 2 2 2 -0 0 -0 -0 1 0 -1 -0 2 2 2 2 2 2 3 3 3 3 2 2 2 3 3 3 3 3 3 3 2 2 2 1 1 1 1
2 2 2 2 2 2 2 2 1 0 0 1 1 1 -0 -0 1 2 2 3 2 2 2 2 2 2 2 2 2 2 2 2 2 2 2 2 2 2 1 1 1 1 1
2 2 2 2 2 2 1 1 1 1 1 1 1 0 0 1 1 1 1 1 1 1 2 2 2 2 2 2 2 2 2 2 2 2 2 2 1 1 0 1 1 0 1
0 2 2 2 2 2 2 2 2 1 1 1 0 -0 -0 0 0 1 1 1 1 1 1 2 2 2 2 2 2 1 1 2 2 1 1 1 1 0 0 0 0 0 0
-1 0 1 2 2 1 2 2 1 1 0 -0 -0 -0 -0 -0 -0 -0 0 0 0 0 1 1 1 2 1 1 1 1 1 1 1 1 1 0 -0 -0 -0 -0 0 -0 -0
0 1 1 2 1 1 1 1 0 0 -0 -0 -0 -0 -1 -1 -0 -0 -0 0 0 0 0 1 1 1 1 1 0 0 0 0 0 -0 -0 -0 -1 -1 -0 -0 -0 -1 -1
1 1 1 1 -0 -0 0 0 0 -0 -0 -0 -1 -1 -1 -1 -0 -1 -0 -0 -0 0 0 0 -0 -0 -0 -0 -0 -0 -0 -0 -1 -1 -1 -1 -1 -1 -1 -1 -1 -1 -1
1 1 0 -0 -0 -1 -0 0 -0 -0 -1 -1 -1 -1 -1 -1 -1 -1 -1 -0 -0 -0 -0 -0 -1 -1 -1 -1 -1 -1 -1 -2 -2 -2 -2 -1 -1 -1 -1 -1 -1 -1 -1
-0 0 1 0 -0 -0 -0 -0 -1 -1 -1 -2 -2 -1 -1 -1 -1 -1 -1 -0 -0 -0 -1 -1 -1 -2 -2 -2 -2 -2 -2 -2 -2 -2 -2 -2 -2 -2 -1 -1 -2 -2 -2
-0 -0 0 -0 -1 -0 -0 -1 -1 -2 -2 -2 -2 -2 -2 -1 -1 -1 -1 -1 -1 -1 -1 -2 -2 -3 -2 -2 -3 -2 -3 -3 -3 -2 -2 -2 -2 -2 -2 -2 -2 -2 -2
-1 -0 -0 -1 -1 -1 -1 -2 -2 -2 -2 -2 -2 -2 -2 -2 -2 -2 -1 -1 -2 -2 -2 -2 -3 -3 -3 -3 -3 -3 -4 -4 -3 -3 -2 -2 -2 -2 -2 -2 -2 -3 -3
-2 -1 -1 -2 -2 -2 -2 -2 -2 -2 -2 -2 -2 -3 -3 -2 -2 -2 -2 -2 -2 -2 -2 -3 -4 -4 -4 -4 -3 -4 -4 -3 -3 -3 -3 -2 -2 -2 -3 -3 -3 -3 -3
-3 -2 -2 -2 -2 -2 -2 -2 -2 -3 -3 -3 -3 -3 -3 -3 -3 -2 -2 -2 -2 -2 -2 -3 -4 -4 -4 -4 -4 -4 -4 -3 -3 -3 -3 -3 -3 -3 -3 -3 -4 -4 -4
-3 -3 -3 -3 -3 -3 -3 -3 -3 -3 -3 -3 -3 -3 -4 -3 -3 -3 -2 -2 -2 -2 -3 -3 -3 -4 -5 -4 -4 -4 -4 -3 -3 -3 -3 -3 -3 -4 -4 -4 -4 -4 -4
-4 -4 -4 -3 -3 -3 -3 -3 -3 -3 -3 -3 -3 -3 -3 -3 -3 -3 -3 -2 -2 -2 -3 -3 -4 -4 -4 -4 -4 -4 -4 -4 -4 -4 -4 -4 -4 -4 -4 -4 -5 -5 -5

GFSMW_700_temp_093.txt.gz
Temp
6 6 6 6 7 7 6 7 7 6 7 8 8 8 8 7 7 7 7 7 7 7 6 6 6 6 6 6 6 6 6 6 6 6 6 6 5 5 4 4 4 4 4
4 6 6 5 5 6 7 7 6 6 6 7 7 7 7 7 6 6 6 5 5 5 5 5 5 5 5 5 6 6 6 6 6 6 6 6 6 5 5 5 4 4 4
4 5 5 6 6 6 6 6 6 6 6 6 6 6 6 6 6 5 5 4 4 3 3 4 3 4 5 5 5 5 5 5 5 5 5 5 6 5 4 4 4 3 3
4 4 4 6 6 6 6 5 6 6 6 6 6 6 5 5 5 5 4 4 4 4 4 4 3 3 4 5 5 5 5 5 5 6 5 5 5 4 4 3 4 3 3
3 4 4 5 6 6 6 6 6 6 6 5 6 5 5 5 5 4 4 4 4 3 3 3 3 3 4 4 5 5 5 5 6 5 5 5 5 4 3 3 4 3 2
4 4 4 4 4 5 5 5 5 5 5 5 5 5 5 4 4 4 4 4 4 3 3 2 2 3 4 4 5 5 5 5 5 5 5 5 4 4 4 3 3 2 2
3 4 4 4 4 4 4 5 4 4 5 4 4 5 5 5 4 3 3 4 3 3 4 3 3 4 4 4 5 5 5 5 5 5 5 4 4 3 3 3 3 1 1
3 2 4 4 4 4 3 3 4 4 4 4 4 4 4 3 3 1 3 3 3 3 3 3 3 4 4 4 5 5 5 5 5 4 4 4 3 3 3 2 2 1 2
3 3 2 3 2 2 3 2 2 3 3 3 3 3 3 3 2 2 2 2 2 2 2 2 1 3 4 4 4 5 5 5 4 4 4 3 3 3 3 2 3 2 2
3 2 2 2 2 3 3 2 1 2 2 2 2 2 2 2 2 2 2 1 1 1 1 1 1 3 3 3 4 4 4 4 4 4 3 3 3 3 3 3 2 2 2
3 3 2 2 2 2 2 2 1 1 1 2 2 1 1 1 1 1 0 0 1 1 0 2 2 3 3 3 3 3 3 3 3 3 3 3 3 3 2 2 2 2 1
3 3 2 2 2 2 2 2 1 1 1 1 1 0 -1 -1 -1 -0 1 -0 -1 -0 1 2 2 2 3 3 3 3 3 3 3 3 3 3 3 2 2 1 1 1 1
1 1 2 2 2 2 2 1 1 1 1 1 -0 -0 -1 -1 -1 -0 -1 -1 -0 -0 0 1 2 2 2 2 3 3 2 3 2 2 2 2 2 2 2 1 1 1 1
1 1 1 1 2 2 2 2 2 1 1 1 0 0 0 -1 -1 -1 -0 -0 -0 0 1 1 1 1 1 2 2 2 2 2 2 2 2 2 2 2 1 1 1 0 0
-1 0 1 1 1 1 2 2 2 1 1 1 0 0 0 -0 -1 -1 -0 -0 -0 0 0 1 1 1 1 1 1 2 1 2 1 1 1 1 1 1 0 0 0 -0 -0
-1 -1 0 1 1 1 1 2 2 2 1 1 1 0 -1 -1 -1 -1 -1 -1 -0 -0 0 0 0 0 1 1 1 1 1 1 1 1 1 1 0 0 0 -0 -0 -0 -0
-1 -1 -0 0 1 1 2 1 1 1 1 1 0 -0 -1 -1 -1 -1 -1 -1 -1 -1 -0 -0 0 0 0 0 1 0 1 0 0 0 -0 -0 -0 -1 -1 -1 -1 -0 -1
-0 -0 -0 0 1 1 1 0 0 1 1 0 -0 -1 -1 -1 -1 -1 -1 -1 -1 -1 -1 -0 -0 -0 -0 -0 -0 -0 -0 -1 -1 -1 -1 -1 -1 -1 -1 -1 -1 -1 -1
-1 -0 0 0 1 1 0 -1 -0 -0 -0 -1 -1 -1 -2 -2 -1 -1 -1 -1 -1 -1 -1 -1 -0 -0 -1 -1 -1 -1 -1 -1 -1 -1 -2 -2 -2 -2 -2 -2 -1 -1 -1
-1 -0 0 0 0 0 -0 -1 -1 -1 -1 -1 -2 -2 -2 -2 -2 -2 -2 -1 -1 -1 -1 -1 -1 -1 -1 -2 -2 -2 -2 -2 -2 -2 -3 -3 -2 -2 -2 -2 -2 -2 -2
-1 -0 -0 0 0 -0 -1 -1 -1 -1 -2 -2 -2 -2 -2 -2 -2 -2 -2 -2 -2 -1 -1 -1 -2 -2 -2 -3 -3 -3 -3 -3 -3 -3 -3 -3 -3 -3 -2 -2 -2 -2 -2
-1 -1 -0 -1 -1 -1 -1 -1 -1 -2 -2 -2 -2 -2 -2 -3 -3 -3 -3 -2 -2 -2 -1 -1 -2 -2 -3 -3 -3 -3 -3 -4 -3 -4 -3 -3 -3 -3 -3 -3 -3 -3 -3
-2 -1 -1 -1 -1 -2 -2 -2 -2 -2 -3 -3 -3 -3 -3 -3 -3 -3 -3 -3 -2 -2 -2 -2 -2 -3 -3 -4 -4 -4 -4 -4 -4 -5 -4 -3 -3 -3 -3 -3 -3 -3 -3
-3 -3 -3 -2 -2 -2 -2 -2 -3 -3 -3 -3 -3 -3 -3 -3 -3 -4 -3 -3 -3 -2 -2 -2 -3 -3 -4 -4 -4 -4 -4 -5 -6 -6 -5 -4 -4 -4 -4 -4 -4 -4 -4
-4 -3 -3 -3 -3 -3 -3 -3 -3 -3 -3 -3 -3 -3 -3 -3 -3 -3 -3 -3 -3 -2 -2 -2 -3 -3 -4 -4 -5 -5 -5 -5 -5 -4 -4 -4 -4 -4 -4 -4 -4 -4 -4
-4 -4 -4 -4 -4 -4 -4 -4 -4 -4 -3 -4 -3 -4 -4 -4 -4 -3 -3 -3 -3 -3 -3 -3 -3 -4 -4 -4 -5 -5 -5 -5 -4 -4 -4 -4 -4 -4 -4 -4 -4 -4 -5

GFSMW_700_temp_096.txt.gz
Temp
5 5 5 6 6 6 6 7 7 7 7 7 7 7 8 7 7 7 7 7 7 7 7 6 6 6 6 5 5 5 5 5 5 5 6 6 6 6 5 5 5 4 4
5 5 5 5 6 6 6 7 6 6 6 6 6 6 6 6 6 6 7 7 6 6 6 6 5 5 5 5 4 4 5 5 5 5 6 6 6 6 5 5 5 4 4
4 5 5 5 5 5 5 6 6 6 6 6 6 6 6 6 7 7 7 6 5 5 4 4 3 4 3 4 4 4 4 5 5 5 5 5 6 5 5 6 5 4 4
4 4 5 6 6 6 5 5 5 6 6 6 6 6 6 6 6 6 5 5 4 4 4 4 4 4 4 3 2 3 4 4 5 5 5 5 5 5 4 5 4 4 4
4 4 5 5 5 6 6 6 6 6 6 6 6 6 5 5 5 5 5 5 5 4 4 3 3 3 3 3 3 3 4 4 5 5 5 5 5 5 4 4 4 3 3
4 4 4 4 4 5 5 5 5 6 6 6 6 5 5 5 5 5 5 5 4 4 3 3 2 3 2 2 2 3 4 4 4 5 5 5 5 5 4 3 3 3 3
4 4 3 3 3 4 4 4 5 5 5 5 5 5 4 4 4 4 4 4 4 3 3 2 1 2 3 3 3 3 4 4 4 4 4 4 4 4 3 3 3 2 2
3 3 2 3 3 3 3 4 4 4 4 4 4 4 4 4 4 4 4 3 3 3 2 0 1 2 2 3 3 3 3 4 4 4 4 4 3 4 3 3 2 2 2
3 3 3 2 2 2 3 3 3 3 4 3 3 3 3 3 3 3 3 3 2 2 0 1 -0 1 2 2 2 2 2 3 4 4 4 4 3 3 3 3 2 2 2
3 3 3 3 2 2 2 2 2 2 3 2 2 2 2 2 2 2 2 2 1 1 -0 0 1 1 1 2 2 2 3 3 3 3 3 3 3 3 2 2 2 2 2
3 3 3 3 2 2 2 2 1 1 1 1 1 1 2 2 2 2 1 1 0 -0 0 1 1 1 1 1 0 2 2 2 2 3 3 3 2 2 2 2 2 2 2
2 2 2 3 2 2 2 2 2 1 1 0 1 1 1 1 1 0 1 -0 -1 -1 -1 -1 -0 -1 -1 -0 -0 1 1 2 2 2 2 2 2 2 2 2 2 1 1
1 2 2 2 2 2 2 2 2 1 1 0 0 1 1 1 0 -0 -1 -1 -1 -1 -1 -1 -0 -0 -0 0 1 1 1 2 2 2 2 2 2 2 1 1 1 1 1
1 1 1 1 1 1 1 2 2 2 2 1 0 0 0 0 -1 -1 -1 -1 -1 -1 -1 -1 -1 -0 0 0 0 1 1 1 1 2 2 1 1 1 1 1 1 1 0
0 1 1 1 1 1 1 1 2 2 2 1 1 0 -0 -0 -1 -1 -0 0 -1 -2 -2 -1 -0 -0 -0 0 -0 0 0 1 1 1 1 1 1 1 0 0 -0 -0 -0
-1 -1 -0 1 1 1 1 1 1 1 2 2 1 1 0 -0 -1 -1 -1 -2 -2 -1 -1 -1 -1 -0 -0 -0 -0 -0 0 1 1 1 0 0 0 0 -0 -0 -1 -1 -1
-1 -1 -0 0 0 1 1 1 1 1 1 1 1 0 -0 -1 -1 -1 -1 -1 -1 -1 -1 -1 -1 -1 -0 -0 -1 -0 -0 0 0 0 -0 -0 -0 -1 -1 -1 -1 -1 -2
-2 -1 -0 0 0 0 0 0 1 1 1 1 1 -0 -1 -1 -1 -1 -2 -2 -2 -2 -1 -1 -1 -1 -1 -1 -0 -0 -0 -0 -1 -1 -1 -1 -1 -2 -2 -2 -2 -2 -2
-1 -0 -0 0 0 1 0 -0 0 -0 -0 -0 -0 -1 -1 -1 -2 -2 -2 -2 -2 -1 -1 -1 -1 -1 -1 -1 -1 -1 -1 -1 -2 -2 -2 -2 -2 -2 -2 -2 -3 -3 -2
-1 -0 -0 0 0 0 0 -0 -1 -1 -1 -1 -1 -2 -2 -2 -2 -2 -2 -2 -2 -1 -1 -1 -1 -1 -1 -1 -1 -1 -2 -2 -2 -2 -2 -3 -3 -3 -3 -3 -3 -2 -2
-2 -1 -0 -0 -0 -0 -0 -1 -1 -2 -2 -2 -2 -2 -2 -2 -2 -2 -2 -2 -2 -2 -2 -2 -2 -2 -2 -2 -2 -2 -3 -3 -3 -3 -3 -4 -4 -4 -3 -3 -3 -3 -3
-1 -1 -0 -1 -1 -1 -1 -1 -2 -2 -2 -2 -2 -3 -3 -3 -3 -2 -2 -3 -3 -3 -2 -2 -2 -2 -2 -2 -2 -3 -3 -4 -4 -4 -4 -5 -4 -4 -4 -3 -3 -3 -2
-2 -2 -1 -1 -1 -2 -2 -2 -2 -2 -2 -2 -3 -3 -4 -3 -3 -3 -3 -3 -3 -3 -3 -2 -2 -2 -2 -2 -3 -4 -4 -4 -4 -5 -5 -6 -6 -5 -4 -4 -4 -3 -3
-3 -3 -2 -2 -2 -2 -2 -3 -2 -3 -3 -3 -3 -3 -3 -3 -3 -3 -3 -3 -3 -3 -3 -3 -2 -2 -2 -3 -3 -4 -4 -5 -5 -4 -5 -7 -7 -7 -6 -4 -4 -4 -4
-4 -4 -3 -3 -3 -3 -3 -3 -3 -3 -3 -3 -3 -3 -3 -4 -4 -4 -3 -3 -3 -3 -3 -3 -3 -3 -3 -3 -3 -4 -5 -5 -5 -6 -6 -7 -6 -5 -4 -4 -4 -4 -4
-4 -4 -4 -4 -4 -4 -4 -4 -4 -4 -4 -4 -4 -4 -4 -4 -4 -4 -4 -4 -4 -4 -3 -3 -3 -3 -3 -3 -4 -5 -5 -6 -6 -6 -6 -6 -5 -5 -5 -5 -4 -4 -5

GFSMW_700_temp_099.txt.gz
Temp
4 5 6 6 6 6 6 6 6 6 6 7 7 7 8 8 8 8 7 8 8 7 7 7 7 7 6 6 5 5 5 6 5 5 5 6 5 5 5 5 5 5 4
4 4 4 5 5 6 6 6 6 6 6 7 7 7 7 7 7 6 6 7 7 7 7 6 6 6 5 5 5 4 5 5 5 5 5 6 5 5 5 5 5 5 4
5 4 5 5 5 5 6 6 6 6 6 6 6 6 6 6 6 6 7 7 6 6 6 5 5 4 4 3 4 3 4 3 2 4 4 5 5 5 5 5 5 5 5
5 5 5 5 5 5 5 6 6 6 6 6 6 6 6 6 6 6 5 6 6 6 5 5 4 4 4 3 3 2 3 3 2 3 3 3 4 4 4 5 5 5 4
5 6 6 5 5 5 5 5 5 6 5 5 5 5 6 6 5 5 5 5 5 5 5 4 4 4 3 3 2 2 2 3 2 3 3 4 4 4 4 4 4 4 4
5 5 5 4 4 4 5 5 5 5 5 5 5 5 5 5 5 5 5 5 5 4 4 4 4 3 3 3 2 1 2 2 2 3 3 3 4 4 4 3 3 3 3
5 4 4 4 4 4 4 4 5 5 5 5 5 5 5 5 5 5 4 5 4 4 4 4 3 2 2 2 2 2 2 2 2 2 3 3 3 4 3 3 3 3 3
5 4 4 3 4 3 3 3 3 4 4 4 4 4 4 4 4 4 4 4 4 4 4 3 2 1 2 2 2 1 1 2 2 2 3 2 3 3 3 3 2 2 2
4 4 3 3 3 2 3 3 3 3 3 3 3 3 4 4 4 4 4 4 3 3 3 3 2 1 1 1 2 1 0 1 2 2 3 3 3 3 2 2 2 1 1
4 4 3 3 2 2 2 2 2 3 3 3 3 3 3 2 2 3 3 3 2 2 2 2 2 1 1 1 -0 -0 1 1 1 2 2 2 2 2 2 2 1 1 1
3 3 3 3 3 2 2 2 2 2 3 2 2 2 2 2 2 2 2 2 2 2 1 0 0 0 -0 -0 0 0 1 1 1 1 1 2 2 2 1 1 1 1 1
2 2 3 3 3 3 2 2 2 2 2 2 2 2 1 1 1 1 1 1 1 1 0 0 1 1 0 -0 0 -0 -0 -0 -0 0 1 1 1 1 1 1 1 1 1
1 2 1 2 2 2 1 1 1 1 1 2 2 2 1 1 1 1 1 0 -1 -0 -1 -1 -1 -1 -1 -1 -0 0 -0 -0 0 0 1 1 1 1 1 1 0 0 -0
1 1 1 1 1 1 1 1 1 1 2 2 1 1 0 0 0 0 0 -0 -0 -0 -1 -1 -1 -1 -1 -1 -1 -1 -0 0 0 1 1 1 1 1 1 0 0 0 -0
0 0 0 1 1 1 1 1 1 1 1 1 1 1 0 -0 -0 -0 -0 -1 -1 -1 -1 -1 -1 -1 -1 -1 -1 -1 -0 -0 -0 0 0 0 1 0 0 0 -0 -0 -1
-1 -0 0 0 0 0 1 1 1 1 1 1 1 1 1 0 0 -0 -0 -1 -1 -1 -1 -1 -1 -1 -1 -1 -1 -1 -0 -0 -0 0 -0 0 0 0 -0 -1 -1 -1 -1
-1 -1 -0 0 1 0 1 1 1 1 1 1 1 2 1 1 0 -1 -1 -1 -2 -1 -1 -1 -1 -1 -1 -1 -1 -1 -1 -0 -0 -0 -0 -0 -0 -0 -1 -1 -1 -2 -2
-2 -1 -1 -0 0 0 0 0 0 0 1 1 1 1 1 1 0 -0 -1 -2 -2 -2 -2 -2 -1 -1 -1 -1 -1 -1 -0 -0 -0 -0 -0 -1 -1 -1 -2 -2 -2 -2 -2
-2 -1 -1 -0 0 0 0 0 0 0 0 1 0 0 0 -0 -1 -1 -2 -2 -2 -2 -2 -2 -2 -1 -1 -1 -0 -1 -1 -1 -1 -1 -1 -1 -2 -2 -3 -3 -3 -3 -3
-1 -1 -1 -0 0 -0 0 -0 -0 -0 -0 -0 -1 -1 -1 -1 -2 -2 -2 -2 -2 -2 -2 -2 -2 -1 -1 -1 -1 -1 -1 -1 -1 -2 -2 -3 -3 -3 -3 -3 -4 -4 -4
-2 -2 -1 -1 -1 -0 -1 -1 -1 -1 -2 -2 -2 -2 -2 -2 -2 -2 -3 -3 -3 -2 -2 -2 -2 -2 -2 -1 -1 -1 -1 -2 -2 -3 -3 -4 -4 -4 -4 -4 -4 -4 -4
-2 -2 -1 -1 -1 -0 -1 -1 -2 -2 -3 -2 -2 -2 -2 -2 -3 -3 -3 -3 -3 -3 -3 -3 -3 -2 -2 -2 -1 -1 -2 -2 -3 -4 -4 -4 -4 -5 -5 -4 -4 -4 -4
-3 -3 -2 -2 -1 -1 -1 -2 -2 -3 -3 -2 -2 -2 -3 -3 -3 -3 -3 -3 -3 -3 -3 -3 -3 -3 -2 -2 -2 -2 -2 -3 -4 -4 -5 -5 -5 -5 -6 -5 -5 -4 -4
-4 -3 -3 -3 -2 -2 -2 -2 -3 -3 -3 -3 -3 -3 -3 -3 -3 -4 -3 -3 -3 -3 -3 -3 -3 -3 -2 -2 -2 -2 -2 -3 -4 -5 -5 -5 -5 -7 -7 -6 -5 -5 -5
-4 -4 -4 -3 -3 -3 -3 -3 -3 -3 -3 -3 -3 -4 -4 -4 -4 -4 -4 -4 -3 -3 -3 -3 -3 -3 -3 -3 -2 -3 -3 -4 -5 -5 -5 -5 -5 -7 -7 -6 -6 -5 -5
-4 -4 -4 -4 -4 -4 -4 -4 -4 -4 -4 -3 -3 -4 -4 -4 -4 -4 -5 -5 -5 -5 -4 -4 -4 -3 -3 -3 -3 -3 -3 -4 -5 -5 -6 -7 -7 -7 -6 -6 -6 -5 -5

GFSMW_700_temp_105.txt.gz
Temp
4 3 3 4 4 3 4 5 5 5 4 4 4 5 5 6 6 6 6 6 6 6 6 6 6 6 6 6 5 5 5 4 4 4 4 4 4 4 4 4 4 4 5
4 4 3 3 3 4 4 3 4 3 4 4 4 4 4 5 5 5 6 5 5 6 6 6 6 6 6 6 5 5 4 4 4 3 3 3 4 5 4 4 4 5 4
4 4 4 4 4 3 3 4 4 4 3 3 3 3 4 4 5 5 4 4 5 5 5 6 6 6 6 5 4 3 4 3 3 3 3 4 4 4 3 4 4 4 4
4 4 5 4 4 4 4 3 4 4 3 2 5 4 2 3 4 4 3 3 4 3 5 6 6 6 5 4 4 3 3 3 2 2 2 2 3 3 3 4 4 4 4
4 4 4 4 4 4 4 4 4 4 4 4 4 4 4 4 2 3 3 3 3 4 5 5 5 5 5 4 4 3 3 2 3 3 3 3 3 2 2 3 4 4 4
4 4 4 4 4 4 4 4 4 4 4 4 4 4 4 4 4 4 4 3 4 5 5 5 5 4 4 4 4 3 2 1 1 3 3 2 3 2 2 2 2 2 3
4 4 4 4 4 5 4 4 4 4 4 4 4 4 5 4 4 4 4 4 4 4 5 5 5 4 4 4 4 3 3 2 1 2 2 2 2 2 2 2 2 2 3
3 3 3 4 4 5 5 5 4 4 4 4 4 4 4 4 4 4 4 4 4 4 5 5 5 4 4 4 3 2 2 2 2 2 1 2 2 1 1 1 2 2 2
3 4 3 4 4 4 4 4 4 4 4 4 4 4 4 4 4 4 4 4 4 4 4 4 4 4 3 3 2 2 2 1 2 2 1 2 1 1 0 1 1 1 1
2 3 3 4 4 4 4 3 3 3 4 4 3 3 3 3 4 4 3 3 4 4 3 3 3 3 3 2 1 1 1 2 1 1 1 1 0 0 0 0 0 0 1
2 3 3 4 4 4 3 3 3 2 3 3 3 3 3 3 3 3 3 3 3 3 3 3 3 3 2 1 1 1 1 1 1 0 -0 -0 -0 -0 -0 -0 0 0 0
2 3 3 3 3 3 3 2 2 2 2 3 2 2 2 2 2 3 3 3 3 3 3 2 2 1 0 0 -0 0 -0 -1 -1 -1 -1 -1 -1 -1 -0 0 0 0 0
2 2 2 2 2 2 2 2 2 2 2 2 1 1 2 2 2 2 1 1 1 2 1 1 0 0 0 -0 -0 -0 -1 -2 -2 -1 -1 -1 -0 0 0 1 0 0 0
1 1 2 2 2 2 2 2 2 2 1 1 1 1 1 1 1 1 1 1 1 1 1 0 0 -0 -0 -0 -0 0 -1 -1 -1 -1 -1 -0 0 0 0 0 0 -0 -0
0 0 0 0 1 1 1 1 1 1 1 1 1 1 1 1 1 1 0 0 0 -0 -0 -1 -0 -0 -0 -0 -1 -1 -1 -1 -1 -1 -0 0 0 0 0 -0 -0 -0 0
0 0 -0 -0 -0 -0 -0 -0 0 0 1 1 1 1 1 1 1 1 -0 -1 -1 -1 -1 -1 -1 -1 -1 -1 -0 -0 -1 -1 -0 -0 -0 0 0 0 0 0 0 -0 -0
-1 -0 -0 -0 -0 -0 -0 0 0 0 1 1 1 1 1 1 1 1 1 0 -0 -1 -1 -1 -1 -1 -1 -1 -1 -1 -1 -1 -1 -0 0 0 0 0 0 -0 -0 -0 -0
-2 -1 -1 -1 -0 -0 0 0 1 1 1 1 1 1 1 1 1 1 1 1 0 -0 -1 -1 -1 -1 -1 -2 -2 -1 -1 -1 -1 -0 -0 0 -0 -0 -0 -0 -1 -1 -1
-2 -2 -2 -1 -1 -0 0 0 -0 -0 0 1 0 0 1 1 0 1 1 1 0 -0 -1 -1 -2 -2 -2 -2 -2 -1 -1 -1 -1 -1 -1 -1 -1 -1 -1 -1 -1 -1 -2
-3 -3 -2 -2 -1 -1 -1 -0 -1 -1 -0 -0 -0 -0 -0 -0 -0 -0 -0 -0 -0 -1 -1 -2 -2 -2 -2 -2 -2 -1 -1 -1 -1 -1 -1 -1 -1 -1 -2 -2 -2 -2 -2
-4 -3 -2 -2 -2 -1 -1 -1 -1 -1 -1 -1 -0 -0 -1 -1 -1 -1 -1 -1 -1 -2 -2 -2 -2 -2 -2 -2 -2 -2 -2 -2 -2 -2 -1 -1 -1 -2 -2 -3 -3 -3 -3
-4 -4 -3 -2 -2 -2 -1 -1 -1 -1 -1 -1 -1 -1 -1 -1 -1 -2 -2 -2 -2 -3 -3 -3 -3 -3 -3 -3 -2 -2 -2 -2 -2 -2 -2 -2 -2 -2 -3 -4 -4 -4 -4
-4 -4 -3 -3 -3 -2 -2 -1 -1 -1 -1 -1 -2 -2 -2 -2 -2 -3 -3 -3 -3 -3 -3 -3 -3 -3 -3 -3 -3 -3 -2 -2 -2 -2 -2 -2 -2 -3 -4 -4 -5 -5 -5
-4 -4 -4 -4 -3 -3 -3 -2 -2 -2 -2 -2 -3 -3 -3 -3 -3 -3 -3 -3 -3 -4 -4 -4 -4 -4 -3 -3 -3 -3 -3 -2 -2 -2 -2 -3 -3 -3 -5 -5 -5 -6 -6
-5 -5 -4 -4 -4 -3 -3 -3 -3 -3 -4 -4 -4 -4 -3 -4 -4 -4 -4 -3 -4 -4 -4 -4 -4 -4 -4 -3 -4 -3 -3 -3 -3 -3 -3 -3 -4 -5 -6 -6 -6 -6 -7
-5 -5 -5 -5 -4 -4 -4 -4 -4 -5 -5 -5 -5 -5 -5 -4 -4 -5 -4 -4 -4 -4 -4 -4 -5 -5 -5 -5 -6 -4 -4 -4 -4 -4 -4 -4 -5 -5 -6 -6 -6 -7 -7

GFSMW_700_temp_108.txt.gz
Temp
3 3 3 4 4 3 3 4 4 4 5 5 6 6 6 6 6 6 6 6 6 5 6 6 6 6 6 6 5 5 5 5 5 4 3 4 4 4 4 4 3 3 4
3 3 3 4 3 3 3 2 3 3 4 6 6 5 5 5 5 5 5 6 5 5 5 5 5 5 5 5 5 5 5 4 4 3 3 3 4 3 3 3 3 3 4
4 4 4 3 3 3 2 2 4 3 4 4 6 5 5 5 4 4 5 5 4 4 4 4 4 4 5 5 5 5 5 4 3 3 3 4 3 3 4 3 3 3 3
5 4 5 4 4 3 2 3 4 5 5 4 5 5 4 4 4 4 3 4 4 4 3 3 3 4 4 5 4 4 3 3 2 2 3 3 3 3 3 4 3 3 3
5 5 5 4 4 3 3 3 2 2 3 4 4 2 3 2 2 3 3 3 4 4 3 3 2 4 4 4 4 4 3 3 2 3 3 2 3 2 2 3 4 3 3
4 5 5 5 5 4 3 3 4 4 2 3 3 3 3 3 3 2 3 3 3 3 2 2 3 3 4 4 4 5 4 3 3 3 2 2 3 3 2 2 2 3 2
3 4 5 5 5 4 4 4 4 4 4 4 3 4 3 3 2 3 3 4 3 4 3 3 4 4 4 5 5 4 4 3 3 3 2 2 3 2 2 2 2 2 2
3 3 3 4 4 4 4 4 4 4 4 4 4 4 4 3 3 3 3 4 4 4 3 3 3 4 4 4 4 4 3 3 3 2 2 2 2 2 2 2 1 1 1
3 3 3 3 3 3 3 4 4 4 3 4 4 4 4 3 3 3 3 3 4 4 4 4 4 4 4 4 4 3 3 2 2 2 1 2 2 1 1 1 1 1 0
3 3 2 2 2 3 3 3 3 3 3 4 4 4 4 4 3 3 3 4 4 3 3 4 4 4 4 3 3 3 2 2 1 1 1 1 1 1 0 0 -0 -0 -0
2 2 3 3 3 2 2 3 3 3 3 3 3 3 3 3 3 4 4 4 3 4 3 3 3 3 3 3 3 2 1 1 1 1 0 0 -0 -0 -1 -1 -1 -1 -0
2 2 3 3 3 3 3 3 3 3 3 3 3 3 3 3 2 3 3 3 3 3 3 3 3 3 2 2 1 1 0 1 1 0 -1 -1 -1 -1 -1 -1 -1 -0 0
2 2 2 3 3 3 3 3 3 2 2 2 2 2 2 2 2 2 2 2 2 2 3 3 2 2 2 1 1 0 1 0 0 -1 -1 -1 -1 -1 -1 -1 -0 0 0
1 1 2 2 2 2 2 2 2 2 2 2 2 2 1 1 2 2 2 2 2 2 2 2 1 1 1 0 0 0 -0 -0 -0 -0 -0 -0 -0 -0 -0 -0 0 0 0
0 0 1 2 2 2 2 2 2 2 2 2 1 1 1 1 1 1 1 1 1 1 1 1 1 0 0 -0 -0 -0 -1 -1 -1 -1 -0 -0 -0 -0 -0 0 0 0 0
-1 -1 -0 -0 -0 1 1 1 1 1 1 1 1 1 1 1 1 1 1 1 1 0 0 -0 -0 -0 -1 -1 -1 -1 -1 -1 -1 -1 -1 -1 -0 -0 0 0 0 0 0
-1 -1 -1 -1 -1 -0 -0 -0 0 0 0 1 1 1 1 1 1 1 1 1 0 -0 -0 -1 -1 -1 -1 -1 -1 -1 -1 -1 -1 -1 -1 -1 -0 -0 0 0 0 0 0
-2 -1 -1 -1 -1 -1 -0 -0 -0 -0 0 0 0 1 1 1 1 1 1 1 0 -0 -1 -1 -1 -1 -1 -2 -2 -2 -2 -1 -1 -1 -1 -1 -1 -0 -0 -0 0 -0 -0
-3 -2 -1 -1 -1 -1 -0 -0 -0 -0 -0 0 0 0 0 0 0 0 0 0 0 -0 -0 -1 -1 -1 -2 -2 -2 -2 -2 -2 -1 -1 -1 -1 -1 -1 -1 -0 -1 -1 -1
-4 -3 -3 -2 -2 -1 -1 -0 -0 -0 -1 -1 -1 -1 -1 -1 -1 -1 -1 -1 -1 -1 -0 -1 -2 -2 -2 -3 -2 -2 -2 -2 -2 -1 -1 -1 -1 -1 -1 -1 -1 -1 -2
-4 -4 -4 -3 -3 -2 -2 -1 -1 -1 -1 -1 -1 -1 -1 -1 -1 -1 -1 -1 -1 -1 -1 -2 -2 -2 -3 -3 -3 -3 -2 -2 -2 -2 -2 -2 -2 -2 -1 -2 -2 -2 -2
-5 -5 -4 -4 -3 -3 -2 -2 -2 -1 -1 -1 -1 -1 -1 -1 -1 -1 -1 -1 -2 -2 -2 -3 -3 -3 -3 -3 -3 -3 -3 -2 -2 -2 -2 -2 -2 -2 -2 -2 -3 -3 -3
-5 -5 -5 -4 -4 -3 -3 -3 -2 -2 -1 -1 -1 -1 -2 -2 -2 -2 -2 -3 -3 -3 -3 -3 -3 -3 -3 -3 -3 -3 -3 -3 -2 -2 -2 -2 -2 -2 -2 -3 -3 -4 -4
-5 -5 -4 -4 -4 -3 -3 -3 -3 -2 -2 -2 -2 -2 -2 -3 -3 -3 -3 -3 -3 -4 -4 -4 -4 -4 -4 -4 -4 -4 -3 -3 -3 -3 -3 -3 -3 -2 -2 -3 -4 -5 -5
-5 -5 -5 -4 -4 -4 -4 -3 -3 -3 -3 -3 -3 -3 -4 -4 -4 -4 -4 -4 -4 -3 -4 -4 -4 -4 -4 -4 -4 -4 -4 -3 -3 -3 -3 -3 -3 -3 -3 -4 -5 -5 -5
-5 -5 -5 -5 -5 -5 -5 -4 -4 -4 -4 -5 -5 -5 -4 -5 -5 -4 -4 -4 -4 -4 -4 -4 -4 -4 -5 -5 -5 -4 -5 -5 -5 -4 -4 -4 -4 -4 -4 -4 -5 -5 -6

GFSMW_700_temp_111.txt.gz
Temp
4 4 4 4 5 5 5 3 4 4 4 5 5 6 6 6 6 6 5 5 5 5 5 5 5 5 5 5 5 5 5 5 5 4 4 4 4 4 3 3 3 3 3
4 4 3 4 4 4 4 2 4 4 4 4 5 5 5 6 5 5 5 5 5 5 5 5 5 5 5 5 5 5 5 5 5 4 4 3 3 5 4 3 3 3 3
4 3 3 3 3 3 2 2 4 3 3 3 4 5 5 5 5 5 5 5 5 5 5 5 5 5 4 4 4 4 4 5 4 4 3 2 4 4 4 4 3 3 3
3 3 1 2 2 2 2 2 2 2 3 4 3 4 5 5 5 4 4 4 4 4 4 4 5 4 4 4 3 3 3 4 3 3 3 3 4 4 3 4 4 3 3
4 3 3 3 3 3 2 3 2 1 1 3 3 2 3 4 5 5 4 3 3 3 3 3 4 4 4 4 3 3 3 4 4 3 3 4 2 4 3 4 3 4 3
4 3 3 3 3 3 3 4 2 2 1 2 3 3 3 3 3 4 4 3 2 2 2 3 3 3 3 3 3 2 3 3 3 4 4 3 3 3 3 3 3 3 3
4 4 4 4 4 3 3 2 2 2 3 3 4 4 3 4 4 5 4 3 2 2 1 2 3 2 3 2 2 3 3 4 4 4 4 3 3 3 2 3 2 2 2
3 4 4 4 4 3 4 4 4 3 3 3 3 3 3 4 4 3 3 2 2 2 2 3 3 3 3 3 3 3 4 4 4 4 4 3 3 2 2 2 2 1 1
3 3 3 3 4 4 3 4 3 3 3 3 3 3 3 3 3 2 3 3 3 3 3 3 3 3 3 3 3 3 3 4 4 3 3 2 2 1 1 1 1 1 1
2 2 2 2 2 3 3 3 3 3 3 3 3 3 3 3 4 3 4 3 3 3 3 4 4 3 3 3 3 3 3 3 3 2 1 1 1 1 1 1 0 0 -0
3 2 2 2 2 2 2 2 3 2 3 3 3 3 3 3 3 3 3 3 3 3 3 3 3 3 3 3 3 3 3 2 2 1 1 1 1 0 -0 -0 -1 -1 -1
2 2 2 2 2 2 1 2 2 2 3 3 3 3 3 3 3 3 3 3 3 3 3 3 3 3 3 3 3 2 2 2 1 1 1 0 0 -1 -1 -1 -1 -1 -1
2 2 2 3 3 2 2 1 1 1 1 2 2 2 2 2 2 2 2 2 2 2 2 2 2 2 2 2 2 2 1 1 1 1 0 0 0 -0 -1 -0 -0 -1 -0
1 1 2 2 2 3 3 2 2 1 1 2 2 2 2 2 2 2 2 2 2 2 2 2 2 2 2 2 2 1 0 0 0 0 -0 -0 0 -0 -0 -0 0 0 0
0 1 1 1 2 2 2 2 2 1 1 0 1 2 2 2 2 2 2 2 2 2 1 1 1 1 1 1 1 0 0 0 -0 -0 -0 -0 -1 -1 -0 -0 -0 0 0
-0 -0 0 0 1 1 1 1 2 2 2 2 1 1 1 1 1 1 1 1 1 1 1 1 1 1 1 0 0 -0 -0 -0 -1 -1 -1 -1 -1 -1 -0 -0 0 0 0
-2 -1 -1 -0 -0 -0 0 0 1 1 1 1 1 1 1 0 0 0 1 1 1 1 1 0 -0 -0 -0 -0 -1 -1 -1 -1 -1 -1 -1 -1 -0 -0 -0 -0 -0 -0 0
-2 -2 -1 -1 -1 -1 -0 -0 -0 -0 -0 0 0 0 0 0 0 1 1 1 0 0 -0 -0 -1 -1 -1 -1 -1 -1 -1 -1 -1 -1 -1 -1 -0 -0 -0 -0 -0 -1 -0
-2 -2 -2 -3 -2 -1 -1 -0 -0 -0 -0 -0 -0 0 0 0 0 0 1 0 0 0 -0 -1 -1 -1 -1 -2 -2 -2 -2 -2 -2 -2 -1 -1 -1 -1 -0 -1 -1 -1 -1
-3 -3 -3 -2 -2 -2 -1 -1 -1 -0 -0 -0 -0 -0 -0 -0 0 0 0 0 0 0 0 -0 -0 -1 -1 -2 -3 -2 -2 -2 -2 -2 -2 -2 -1 -1 -1 -1 -2 -2 -2
-4 -4 -4 -3 -3 -3 -2 -2 -2 -1 -1 -0 -0 -0 -0 -0 -0 -1 -1 -0 -0 -0 -0 -1 -1 -1 -1 -3 -2 -2 -2 -2 -2 -2 -2 -2 -2 -2 -1 -2 -2 -2 -2
-4 -4 -5 -4 -4 -4 -4 -3 -3 -2 -2 -2 -1 -1 -1 -1 -1 -1 -1 -1 -1 -1 -1 -1 -2 -2 -3 -3 -3 -3 -3 -3 -3 -3 -2 -2 -2 -2 -2 -2 -2 -2 -3
-5 -5 -5 -5 -5 -4 -4 -3 -3 -2 -2 -2 -2 -2 -2 -2 -2 -2 -2 -2 -2 -2 -2 -2 -2 -2 -3 -3 -3 -3 -3 -3 -4 -4 -3 -3 -3 -3 -2 -2 -2 -2 -3
-5 -5 -5 -5 -4 -4 -4 -4 -3 -3 -2 -2 -2 -2 -2 -2 -2 -3 -3 -3 -3 -3 -3 -3 -3 -3 -3 -3 -4 -4 -4 -4 -4 -4 -3 -3 -3 -3 -2 -2 -3 -3 -4
-5 -5 -5 -5 -5 -4 -4 -4 -4 -3 -3 -3 -3 -3 -3 -3 -3 -4 -4 -4 -4 -4 -4 -4 -4 -3 -3 -4 -4 -4 -4 -4 -4 -4 -4 -3 -3 -3 -3 -3 -3 -4 -4
-5 -5 -5 -5 -5 -5 -5 -5 -4 -4 -4 -4 -4 -4 -5 -5 -5 -5 -5 -5 -4 -4 -4 -4 -4 -4 -4 -4 -4 -5 -5 -4 -4 -4 -5 -5 -4 -4 -4 -4 -4 -4 -5

GFSMW_700_temp_114.txt.gz
Temp
3 4 5 4 5 5 5 5 3 4 4 5 5 5 6 6 6 6 6 6 5 5 5 5 5 5 5 5 5 5 5 5 5 5 5 5 4 4 4 4 3 4 3
2 3 4 4 4 3 5 6 3 3 3 4 4 5 5 6 6 5 5 5 5 5 5 5 5 5 5 5 5 5 5 5 4 5 4 4 4 4 4 4 4 4 4
3 3 3 4 4 4 5 5 4 3 2 4 4 4 4 5 5 5 5 5 5 5 5 5 5 5 5 5 5 4 5 5 4 4 4 4 6 6 4 3 3 3 3
3 3 3 4 3 3 4 4 4 4 2 2 4 4 5 5 5 5 5 5 5 4 5 4 4 4 4 3 4 4 4 4 4 3 3 5 4 5 5 4 4 4 3
4 4 3 4 2 3 4 3 3 2 4 2 3 4 4 4 5 5 5 5 5 5 5 4 4 3 2 2 3 3 4 3 3 1 3 3 4 4 4 4 4 4 3
3 3 3 3 3 2 2 2 2 1 1 2 2 2 2 3 3 3 4 5 5 4 5 4 4 3 3 2 3 3 2 3 3 3 2 3 3 3 3 3 3 4 3
3 3 3 2 3 3 2 2 2 2 1 2 1 2 1 2 2 2 3 3 3 3 4 4 4 4 2 2 2 2 3 2 3 3 3 4 3 3 3 2 3 3 2
3 3 2 2 2 2 1 2 2 3 2 2 1 1 1 1 1 2 3 3 3 3 4 3 3 4 2 2 2 2 2 2 3 3 4 3 3 3 2 3 2 2 2
3 3 3 3 3 2 3 3 3 3 3 2 1 1 1 1 2 3 3 3 3 4 4 3 3 3 2 3 2 2 2 3 3 3 3 3 3 3 2 2 1 1 1
0 1 3 3 3 3 3 3 3 2 3 2 3 3 2 3 3 1 2 3 3 3 2 3 3 2 2 2 3 1 2 3 3 3 3 3 3 2 2 1 1 0 0
0 1 2 2 2 2 2 2 2 3 3 3 3 2 2 3 3 3 3 2 2 2 3 3 3 3 2 2 2 2 2 3 3 2 2 2 1 1 1 1 0 0 -0
1 2 2 2 1 2 2 1 1 1 2 2 3 3 3 3 3 3 3 3 3 3 3 3 3 3 3 3 3 3 2 2 2 2 1 0 1 0 0 0 -0 -0 -0
1 1 2 2 2 2 1 1 1 1 1 2 2 2 2 3 3 3 3 3 3 3 3 3 2 3 2 2 2 2 2 2 2 1 1 0 0 0 0 0 -0 -0 -0
0 1 1 2 2 2 2 2 2 1 0 0 1 1 1 1 1 2 2 2 2 2 2 2 2 2 2 2 2 2 2 1 1 0 0 -0 -0 -0 -0 -0 -1 -0 -0
-0 0 1 1 2 2 2 2 2 1 1 1 0 -0 0 0 1 1 2 1 1 2 2 1 1 1 1 1 1 1 1 1 0 -0 -0 -1 -1 -1 -1 -1 -1 -0 -0
-1 -1 -0 0 1 1 1 2 2 1 1 1 0 -0 -1 -1 -0 1 1 1 1 1 1 1 1 1 1 1 1 1 1 0 -0 -1 -1 -1 -1 -1 -1 -1 -1 -0 -0
-2 -1 -1 -1 -1 -0 -0 0 0 0 0 0 0 -0 -1 0 1 1 1 1 1 1 1 1 1 1 1 0 0 0 -0 -1 -1 -1 -1 -1 -1 -1 -1 -1 -1 -0 -0
-2 -2 -2 -1 -1 -1 -1 -1 -1 -1 -1 -1 -1 -0 -0 -0 0 0 0 1 1 1 0 0 0 0 0 -0 -1 -1 -1 -1 -1 -1 -1 -1 -1 -1 -1 -1 -1 -1 -0
-2 -2 -2 -2 -2 -2 -2 -1 -1 -1 -1 -0 -0 -0 -0 -0 -0 0 0 0 0 0 0 0 -0 -0 -1 -1 -1 -2 -2 -3 -2 -2 -2 -1 -1 -1 -1 -1 -1 -1 -1
-3 -2 -2 -2 -2 -2 -2 -1 -1 -1 -1 -1 -1 -1 -1 -0 -0 -0 -0 -0 0 0 0 0 0 -0 -1 -1 -1 -2 -2 -2 -2 -2 -2 -2 -2 -2 -2 -1 -1 -2 -1
-4 -3 -3 -2 -3 -2 -2 -2 -2 -2 -1 -1 -1 -1 -1 -1 -0 -0 -0 -1 -1 -0 -0 -0 -0 -1 -1 -2 -2 -2 -2 -2 -3 -3 -2 -2 -2 -2 -2 -1 -1 -2 -1
-5 -5 -4 -4 -3 -3 -3 -3 -3 -2 -2 -2 -2 -1 -1 -1 -1 -1 -1 -1 -1 -1 -2 -2 -1 -1 -2 -2 -2 -2 -3 -3 -3 -3 -3 -3 -3 -2 -2 -2 -2 -2 -2
-5 -5 -5 -5 -4 -4 -4 -4 -4 -4 -3 -3 -2 -2 -2 -2 -2 -2 -2 -2 -2 -2 -2 -2 -2 -2 -2 -3 -2 -4 -4 -3 -4 -3 -3 -3 -3 -3 -3 -2 -2 -2 -2
-5 -5 -5 -5 -5 -5 -5 -4 -4 -4 -3 -3 -2 -2 -2 -2 -2 -2 -2 -3 -3 -3 -3 -3 -3 -3 -3 -3 -3 -4 -4 -4 -4 -4 -3 -3 -3 -3 -3 -3 -3 -3 -3
-5 -5 -5 -5 -5 -5 -5 -5 -4 -4 -3 -3 -3 -3 -2 -2 -2 -3 -3 -3 -4 -4 -4 -4 -4 -4 -3 -4 -4 -4 -4 -4 -4 -4 -4 -4 -3 -3 -3 -3 -3 -4 -4
-5 -5 -5 -5 -5 -5 -5 -5 -5 -5 -5 -4 -4 -4 -4 -4 -4 -4 -5 -5 -5 -5 -4 -4 -4 -4 -4 -4 -4 -4 -4 -4 -4 -4 -4 -4 -3 -3 -4 -4 -4 -5 -5

GFSMW_700_temp_117.txt.gz
Temp
3 4 3 3 3 2 3 3 4 3 3 2 3 4 5 5 5 5 6 6 6 5 5 5 5 5 5 5 5 5 5 5 6 5 5 5 5 4 4 4 3 3 3
4 3 2 2 3 3 4 3 3 3 4 2 3 4 5 5 5 6 5 5 5 5 5 5 5 5 5 5 5 5 5 5 5 5 5 5 5 4 3 3 3 3 3
5 2 3 3 3 3 4 3 3 3 5 4 2 3 4 4 5 5 5 5 5 5 5 5 5 5 5 5 5 5 5 4 5 4 4 5 5 4 3 3 3 3 3
3 2 3 3 3 3 3 3 4 4 3 3 4 3 3 4 5 5 5 5 5 5 5 5 5 5 4 4 4 4 4 4 4 3 3 5 5 4 3 3 3 3 3
2 2 3 3 3 3 3 3 4 4 3 3 3 2 1 3 4 5 5 5 5 5 5 5 5 5 5 4 4 4 3 3 3 3 3 2 4 4 3 3 3 3 3
3 2 2 2 2 2 1 3 3 4 3 4 3 2 1 1 2 3 4 4 4 4 4 4 4 4 5 5 5 4 4 3 2 2 2 2 2 4 3 3 3 3 2
2 2 1 2 2 1 1 1 2 3 3 3 2 1 1 1 2 3 3 4 4 4 4 4 4 4 4 4 4 4 4 3 2 2 3 3 2 4 4 3 3 2 2
2 1 1 1 1 1 1 2 1 1 2 3 1 1 1 1 2 2 2 2 3 2 2 2 2 2 2 2 3 3 3 3 2 2 2 2 2 3 4 3 2 2 2
1 1 1 1 1 0 1 1 1 1 1 1 2 1 1 1 1 2 2 2 2 2 2 1 1 2 3 2 2 3 3 3 1 2 2 2 3 3 3 2 2 2 1
-0 1 1 1 1 1 2 1 1 1 2 2 1 1 1 1 1 1 1 2 2 1 2 2 2 4 3 2 2 3 2 3 2 1 2 2 3 3 3 2 2 1 1
-0 0 0 0 0 1 1 2 1 1 2 2 2 1 1 1 1 1 1 1 1 1 2 2 2 4 1 1 1 2 2 1 1 2 2 2 3 2 2 1 1 1 1
0 0 1 1 0 1 1 1 1 1 2 1 1 2 2 2 1 2 2 2 2 1 1 1 2 1 1 2 2 2 2 1 1 2 2 2 2 1 1 1 -0 0 0
0 1 1 1 1 1 1 1 1 0 1 1 2 1 1 1 1 1 1 1 2 2 1 1 1 2 2 2 2 2 2 2 2 2 2 2 1 1 1 0 -0 0 0
-0 0 1 1 1 1 1 2 2 2 2 0 0 1 1 0 0 0 0 0 1 1 2 2 2 2 2 2 2 2 2 2 1 1 1 1 0 0 -0 -0 -0 0 -0
-1 -0 0 1 1 1 1 2 2 2 1 1 0 0 0 -0 0 0 -0 0 2 2 2 2 2 2 2 2 2 2 2 1 1 1 1 0 0 -0 -0 -0 -0 -0 -0
-2 -2 -1 -0 0 1 1 1 1 1 1 1 0 0 0 -0 -0 -0 0 -1 0 1 1 1 1 1 1 1 1 1 1 1 1 1 0 -0 -1 -1 -1 -1 -1 -1 -1
-2 -2 -2 -2 -1 -1 -0 0 0 1 1 0 0 0 -0 -0 -1 -1 -1 -0 0 1 1 1 1 1 1 1 1 1 1 0 0 -0 -1 -1 -1 -1 -1 -1 -1 -1 -1
-2 -2 -2 -2 -2 -2 -2 -1 -1 -1 -0 -0 -0 -1 -0 -0 -0 -1 -0 0 0 0 0 1 1 1 1 0 0 0 -0 -0 -0 -1 -1 -2 -1 -1 -1 -1 -1 -1 -1
-2 -2 -2 -2 -2 -2 -2 -2 -2 -1 -1 -1 -1 -1 -1 -1 -1 -1 -1 -0 -0 0 0 0 0 0 0 0 -0 -0 -1 -1 -1 -2 -2 -2 -2 -2 -1 -1 -1 -1 -1
-3 -3 -2 -2 -2 -2 -2 -1 -1 -1 -1 -1 -1 -1 -1 -1 -1 -1 -0 -0 -0 -0 0 0 0 0 0 -0 -0 -1 -1 -2 -2 -3 -3 -2 -2 -2 -2 -2 -2 -2 -1
-4 -3 -3 -2 -2 -2 -2 -2 -1 -1 -1 -1 -1 -1 -1 -1 -1 -1 -1 -1 -1 -1 -0 -0 -0 -0 -1 -1 -1 -1 -2 -3 -3 -3 -2 -2 -2 -2 -2 -2 -2 -2 -2
-4 -4 -4 -3 -3 -3 -2 -2 -2 -2 -2 -2 -1 -1 -2 -2 -1 -1 -1 -1 -1 -1 -1 -1 -1 -1 -2 -2 -2 -2 -2 -3 -3 -3 -3 -4 -3 -3 -3 -3 -3 -2 -2
-4 -4 -4 -4 -4 -4 -4 -3 -3 -3 -3 -3 -3 -3 -2 -2 -2 -2 -2 -2 -1 -1 -2 -2 -2 -3 -3 -3 -3 -3 -3 -3 -4 -4 -4 -4 -3 -4 -3 -3 -3 -3 -3
-4 -4 -3 -4 -4 -4 -4 -4 -4 -4 -3 -3 -3 -3 -3 -3 -2 -2 -2 -2 -2 -3 -2 -3 -3 -3 -3 -3 -3 -3 -3 -4 -4 -5 -4 -4 -4 -4 -3 -3 -3 -3 -3
-5 -5 -4 -4 -4 -4 -4 -4 -4 -4 -4 -4 -3 -4 -3 -3 -3 -3 -3 -3 -3 -3 -3 -4 -4 -4 -4 -4 -4 -4 -5 -5 -4 -4 -5 -4 -4 -4 -4 -4 -4 -3 -3
-6 -5 -4 -4 -4 -4 -4 -4 -4 -4 -4 -4 -4 -4 -4 -3 -3 -4 -4 -4 -3 -4 -4 -4 -5 -5 -4 -5 -5 -5 -5 -5 -5 -5 -5 -4 -4 -4 -4 -4 -3 -4 -4

GFSMW_700_temp_120.txt.gz
Temp
1 2 3 3 3 3 3 4 5 5 4 4 5 5 5 5 5 6 5 5 7 6 6 5 5 5 5 5 5 5 5 5 5 5 5 5 5 5 4 4 3 3 3
4 4 4 3 4 2 3 3 3 3 3 4 4 4 5 5 6 6 5 5 6 6 5 5 5 5 5 5 5 5 5 5 5 5 5 5 5 5 4 3 3 3 3
2 3 4 3 2 4 4 2 3 3 3 3 4 4 4 4 4 4 4 5 5 5 5 5 5 5 5 5 5 5 5 5 5 4 5 4 5 4 4 4 3 3 3
2 2 2 3 4 4 3 4 4 3 3 4 3 4 4 4 4 4 4 4 5 5 5 5 4 5 5 5 5 5 5 4 5 5 4 4 4 3 4 4 3 3 3
2 2 2 3 4 3 3 3 3 2 3 3 3 3 3 4 3 3 3 4 4 4 4 4 4 4 4 4 4 5 5 4 4 5 4 3 3 3 2 3 4 4 3
2 2 2 3 2 2 2 3 2 3 3 3 3 2 3 3 2 2 3 3 4 4 4 4 4 4 4 4 4 4 4 4 4 4 3 3 2 2 2 3 3 3 3
2 2 2 1 2 2 2 2 3 3 3 4 4 3 2 2 2 1 3 3 4 4 4 4 4 4 4 4 3 4 3 3 2 3 3 3 3 2 1 2 3 2 2
2 2 0 1 2 2 2 1 2 3 3 3 3 2 2 3 2 2 1 3 3 4 4 4 4 4 3 3 3 3 3 2 2 2 3 2 3 2 2 2 2 2 1
0 0 0 2 1 1 1 2 1 1 2 3 2 2 2 2 2 1 1 1 1 2 3 2 3 2 2 1 2 1 1 2 2 2 3 3 2 2 1 1 2 2 2
-1 -0 -0 1 1 1 1 1 1 1 1 2 2 2 2 2 1 1 1 1 0 1 2 2 2 2 1 1 1 2 2 3 2 2 2 2 2 1 1 2 2 2 1
-1 -1 -0 0 0 1 1 1 1 1 1 1 1 1 1 1 1 2 2 1 0 0 0 1 1 1 2 2 1 2 2 2 2 2 2 1 2 1 2 2 2 2 1
0 -0 -1 -0 -0 0 0 1 1 0 1 0 0 0 1 1 1 1 1 1 1 1 -0 0 0 1 1 1 2 2 1 1 1 2 1 1 1 2 2 2 2 1 1
0 0 0 -0 -0 0 1 0 0 0 1 1 1 1 1 0 1 1 1 1 1 1 1 1 0 0 1 0 1 2 1 1 1 1 0 1 1 2 1 1 1 0 0
-0 0 0 0 0 0 0 1 1 1 1 1 1 1 1 0 0 1 0 1 1 1 2 1 2 1 -0 0 0 0 1 1 1 1 1 1 1 1 1 1 0 0 0
-1 -0 0 0 1 1 1 2 2 2 1 1 0 -0 -0 -0 -0 0 0 0 0 0 0 1 1 1 -0 0 0 1 1 1 1 1 1 1 0 1 -0 -0 -0 -0 -0
-2 -2 -1 -1 0 1 1 1 1 2 2 1 1 0 -0 -0 -0 -1 -0 0 -1 -1 -1 -0 -0 0 0 1 1 1 1 1 1 1 1 -0 0 1 -0 -1 -1 -1 -1
-2 -2 -2 -2 -1 -1 -0 -0 0 1 1 1 1 0 -0 -0 -0 -1 -0 -1 -1 -1 -1 -0 0 1 1 1 1 1 1 1 1 1 -0 0 -0 -0 -1 -1 -1 -1 -1
-2 -2 -2 -2 -2 -1 -1 -1 -1 -1 -0 -0 0 0 -0 -0 -1 -1 -1 -1 -1 -2 -1 -1 0 1 1 1 1 1 1 0 0 0 -1 -0 -1 -1 -1 -1 -1 -1 -1
-3 -2 -2 -2 -2 -1 -1 -1 -1 -1 -1 -1 -1 -1 -1 -1 -1 -1 -1 -1 -1 -1 -1 -0 0 0 0 0 0 0 0 -0 -1 -0 -1 -2 -2 -2 -2 -2 -2 -2 -2
-3 -3 -2 -2 -2 -2 -2 -1 -1 -1 -1 -1 -1 -1 -1 -1 -1 -1 -1 -1 -1 -1 -1 -0 0 0 0 0 -0 -0 -0 -1 -1 -1 -1 -2 -3 -3 -2 -3 -3 -2 -2
-3 -3 -3 -3 -3 -2 -2 -2 -1 -1 -1 -1 -1 -1 -1 -1 -1 -1 -1 -1 -1 -1 -1 -1 -0 -0 -0 -0 -0 -0 -1 -1 -2 -2 -2 -3 -3 -3 -3 -3 -3 -3 -2
-3 -3 -3 -3 -3 -3 -3 -2 -2 -2 -2 -2 -2 -1 -1 -1 -1 -1 -1 -1 -1 -1 -1 -1 -1 -1 -1 -1 -1 -1 -1 -2 -2 -3 -3 -4 -4 -5 -4 -3 -3 -3 -3
-4 -4 -4 -3 -3 -3 -3 -3 -3 -3 -3 -3 -3 -3 -3 -3 -3 -3 -2 -2 -2 -2 -2 -1 -1 -1 -2 -2 -2 -2 -3 -3 -3 -4 -4 -4 -5 -4 -4 -4 -4 -4 -3
-4 -4 -4 -4 -4 -4 -3 -3 -3 -3 -3 -3 -3 -3 -3 -3 -3 -3 -3 -3 -3 -2 -2 -2 -3 -3 -3 -3 -3 -3 -3 -3 -4 -4 -5 -5 -4 -4 -4 -4 -4 -4 -3
-3 -4 -4 -3 -4 -4 -4 -4 -4 -4 -4 -4 -3 -3 -4 -4 -3 -3 -3 -3 -3 -3 -3 -3 -3 -3 -4 -4 -4 -4 -4 -4 -5 -5 -5 -5 -5 -5 -4 -5 -4 -4 -4
-2 -3 -4 -4 -4 -4 -4 -4 -4 -4 -4 -4 -4 -4 -4 -4 -4 -4 -4 -4 -4 -4 -4 -4 -4 -4 -4 -5 -4 -4 -4 -5 -6 -6 -5 -5 -5 -5 -5 -5 -5 -4 -4

GFSMW_700_temp_123.txt.gz
Temp
-0 -1 -0 1 1 1 4 5 6 5 6 5 5 5 5 4 6 6 7 6 6 6 6 5 5 5 5 5 5 5 5 5 5 5 5 5 5 5 5 5 4 3 3
0 0 0 1 1 4 6 6 3 4 5 5 5 4 5 4 5 6 6 6 5 5 6 5 5 5 5 5 5 5 5 5 5 5 5 5 5 5 5 4 4 3 3
1 0 0 1 1 3 3 2 3 3 4 4 4 4 3 3 5 4 6 5 6 5 6 5 5 5 4 4 5 5 5 5 5 5 5 5 5 5 4 4 4 3 3
1 0 0 1 3 4 4 4 4 3 3 4 4 4 4 5 5 5 5 5 5 5 5 5 5 4 4 4 4 5 5 5 5 5 5 5 5 5 4 4 3 3 3
1 2 2 2 2 2 4 5 6 3 2 3 3 3 4 4 5 4 5 4 4 4 4 4 4 4 4 4 4 5 4 5 5 5 4 4 4 4 3 4 4 2 2
1 2 2 2 2 2 3 7 2 3 3 3 3 3 4 4 4 4 4 3 3 2 2 4 4 4 4 4 4 4 4 4 4 4 4 3 3 3 3 3 3 2 3
1 2 1 1 2 2 3 2 3 4 3 3 3 4 4 4 4 3 3 3 3 3 3 4 4 4 4 4 4 4 3 3 3 2 2 2 2 2 2 3 4 3 2
2 1 1 0 1 1 1 2 2 2 3 3 3 4 3 3 3 2 2 2 2 2 2 3 4 4 4 4 3 4 3 3 2 2 2 3 2 2 2 3 4 3 2
0 1 1 1 1 1 1 1 2 2 2 3 3 3 4 3 3 2 2 2 1 1 2 2 3 3 3 4 4 3 3 2 2 1 2 2 2 2 3 3 3 2 2
-1 0 -0 0 1 1 1 1 1 1 2 3 3 3 3 3 3 2 2 2 1 1 1 2 2 3 3 3 2 2 2 2 1 2 2 2 2 3 2 2 2 1 1
-1 -1 0 0 0 1 1 2 1 1 1 1 2 2 3 2 2 2 2 1 1 0 2 1 1 1 1 1 1 2 1 1 1 1 1 2 1 1 1 1 1 1 0
-1 -1 -0 -0 0 1 1 1 1 1 1 1 1 1 1 2 1 1 1 1 0 0 0 0 1 1 1 1 1 0 0 1 1 1 1 2 1 2 2 1 0 -0 1
-0 0 -0 -0 -0 0 1 1 1 1 1 1 1 1 1 1 2 1 1 0 0 -0 0 0 0 1 0 1 1 1 1 1 1 1 1 1 1 0 1 0 -0 0 1
-1 -0 0 1 1 0 1 1 1 1 1 1 1 1 1 1 1 1 1 1 0 1 0 0 0 0 0 0 0 1 1 0 1 1 1 1 0 0 -0 0 0 0 1
-1 -1 -1 0 1 1 1 1 1 2 1 1 1 1 1 0 1 0 0 0 1 0 1 0 0 1 0 0 1 0 -0 0 0 0 1 0 0 1 0 1 0 -0 -0
-2 -1 -1 -1 -1 0 1 1 1 1 1 1 1 0 0 -0 -0 0 0 0 0 0 0 -0 -0 0 0 1 1 -0 -0 -0 -0 -0 0 1 1 0 -0 1 -0 -1 -1
-2 -2 -1 -1 -1 -1 -1 -0 0 1 1 1 1 0 -0 -1 -1 -0 1 -0 -0 -0 -0 -1 -1 -1 -1 -1 -1 -1 -1 0 0 0 1 1 0 0 -1 -0 -1 -1 -1
-3 -2 -2 -2 -1 -1 -1 -1 -1 -1 -0 -0 -0 -1 -0 -0 -1 -1 -0 -0 -1 -1 -1 -1 -1 -1 -1 -1 -0 -0 -0 0 0 0 0 -0 -1 -0 -0 -1 -1 -1 -2
-3 -3 -2 -2 -2 -2 -1 -1 -1 -1 -1 -1 -1 -1 -1 -1 -1 -1 -1 -1 -2 -1 -1 -1 -1 -1 -1 -2 -1 -0 -0 0 -0 -0 -0 -1 -1 -2 -2 -2 -2 -1 -2
-3 -3 -3 -2 -2 -2 -2 -2 -1 -1 -1 -1 -1 -1 -1 -1 -1 -1 -1 -1 -1 -1 -1 -1 -2 -2 -2 -2 -3 -1 -0 -0 -0 -1 -1 -2 -1 -1 -2 -2 -2 -2 -2
-3 -3 -3 -2 -2 -2 -2 -2 -2 -1 -1 -1 -1 -1 -1 -1 -1 -1 -1 -1 -1 -1 -1 -1 -1 -1 -1 -1 -1 -1 -1 -1 -1 -2 -2 -2 -2 -2 -2 -2 -3 -2 -3
-3 -3 -3 -3 -3 -2 -2 -2 -2 -2 -2 -1 -1 -1 -1 -1 -1 -1 -1 -1 -1 -1 -1 -1 -1 -1 -1 -1 -1 -1 -1 -1 -1 -1 -2 -2 -2 -2 -2 -3 -3 -3 -4
-3 -3 -4 -3 -3 -3 -3 -2 -2 -2 -2 -2 -2 -2 -2 -2 -2 -2 -1 -1 -1 -2 -2 -2 -2 -2 -2 -1 -1 -1 -2 -2 -2 -3 -3 -3 -3 -3 -3 -4 -4 -4 -4
-2 -2 -3 -3 -3 -3 -3 -3 -3 -3 -3 -3 -3 -3 -3 -3 -3 -2 -3 -3 -2 -3 -3 -3 -2 -3 -3 -3 -3 -3 -3 -3 -4 -4 -4 -4 -4 -4 -4 -3 -4 -4 -4
-0 -1 -2 -3 -3 -3 -3 -3 -3 -3 -3 -3 -3 -3 -3 -3 -3 -3 -3 -3 -3 -3 -3 -3 -3 -3 -3 -3 -4 -4 -3 -4 -5 -5 -5 -5 -5 -5 -5 -4 -4 -5 -4
0 -0 -1 -2 -3 -3 -3 -4 -3 -3 -4 -4 -4 -4 -4 -4 -4 -4 -4 -4 -4 -4 -4 -4 -4 -4 -4 -4 -4 -4 -4 -5 -5 -5 -5 -5 -5 -6 -5 -4 -5 -5 -5

GFSMW_700_temp_126.txt.gz
Temp
2 2 2 2 2 1 2 3 4 6 5 5 6 5 5 5 5 5 5 6 6 6 6 6 6 6 6 5 5 5 5 5 4 5 5 5 5 5 5 5 5 4 4
2 1 1 1 1 1 1 2 4 5 5 5 5 5 5 6 5 5 5 6 6 5 5 5 6 5 5 5 5 4 5 4 5 5 5 5 5 6 5 5 5 5 3
1 0 -0 0 -0 0 1 2 4 3 4 4 4 5 5 5 5 5 5 5 5 4 6 4 5 5 5 5 4 4 4 4 4 5 5 5 5 5 5 5 5 4 3
2 0 -0 1 0 0 1 1 2 2 4 4 5 5 5 5 5 5 5 5 5 5 5 5 5 5 4 4 4 4 4 4 4 4 4 5 5 5 5 5 4 3 3
1 1 1 1 1 0 1 2 2 2 4 2 5 5 4 4 4 4 4 4 4 4 4 4 4 4 4 4 4 4 4 4 4 4 4 4 4 4 4 3 3 3 3
1 1 -0 0 0 1 1 2 2 3 4 3 4 3 4 3 4 3 3 3 4 4 5 4 3 4 4 4 4 4 4 4 4 4 4 4 4 3 3 3 3 3 3
0 0 1 1 2 2 2 2 3 4 5 6 5 5 2 3 3 3 3 3 4 3 4 2 2 2 4 3 4 4 4 4 4 4 3 3 3 3 2 2 3 2 3
-0 1 0 1 1 1 2 2 3 4 3 3 4 2 2 2 2 3 4 4 2 2 3 3 2 2 3 3 3 4 4 4 4 3 3 2 3 2 1 1 2 2 2
0 0 0 -0 0 1 1 1 2 3 5 4 3 2 2 2 3 3 3 4 3 3 3 3 2 2 1 2 2 3 3 3 3 2 2 2 2 1 1 1 2 2 2
-0 -0 -0 0 1 1 2 3 4 3 3 3 3 2 4 3 3 3 3 4 3 3 3 2 3 1 1 2 2 2 3 3 2 1 2 1 1 1 1 1 2 2 2
-1 -0 -0 -0 0 1 1 1 1 1 2 2 3 3 3 3 3 3 3 3 2 2 2 2 1 0 1 1 1 2 1 1 1 1 1 1 1 1 1 1 1 1 1
-1 -1 -0 0 0 0 1 0 1 2 1 2 2 2 2 3 3 2 2 2 2 2 2 2 1 1 0 1 1 1 0 1 1 1 1 0 0 1 1 1 1 2 1
-2 -1 -1 -0 -0 0 0 0 0 1 1 1 1 1 1 1 1 1 2 2 2 2 1 1 0 1 0 1 0 0 0 0 0 0 0 0 0 1 0 1 0 1 1
-2 -1 -1 -0 0 0 1 1 1 1 1 1 1 1 1 1 0 1 1 1 1 1 1 0 0 0 0 0 -0 -0 0 0 0 1 1 1 1 0 0 0 1 1 0
-2 -1 -1 -1 -1 -0 1 1 1 1 1 1 1 1 1 1 1 1 1 1 1 1 1 1 1 0 0 0 1 -0 -0 0 1 0 0 0 1 0 0 0 0 0 -0
-1 -1 -1 -1 -1 -0 0 0 1 1 1 1 1 0 0 1 0 0 1 1 1 0 0 1 0 1 0 0 0 0 0 0 0 1 0 0 0 0 0 0 0 -0 -0
-2 -2 -1 -1 -1 -1 -1 -0 0 0 0 0 1 0 0 -1 -1 -0 1 1 0 -1 -1 -0 0 1 -0 -0 -0 0 0 0 1 0 -1 -1 -1 -1 1 -0 -1 -1 -1
-2 -2 -2 -2 -1 -1 -1 -1 -1 -1 -1 -1 -1 -0 -0 -1 -2 -1 -0 -0 -1 -1 -1 -1 -1 -1 -1 -1 -1 -1 -1 -1 -1 -1 -1 -1 -1 -1 -1 -1 -0 -1 -1
-3 -3 -2 -2 -2 -1 -1 -1 -1 -1 -1 -1 -1 -1 -1 -1 -1 -1 -1 -1 -1 -1 -1 -1 -1 -1 -1 -1 -1 -2 -2 -3 -3 -2 -1 -2 -2 -1 -1 -1 -1 -1 -2
-3 -3 -3 -3 -2 -2 -2 -1 -1 -1 -1 -1 -1 -1 -1 -1 -1 -1 -1 -1 -1 -1 -1 -1 -1 -1 -2 -2 -2 -2 -2 -2 -3 -3 -3 -2 -2 -2 -2 -2 -2 -2 -2
-3 -3 -3 -3 -2 -2 -2 -2 -2 -1 -1 -1 -1 -1 -1 -1 -1 -1 -1 -1 -1 -1 -1 -1 -1 -1 -1 -1 -1 -1 -1 -2 -2 -3 -3 -3 -3 -3 -2 -2 -2 -2 -3
-2 -2 -2 -2 -2 -2 -2 -2 -2 -2 -2 -2 -1 -1 -1 -1 -1 -1 -1 -1 -1 -1 -1 -1 -1 -1 -1 -1 -1 -2 -2 -2 -2 -2 -3 -3 -3 -3 -3 -3 -3 -3 -3
-0 -1 -1 -2 -2 -2 -3 -2 -2 -2 -2 -2 -2 -2 -2 -2 -2 -2 -2 -2 -2 -2 -2 -2 -2 -2 -3 -2 -2 -2 -2 -2 -2 -2 -4 -3 -3 -3 -3 -3 -3 -3 -3
1 1 0 -0 -1 -2 -2 -3 -2 -2 -2 -3 -3 -2 -2 -2 -2 -2 -2 -2 -2 -2 -2 -2 -2 -3 -3 -3 -3 -3 -3 -3 -4 -4 -4 -4 -4 -3 -3 -3 -3 -3 -4
2 1 1 1 1 -1 -1 -2 -2 -2 -2 -2 -3 -3 -2 -2 -3 -3 -3 -3 -3 -3 -3 -3 -3 -3 -3 -3 -4 -4 -4 -4 -4 -5 -5 -4 -4 -4 -4 -4 -4 -4 -4
1 2 2 1 1 0 -1 -1 -1 -1 -2 -2 -3 -3 -3 -2 -3 -3 -3 -3 -3 -3 -3 -3 -3 -3 -4 -4 -4 -4 -5 -5 -5 -6 -5 -5 -5 -5 -5 -4 -4 -5 -5